     2              OBSERVATION DATA    GPS                 RINEX VERSION / TYPE
TRRINEXO V2.4.6 UX                                          PGM / RUN BY / DATE
                                                            COMMENT
Original Marker Name: pena                                  COMMENT
Campaign Name: STRC 1995                                    COMMENT
4-Character Station Name: PENA                              COMMENT
6-Character Antenna Code: TRMSST                            COMMENT
Vertical Measurement Point: TGP                             COMMENT
Vertical Offset to Rinex Ref. Point: 0.0629                 COMMENT
Radial Measurement Point: NGP                               COMMENT
Radial Offset to Rinex Ref. Point: 0.2334                   COMMENT
Antenna Height from Field Measurement: 1.7340 m             COMMENT
Original XYZ: -2175574.4006 -4998817.8452 3299494.5363      COMMENT
New XYZ position is based on association with SCEC monument COMMENT
E1C3K0Q5+0011. Position of that monument is believed to be  COMMENT
valid to within 1 m horizontally; vertical accuracy         COMMENT
should be no worse than 3-times this value.                 COMMENT
                                                            COMMENT
Revised Rinex header created by UCSD GPS archive for        COMMENT
GSAC on 05-Apr-1999 (1999:095) 18:24:51 GMT                 COMMENT
For assistance contact dagnew@ucsd.edu or hjohnson@ucsd.edu COMMENT
                                                            COMMENT
JLP GPS 1987 3031 S                                         MARKER NAME
PUERTO PENASCO SONOR                                        MARKER NUMBER
NULL SAHOPE (PUBLIC WORKS, BAJA STATE GOVNMT)               OBSERVER / AGENCY
4915 TRIMBLE 4000 SSE 6.10                                  REC # / TYPE / VERS
4930 TR 4000SST L1/L2 GEO                                   ANT # / TYPE
 -2175548.0000 -4998765.0000  3299440.0000                  APPROX POSITION XYZ
        1.6553        0.0000        0.0000                  ANTENNA: DELTA H/E/N
     1     1     0                                          WAVELENGTH FACT L1/2
     5    C1    L1    L2    P2    P1                        # / TYPES OF OBSERV
    30                                                      INTERVAL
  1995     2    19    16     0   30.000000                  TIME OF FIRST OBS
  1995     2    19    23    59   60.000000                  TIME OF LAST OBS
     0                                                      # OF SATELLITES
                                                            END OF HEADER
 95  2 19 16  0 30.0000000  0  6  1 14 15 22 25 29
  24630642.086     -336809.76315   -221786.45259  24630643.7624
  21597128.992    -5607518.68117  -4167126.91059  21597127.1994
  21934372.133     -754809.54716   -537939.79959  21934371.0664
  22485717.578    -5568758.22816  -4047259.82359  22485717.1804
  21538092.344     -735384.23417   -521428.57559  21538089.2854
  23372778.883    -4964390.16415  -3688305.26159  23372776.1764
 95  2 19 16  1  0.0000000  0  6  1 14 15 22 25 29
  24632185.727     -328696.017 5   -215464.14048  24632185.4454
  21572367.289    -5737642.671 7  -4268522.22149  21572365.3444
  21935428.398     -749258.292 6   -533614.18049  21935427.2274
  22459468.867    -5706696.231 6  -4154743.93149  22459467.3674
  21538803.328     -731648.139 7   -518517.34849  21538799.9654
  23350684.469    -5080492.571 5  -3778774.65549  23350682.4304
 95  2 19 16  1 30.0000000  0  6  1 14 15 22 25 29
  24633837.711     -320017.756 5   -208701.95048  24633838.5554
  21547762.297    -5866941.859 7  -4369274.82749  21547760.3054
  21936671.031     -742726.705 6   -528524.66349  21936670.1524
  22433382.273    -5843782.202 6  -4261564.12949  22433382.0274
  21539677.875     -727051.256 7   -514935.37549  21539674.8404
  23328701.055    -5196020.229 5  -3868796.17349  23328699.4964
 95  2 19 16  2  0.0000000  0  6  1 14 15 22 25 29
  24635592.992     -310795.809 5   -201516.09747  24635595.0084
  21523310.750    -5995437.280 7  -4469401.11849  21523308.7934
  21938096.406     -735236.604 6   -522688.25149  21938096.1134
  22407454.430    -5980034.502 6  -4367734.71549  22407453.3284
  21540717.219     -721591.974 7   -510681.40149  21540713.8674
  23306824.109    -5310982.901 5  -3958377.46449  23306821.9654
 95  2 19 16  2 30.0000000  0  6  1 14 15 22 25 29
  24637446.617     -301055.229 5   -193926.12946  24637447.0394
  21499012.328    -6123125.834 7  -4568898.68749  21499009.9384
  21939701.836     -726801.569 6   -516115.52649  21939701.3554
  22381680.445    -6115477.003 6  -4473274.29949  22381679.5904
  21541918.625     -715277.019 7   -505760.67049  21541915.5204
  23285056.688    -5425372.500 5  -4047512.18949  23285053.6294
 95  2 19 16  3  0.0000000  0  6  1 14 15 22 25 29
  24639396.828     -290806.984 5   -185940.55549  24639396.9574
  21474867.641    -6250007.833 7  -4667767.77249  21474865.8834
  21941483.781     -717436.806 6   -508818.34049  21941482.6804
  22356056.344    -6250131.944 6  -4578200.20749  22356055.8404
  21543279.266     -708126.803 7   -500189.09249  21543276.1844
  23263398.492    -5539185.832 5  -4136197.90449  23263396.3834
 95  2 19 16  3 30.0000000  0  6  1 14 15 22 25 29
  24641441.281     -280062.442 5   -177568.28546  24641442.7934
  21450875.023    -6376090.488 7  -4766013.99149  21450873.1134
  21943440.328     -707156.160 6   -500807.47649  21943439.6254
  22330578.750    -6384018.352 6  -4682527.25449  22330578.4344
  21544795.844     -700157.893 7   -493979.56849  21544792.5744
  23241852.078    -5652414.500 5  -4224428.02249  23241850.6254
 95  2 19 16  4  0.0000000  0  6  1 14 15 22 25 29
  24643577.195     -268839.718 5   -168823.43747  24643579.4104
  21427029.742    -6501397.566 7  -4863655.86749  21427027.7504
  21945566.477     -695982.771 6   -492100.97249  21945565.4694
  22305244.477    -6517150.584 6  -4786266.63349  22305243.1764
  21546463.625     -691393.327 7   -487150.05449  21546460.4844
  23220411.328    -5765086.219 5  -4312224.13549  23220409.5824
 95  2 19 16  4 30.0000000  0  6  1 14 15 22 25 29
  24645801.516     -257149.228 5   -159714.04149  24645803.9884
  21403328.148    -6625951.202 7  -4960710.64149  21403326.2504
  21947857.500     -683943.474 6   -482719.73749  21947856.7854
  22280052.141    -6649537.820 6  -4889425.49849  22280051.4734
  21548274.086     -681879.510 7   -479736.70849  21548270.8524
  23199069.070    -5877240.460 5  -4399617.02349  23199066.7274
 95  2 19 16  5  0.0000000  0  6  1 14 15 22 25 29
  24648116.406     -244987.361 5   -150237.31248  24648116.9224
  21379765.711    -6749772.057 7  -5057194.42149  21379763.6484
  21950310.625     -671052.152 6   -472674.57249  21950309.6524
  22255005.727    -6781156.621 6  -4991985.58649  22255004.9184
  21550226.008     -671623.478 7   -471745.01549  21550222.8674
  23177819.547    -5988906.687 5  -4486629.66149  23177817.4494
 95  2 19 16  5 30.0000000  0  6  1 14 15 22 25 29
  24650516.094     -232372.377 5   -140407.56948  24650516.7034
  21356336.969    -6872889.594 7  -5153130.16149  21356335.0824
  21952921.938     -657330.614 6   -461982.51349  21952921.1644
  22230106.680    -6912002.320 6  -5093943.25849  22230106.2114
  21552316.562     -660636.912 7   -463184.07749  21552313.6454
  23156655.828    -6100123.468 6  -4573292.06349  23156653.7664
 95  2 19 16  6  0.0000000  0  6  1 14 15 22 25 29
  24652999.648     -219325.961 5   -130241.60449  24653000.8794
  21333037.867    -6995328.301 7  -5248536.94349  21333035.5824
  21955686.859     -642801.403 6   -450661.08049  21955685.9924
  22205354.367    -7042076.880 6  -5195300.04549  22205353.7814
  21554538.664     -648959.095 7   -454084.49649  21554535.6524
  23135573.648    -6210912.284 6  -4659620.99149  23135571.5984
 95  2 19 16  6 30.0000000  0  6  1 14 15 22 25 29
  24655558.953     -205875.174 5   -119760.56049  24655561.4844
  21309864.664    -7117103.481 7  -5343426.68849  21309862.6954
  21958601.039     -627486.494 6   -438727.41949  21958600.2894
  22180745.578    -7171396.164 6  -5296068.30849  22180745.1454
  21556887.711     -636616.180 7   -444466.66349  21556884.5474
  23114572.984    -6321270.311 6  -4745614.24049  23114570.5944
 95  2 19 16  7  0.0000000  0  6  1 14 15 22 25 29
  24658191.148     -192043.827 5   -108982.98949  24658192.3324
  21286815.227    -7238229.787 7  -5437810.82249  21286813.1054
  21961661.508     -611403.859 6   -426195.53049  21961660.7234
  22156275.469    -7299988.227 6  -5396269.90449  22156274.8954
  21559361.156     -623618.148 7   -434338.34649  21559358.1334
  23093654.461    -6431196.993 6  -4831271.37249  23093652.7034
 95  2 19 16  7 30.0000000  0  6  1 14 15 22 25 29
  24660892.453     -177850.096 5    -97923.03746  24660893.9774
  21263889.227    -7358707.209 7  -5531689.32249  21263887.5864
  21964864.961     -594570.403 6   -413078.58849  21964864.2934
  22131936.641    -7427889.692 6  -5495933.36849  22131936.4414
  21561952.523     -609999.678 7   -423726.56949  21561949.3834
  23072818.438    -6540694.698 6  -4916594.24949  23072816.5044
 95  2 19 16  8  0.0000000  0  6  1 14 15 22 25 29
  24663658.953     -163310.605 5    -86593.66146  24663664.0044
  21241088.680    -7478525.063 7  -5625053.87749  21241086.7814
  21968208.195     -577001.613 6   -399388.65749  21968207.1644
  22107723.406    -7555132.051 6  -5595083.25149  22107722.5634
  21564657.891     -595783.549 7   -412649.08249  21564654.9614
  23052063.352    -6649761.496 6  -5001581.34849  23052061.0784
 95  2 19 16  8 30.0000000  0  6  1 14 15 22 25 29
  24666489.875     -148439.177 5    -75005.96647  24666489.7464
  21218415.047    -7597675.681 7  -5717898.51149  21218413.0314
  21971688.859     -558710.931 6   -385136.21349  21971687.9804
  22083631.062    -7681737.186 6  -5693736.60549  22083629.8794
  21567477.938     -580964.599 7   -401101.86549  21567474.8674
  23031387.547    -6758411.660 6  -5086243.80949  23031385.1094
 95  2 19 16  9  0.0000000  0  6  1 14 15 22 25 29
  24669381.930     -133237.603 5
  21195866.531    -7716169.163 7  -5810231.09249  21195864.1414
  21975304.570     -539709.506 6   -370329.94449  21975304.0434
  22059658.273    -7807716.765 6  -5791902.49749  22059657.1724
  21570411.031     -565550.064 7   -389090.55949  21570408.1254
  23010785.711    -6866676.321 6  -5170605.86849  23010783.2974
 95  2 19 16  9 30.0000000  0  6  1 14 15 22 25 29
  24672332.891     -117732.596 5
  21173438.641    -7834027.010 7  -5902068.37749  21173436.5904
  21979051.820     -520017.830 6   -354985.82249  21979051.4924
  22035804.000    -7933070.078 6  -5889580.40049  22035803.0274
  21573454.203     -549557.473 7   -376628.82049  21573451.1334
  22990250.070    -6974592.893 6  -5254696.69449  22990248.1954
 95  2 19 16  9 59.9990000  0  6  1 14 15 22 25 29
  24675339.151     -101933.671 5      8231.14959  24675341.5894
  21151129.558    -7951263.328 7  -5993421.34049  21151127.6244
  21982928.862     -499643.999 6   -339110.13749  21982928.5344
  22012072.479    -8057781.214 6  -5986757.89949  22012071.3544
  21576610.440     -532972.505 7   -363705.48849  21576607.6984
  22969778.659    -7082171.479 6  -5338524.14349  22969776.8194
 95  2 19 16 10 29.9990000  0  6  1 14 15 22 25 29
  24678402.198      -85838.176 5     20772.96647  24678405.1754
  21128932.581    -8067909.615 7  -6084314.54649  21128930.4604
  21986933.839     -478598.912 6   -322711.40949  21986933.0894
  21988463.628    -8181846.816 6  -6083432.38149  21988462.8904
  21579879.073     -515795.122 7   -350320.53749  21579876.2374
  22949366.972    -7189435.090 6  -5422106.16749  22949365.4134
 95  2 19 16 10 59.9990000  0  6  1 14 15 22 25 29
  24681523.667      -69433.526 4     33555.73049  24681525.8234
  21106847.206    -8183968.566 7  -6174750.08749  21106845.2144
  21991066.839     -456880.100 6   -305787.69549  21991065.8314
  21964982.417    -8305241.599 6  -6179584.12949  21964981.4334
  21583259.933     -498029.169 7   -336476.95949  21583257.0264
  22929016.542    -7296375.286 6  -5505436.18349  22929014.9254
 95  2 19 16 11 29.9990000  0  6  1 14 15 22 25 29
  24684703.683      -52722.767 4     46577.01048  24684705.8154
  21084874.308    -8299437.268 7  -6264725.69649  21084872.3154
  21995324.972     -434502.771 6   -288350.86149  21995323.7414
  21941628.222    -8427966.826 6  -6275214.15149  21941627.3194
  21586750.956     -479684.766 7   -322182.64049  21586747.8864
  22908728.472    -7402990.002 6  -5588512.56849  22908727.0654
 95  2 19 16 11 59.9990000  0  6  1 14 15 22 25 29
  24687951.292      -35660.203 4     59872.40148  24687952.6754
  21063019.901    -8414282.934 7  -6354215.81849  21063017.7694
  21999712.315     -411447.640 6   -270385.86249  21999711.7294
  21918405.323    -8550004.013 6  -6370308.02949  21918404.4214
  21590354.972     -460744.539 7   -307424.04549  21590351.7964
  22888509.940    -7509242.079 6  -5671306.37649  22888507.2334
 95  2 19 16 12 29.9990000  0  5 14 15 22 25 29
  21041280.737    -8528522.609 7  -6443233.74549  21041278.8274
  22004223.878     -387738.737 6   -251911.42649  22004222.5774
  21895307.112    -8671384.986 6  -6464890.57449  21895306.4684
  21594065.175     -441248.247 7   -292232.14649  21594061.9994
  22868356.222    -7615147.698 6  -5753830.23149  22868353.4094
 95  2 19 16 12 59.9990000  0  5 14 15 22 25 29
  21019655.870    -8642162.940 7  -6531784.65149  21019653.7964
  22008857.729     -363389.903 6   -232938.35449  22008857.0734
  21872329.136    -8792136.787 6  -6558982.83549  21872328.8434
  21597876.058     -421221.572 7   -276626.96549  21597872.9524
  22848268.042    -7720712.711 6  -5836088.66949  22848265.4994
 95  2 19 16 13 29.9990000  0  5 14 15 22 25 29
  20998147.237    -8755192.062 7  -6619859.28849  20998145.2454
  22013611.706     -338406.081 6   -213470.47949  22013611.1204
  21849467.409    -8912274.954 6  -6652596.94249  21849466.4724
  21601786.472     -400671.044 7   -260613.59449  21601783.4604
  22828244.472    -7825936.336 6  -5918081.08149  22828242.8664
 95  2 19 16 13 59.9990000  0  5 14 15 22 25 29
  20976751.948    -8867624.917 7  -6707469.29949  20976749.9564
  22018484.722     -312799.387 6   -193517.24949  22018483.9724
  21826719.284    -9031816.216 6  -6745745.93249  21826718.5584
  21605793.995     -379612.328 7   -244204.23149  21605790.8784
  22808284.995    -7930823.556 6  -5999811.37449  22808283.0504
 95  2 19 16 14 29.9990000  0  5 14 15 22 25 29
  20955468.792    -8979467.694 7  -6794619.51249  20955466.4254
  22023473.144     -286584.869 6   -173090.39349  22023472.4404
  21804082.940    -9150771.208 6  -6838438.09049  21804082.0974
  21609896.019     -358057.822 7   -227408.54049  21609892.9134
  22788387.675    -8035385.511 6  -6081288.19549  22788384.9214
 95  2 19 16 14 59.9990000  0  5 14 15 22 25 29
  20934303.659    -9090691.122 7  -6881287.11449  20934301.4684
  22028577.144     -259763.329 6   -152190.54249  22028576.4294
  21781563.331    -9269113.589 6  -6930652.87149  21781562.7694
  21614094.714     -335992.434 7   -210214.75449  21614091.5034
  22768552.151    -8139622.035 6  -6162511.45049  22768550.0074
 95  2 19 16 15 29.9990000  0  5 14 15 22 25 29
  20913256.112    -9201297.222 7  -6967473.68449  20913253.7924
  22033794.448     -232347.029 6   -130827.23449  22033793.9094
  21759165.542    -9386813.829 6  -7022367.28649  21759165.0384
  21618390.159     -313420.396 7   -192626.17949  21618387.1364
  22748776.065    -8243546.173 6  -6243491.27149  22748774.3904
 95  2 19 16 15 59.9990000  0  5 14 15 22 25 29
  20892323.183    -9311301.147 7  -7053191.02649  20892320.9914
  22039123.034     -204344.640 6   -109007.22749  22039123.0464
  21736894.659    -9503848.156 6  -7113562.81549  21736893.8514
  21622781.253     -290345.247 7   -174645.57649  21622778.1594
  22729056.409    -8347174.304 6  -6324240.45949  22729054.4994
 95  2 19 16 16 29.9990000  0  5 14 15 22 25 29
  20871506.104    -9420695.218 7  -7138433.15949  20871503.8314
  22044562.464     -175760.160 6    -86733.63949  22044561.7144
  21714752.261    -9620205.830 6  -7204231.07649  21714751.4174
  21627267.089     -266771.080 7   -156276.12449  21627264.0194
  22709391.081    -8450515.164 6  -6404765.80249  22709388.4914
 95  2 19 16 16 59.9990000  0  5 14 15 22 25 29
  20850803.870    -9529487.129 7  -7223206.07549  20850801.5854
  22050113.011     -146592.337 6    -64005.50849  22050113.2924
  21692740.511    -9735877.577 6  -7294364.85749  21692739.5034
  21631848.964     -242693.841 7   -137514.66649  21631845.9874
  22689780.050    -8553569.933 6  -6485068.20149  22689777.8124
 95  2 19 16 17 29.9990000  0  5 14 15 22 25 29
  20830209.729    -9637710.078 7  -7307535.64349  20830207.2104
  22055772.675     -116849.396 6    -40829.23149  22055772.3004
  21670854.847    -9850888.938 6  -7383984.05249  21670853.8864
  21636522.308     -218135.341 7   -118378.19849  21636519.0974
  22670221.878    -8656350.897 6  -6565157.24749  22670219.2534
 95  2 19 16 17 59.9990000  0  5 14 15 22 25 29
  20809721.394    -9745375.959 7  -7391431.13649  20809718.9684
  22061538.808      -86550.285 6    -17219.58449  22061538.0934
  21649083.472    -9965297.402 6  -7473133.45249  21649082.8394
  21641285.276     -193106.431 7    -98875.17949  21641282.4874
  22650713.581    -8758868.441 6  -6645041.03549  22650711.2724
 95  2 19 16 18 29.9990000  0  5 14 15 22 25 29
  20789342.245    -9852469.753 7  -7474880.85249  20789339.9014
  22067410.229      -55695.589 6      6823.00149  22067409.9374
  21627423.581   -10079120.645 6  -7561826.84149  21627422.7374
  21646137.909     -167605.872 7    -79004.64049  21646134.9094
  22631258.862    -8861102.553 6  -6724703.96649  22631256.0504
 95  2 19 16 18 59.9990000  0  5 14 15 22 25 29
  20769070.339    -9958999.428 7  -7557890.98349  20769068.3004
  22073385.503      -24293.546 6     31292.08449  22073385.2694
  21605874.401   -10192361.558 6  -7650066.46849  21605873.3234
  21651078.987     -141641.021 7    -58772.30949  21651075.9054
  22611855.979    -8963066.886 6  -6804156.68249  22611854.0814
 95  2 19 16 19 29.9990000  0  5 14 15 22 25 29
  20748911.237   -10064936.687 7  -7640439.50449  20748909.1634
  22079466.644        7659.868 6     56190.79549  22079466.3154
  21584437.917   -10305011.252 6  -7737845.41749  21584437.3194
  21656109.167     -115206.325 7    -38173.87449  21656106.0384
  22592506.667    -9064747.407 6  -6883388.24949  22592504.5934
 95  2 19 16 19 59.9990000  0  5 14 15 22 25 29
  20728867.487   -10170267.185 7  -7722515.22149  20728865.1084
  22085650.987       40158.715 6     81514.53149  22085650.1084
  21563116.550   -10417055.694 6  -7825152.74049  21563115.6944
  21661229.894      -88298.253 7    -17206.57549  21661226.8824
  22573212.753    -9166138.931 6  -6962394.61149  22573210.9834
 95  2 19 16 20 29.9990000  0  5 14 15 22 25 29
  20708939.534   -10274990.407 7  -7804117.73149  20708937.4374
  22091939.300       73204.658 6    107264.57749  22091938.3274
  21541918.253   -10528454.958 6  -7911957.33349  21541917.5624
  21666437.519      -60930.481 7      4118.93949  21666434.4374
  22553972.097    -9267248.187 6  -7041181.03149  22553970.3044
 95  2 19 16 20 59.9990000  0  5 14 15 22 25 29
  20689126.354   -10379108.099 7  -7885248.40149  20689123.9404
  22098330.440      106789.795 6    133434.77949  22098330.2764
  21520844.761   -10639195.963 6  -7998248.99649  21520843.7414
  21671730.401      -33116.180 7     25792.39449  21671727.5074
  22534782.362    -9368092.735 6  -7119761.18849  22534780.4874
 95  2 19 16 21 29.9990000  0  5 14 15 22 25 29
  20669429.144   -10482617.400 7  -7965905.00049  20669426.9174
  22104823.675      140911.872 6    160023.36549  22104822.9374
  21499897.042   -10749277.417 6  -8084026.72949  21499896.0934
  21677107.573       -4860.149 7     47810.05149  21677104.7964
  22515644.526    -9468659.350 6  -7198124.76349  22515642.0654
 95  2 19 16 21 59.9990000  0  5 14 15 22 25 29
  20649847.542   -10585519.663 7  -8046088.58549  20649845.4094
  22111420.167      175576.139 6    187034.44149  22111419.8044
  21479079.136   -10858677.434 6  -8169273.47249  21479077.9764
  21682570.019       23845.577 7     70178.12349  21682566.9014
  22496561.073    -9568945.481 6  -7276269.78749  22496558.3664
 95  2 19 16 22 29.9990000  0  5 14 15 22 25 29
  20630380.120   -10687822.560 7  -8125805.12749  20630377.9994
  22118117.722      210772.594 6    214460.20249  22118116.7144
  21458389.042   -10967403.904 6  -8253995.37549  21458387.7884
  21688117.081       52995.940 7     92892.66449  21688114.2104
  22477529.706    -9668954.294 6  -7354198.71849  22477527.7614
 95  2 19 16 22 59.9990000  0  5 14 15 22 25 29
  20611028.589   -10789515.423 7  -8205046.32349  20611026.5854
  22124918.011      246507.252 6    242305.33949  22124917.4134
  21437826.612   -11075461.839 6  -8338196.34349  21437825.4174
  21693753.237       82614.199 7    115971.79849  21693750.2494
  22458555.644    -9768664.276 6  -7431894.78749  22458553.9094
 95  2 19 16 23 29.9990000  0  5 14 15 22 25 29
  20591792.823   -10890598.646 7  -8283812.47249  20591790.8664
  22131820.526      282780.711 6    270570.32749  22131820.3744
  21417390.089   -11182855.285 6  -8421879.53449  21417388.8824
  21699481.456      112715.509 7    139427.33349  21699478.6204
  22439639.784    -9868068.247 6  -7509352.42149  22439637.9334
 95  2 19 16 23 59.9990000  0  5 14 15 22 25 29
  20572674.940   -10991064.390 7  -8362097.46849  20572672.7964
  22138825.003      319588.305 6    299251.51949  22138824.1014
  21397080.979   -11289579.564 6  -8505041.29749  21397079.6324
  21705301.620      143299.403 7    163258.90849  21705298.7844
  22420780.714    -9967172.637 6  -7586576.61549  22420778.4174
 95  2 19 16 24 29.9990000  0  5 14 15 22 25 29
  20553677.245   -11090898.524 7  -8439890.30249  20553675.0544
  22145930.979      356930.728 6    328349.46049  22145930.2654
  21376898.729   -11395639.284 6  -8587685.22549  21376897.1364
  21711212.534      174362.160 7    187463.62449  21711209.4644
  22401980.183   -10065970.673 6  -7663562.08249  22401977.7334
 95  2 19 16 24 59.9990000  0  5 14 15 22 25 29
  20534801.815   -11190088.536 7  -8517181.22049  20534799.6944
  22153139.433      394811.080 6    357866.57249  22153139.3744
  21356845.800   -11501017.516 6  -8669798.12249  21356844.2764
  21717214.612      205902.596 7    212040.55449  21717211.4604
  22383237.886   -10164461.639 6  -7740308.29049  22383235.6364
 95  2 19 16 25 29.9990000  0  5 14 15 22 25 29
  20516052.870   -11288615.206 7  -8593955.24949  20516050.8544
  22160451.112      433234.337 6    387806.72249  22160450.3394
  21336925.308   -11605699.320 6  -8751368.35049  21336924.3944
  21723305.964      237913.305 7    236983.93049  21723302.6944
  22364555.792   -10262637.320 6  -7816808.79649  22364553.3904
 95  2 19 16 25 59.9990000  0  5 14 15 22 25 29
  20497431.792   -11386470.573 7  -8670206.18549  20497429.9054
  22167866.417      472201.402 6    418170.63549  22167865.6904
  21317138.612   -11709677.380 6  -8832390.21149  21317137.6754
  21729484.815      270382.954 7    262284.92449  21729482.1084
  22345934.511   -10360491.886 6  -7893059.09949  22345931.4404
 95  2 19 16 26 29.9980000  0  5 14 15 22 25 29
  20478937.514   -11483658.018 7  -8745936.66649  20478935.4394
  22175384.209      511707.817 6    448954.81249  22175384.0454
  21297487.061   -11812947.372 6  -8912860.32749  21297486.1474
  21735750.225      303308.108 7    287940.85049  21735747.5184
  22327375.990   -10458018.465 6  -7969053.83849  22327373.9634
 95  2 19 16 26 59.9980000  0  5 14 15 22 25 29
  20460567.428   -11580194.411 7  -8821159.83049  20460565.3074
  22183004.107      551751.398 6    480157.54649  22183004.0374
  21277968.521   -11915518.189 6  -8992785.63749  21277967.4324
  21742102.553      336689.237 7    313952.07749  21742099.7754
  22308876.139   -10555234.488 6  -8044806.57149  22308874.3574
 95  2 19 16 27 29.9980000  0  5 14 15 22 25 29
  20442321.178   -11676078.128 7  -8895874.41849  20442319.3034
  22190724.959      592323.673 6    511772.25749  22190725.2754
  21258583.834   -12017386.017 6  -9072163.16449  21258583.0024
  21748540.436      370521.435 7    340314.79649  21748537.5064
  22290436.764   -10652134.917 6  -8120313.38849  22290434.5144
 95  2 19 16 27 59.9980000  0  5 14 15 22 25 29
  20424199.904   -11771306.000 7  -8970077.95849  20424197.8544
  22198546.904      633428.320 6    543801.81249  22198546.7174
  21239337.209   -12118527.558 7  -9150974.75149  21239336.2954
  21755067.662      404820.691 7    367041.44849  21755064.5684
  22272057.428   -10748718.398 6  -8195573.24349  22272055.1434
 95  2 19 16 28 29.9980000  0  5 14 15 22 25 29
  20406203.412   -11865878.340 7  -9043770.69249  20406201.2684
  22206469.326      675061.279 6    576243.03049  22206468.8814
  21220230.975   -12218931.362 7  -9229211.47949  21220230.3544
  21761685.248      439595.950 7    394139.01249  21761682.0144
  22253738.975   -10844983.801 6  -8270585.23349  22253736.9714
 95  2 19 16 28 59.9980000  0  5 14 15 22 25 29
  20388331.170   -11959797.578 7  -9116954.51749  20388328.8614
  22214490.029      717208.797 6    609085.20549  22214489.1974
  21201262.959   -12318609.644 7  -9306882.86749  21201262.0924
  21768390.170      474831.463 7    421595.22149  21768387.3574
  22235479.498   -10940936.781 6  -8345353.77749  22235477.2714
 95  2 19 16 29 29.9980000  0  5 14 15 22 25 29
  20370585.615   -12053050.939 7  -9189619.47449  20370583.5644
  22222606.842      759862.633 6    642321.93049  22222606.3734
  21182433.240   -12417560.925 7  -9383987.75749  21182432.3504
  21775181.701      510518.962 7    449403.62549  21775178.7014
  22217279.279   -11036580.305 6  -8419881.18649  22217277.1004
 95  2 19 16 29 59.9980000  0  5 14 15 22 25 29
  20352966.357   -12145641.239 7  -9261767.76149  20352964.3074
  22230817.553      803011.679 6    675944.52549  22230816.9434
  21163737.615   -12515808.555 7  -9460544.35049  21163736.5844
  21782055.850      546644.389 7    477553.26649  21782053.0494
  22199133.459   -11131937.379 6  -8494185.38849  22199130.9284
 95  2 19 16 30 29.9980000  0  5 14 15 22 25 29
  20335474.803   -12237559.812 7  -9333392.63049  20335472.6464
  22239122.834      846655.371 6    709952.54949  22239122.6354
  21145171.568   -12613372.906 7  -9536568.51249  21145170.6544
  21789010.139      583189.671 7    506030.07049  21789007.4324
  22181042.623   -11227004.286 6  -8568263.48749  22181039.9284
 95  2 19 16 30 59.9980000  0  5 14 15 22 25 29
  20318109.951   -12328813.263 7  -9404499.22349  20318107.8304
  22247520.045      890782.519 6    744337.29349  22247519.7294
  21126732.279   -12710273.117 7  -9612075.16449  21126731.1434
  21796041.396      620139.568 7    534822.15149  21796038.6074
  22163004.709   -11321795.097 6  -8642126.45249  22163002.0614
 95  2 19 16 31 29.9980000  0  5 14 15 22 25 29
  20300870.287   -12419406.951 7  -9475091.71049  20300868.0494
  22256007.615      935384.741 6    779092.22449  22256007.5924
  21108419.334   -12806506.116 7  -9687061.90749  21108418.2794
  21803151.584      657501.767 7    563935.51949  21803148.7364
  22145016.896   -11416323.151 6  -8715784.66549  22145014.7174
 95  2 19 16 31 59.9980000  0  5 14 15 22 25 29
  20283751.654   -12509366.950 7  -9545190.41949  20283749.7684
  22264582.146      980444.446 6    814203.62649  22264581.8304
  21090231.389   -12902084.084 7  -9761538.23649  21090230.3114
  21810337.443      695264.215 7    593360.75649  21810334.5494
  22127078.842   -11510586.989 6  -8789237.00349  22127076.8964
 95  2 19 16 32 29.9980000  0  5 14 15 22 25 29
  20266750.623   -12598709.309 7  -9614807.84549  20266748.8304
  22273242.412     1025954.734 6    849666.12749  22273242.0724
  21072171.717   -12996988.534 7  -9835489.74549  21072170.7324
  21817602.529      733441.352 7    623109.13249  21817599.9864
  22109193.264   -11604574.062 6  -8862473.66749  22109190.9434
 95  2 19 16 32 59.9980000  0  5 14 15 22 25 29
  20249867.045   -12687432.292 7  -9683942.64349  20249864.9944
  22281988.295     1071914.380 6    885478.79549  22281988.1074
  21054245.818   -13091189.864 7  -9908893.36949  21054244.9164
  21824950.248      772054.783 7    653197.47349  21824947.5884
  22091362.779   -11698277.078 6  -8935488.99249  22091360.8224
 95  2 19 16 33 29.9980000  0  5 14 15 22 25 29
  20233099.857   -12775544.925 7  -9752601.84149  20233097.7484
  22290814.592     1118295.870 6    921620.15549  22290814.6394
  21036452.662   -13184692.357 7  -9981752.43649  21036451.6074
  21832374.100      811066.316 7    683596.02649  21832371.4984
  22073581.186   -11791718.066 6  -9008300.11849  22073579.2994
 95  2 19 16 33 59.9980000  0  5 14 15 22 25 29
  20216449.490   -12863042.437 7  -9820781.72349  20216447.3464
  22299720.068     1165093.924 6    958086.12149  22299719.2834
  21018792.248   -13277499.029 7 -10054069.30449  21018791.5574
  21839868.764      850452.346 7    714286.39349  21839866.2094
  22055849.279   -11884900.886 6  -9080910.10649  22055846.7834
 95  2 19 16 34 29.9980000  0  5 14 15 22 25 29
  20199919.654   -12949907.057 7  -9888468.44649  20199917.5334
  22308704.811     1212308.022 6    994876.27449  22308704.9044
  21001265.936   -13369600.680 7 -10125836.80049  21001265.0684
  21847433.076      890201.881 7    745260.01449  21847430.2524
  22038163.537   -11977839.436 6  -9153329.74849  22038160.6664
 95  2 19 16 34 59.9980000  0  5 14 15 22 25 29
  20183513.764   -13036121.391 7  -9955648.44349  20183511.5724
  22317766.193     1259926.960 6   1031981.87949  22317766.2054
  20983869.756   -13461017.992 7 -10197071.05149  20983868.7954
  21855057.670      930270.167 7    776482.00649  21855054.9044
  22020519.381   -12070559.470 6  -9225579.11549  22020516.2054
 95  2 19 16 35 29.9980000  0  5 14 15 22 25 29
  20167230.295   -13121691.517 7 -10022326.46349  20167228.0804
  22326901.318     1307934.552 5   1069390.33249  22326901.5884
  20966597.889   -13551783.755 7 -10267797.59249  20966596.7174
  21862738.076      970629.858 7    807931.07349  21862735.5574
  22002910.748   -12163093.801 6  -9297683.77949  22002908.3934
 95  2 19 16 35 59.9980000  0  5 14 15 22 25 29
  20151066.061   -13206633.839 7 -10088515.28549  20151063.9864
  22336110.795     1356327.361 6   1107098.95449  22336110.1154
  20949446.162   -13641916.568 7 -10338030.92949  20949445.1314
  21870475.928     1011292.176 7    839615.94549  21870472.9284
  21985338.537   -12255437.506 6  -9369639.90849  21985335.8424
 95  2 19 16 36 29.9980000  0  5 14 15 22 25 29
  20135020.475   -13290955.089 7 -10154220.15649  20135018.3304
  22345392.443     1405102.304 6   1145105.34449  22345392.5724
  20932417.225   -13731405.624 7 -10407762.63749  20932415.9244
  21878272.326     1052262.060 7    871540.48649  21878269.9124
  21967803.373   -12347585.092 6  -9441443.21649  21967801.3224
 95  2 19 16 36 59.9980000  0  5 14 15 22 25 29
  20119086.389   -13374688.458 7 -10219466.93849  20119084.1394
  22354742.389     1454238.622 5   1183393.30949  22354742.5184
  20915509.279   -13820256.699 7 -10476997.21949  20915507.8504
  21886126.475     1093536.332 7    903702.20649  21886123.7684
  21950303.623   -12439545.504 6  -9513100.66349  21950301.0334
 95  2 19 16 37 29.9980000  0  5 14 15 22 25 29
  20103263.475   -13457838.734 7 -10284259.36149  20103261.5064
  22364163.240     1503742.427 6   1221967.64249  22364162.9364
  20898728.506   -13908438.262 7 -10545710.09549  20898727.4284
  21894045.193     1135148.633 7    936127.33149  21894042.7094
  21932847.373   -12531279.698 6  -9584581.85049  21932844.6074
 95  2 19 16 37 59.9980000  0  5 14 15 22 25 29
  20087549.857   -13540414.561 7 -10348604.15949  20087547.7254
  22373652.482     1553608.602 6   1260824.33049  22373652.1894
  20882080.436   -13995924.522 7 -10613881.19149  20882079.3694
  21902028.451     1177100.036 7    968816.68349  21902025.9794
  21915438.553   -12622763.733 6  -9655868.10749  21915436.2794
 95  2 19 16 38 29.9980000  0  5 14 15 22 25 29
  20071946.131   -13622413.105 7 -10412499.12249  20071944.0924
  22383207.693     1603824.279 5   1299953.37749  22383207.2834
  20865568.053   -14082697.166 7 -10681496.21649  20865566.9164
  21910074.459     1219382.815 7   1001764.24849  21910071.7174
  21898072.654   -12714022.368 6  -9726978.72749  21898070.2294
 95  2 19 16 38 59.9980000  0  5 14 15 22 25 29
  20056454.607   -13703821.556 7 -10475934.28049  20056452.5804
  22392828.998     1654382.508 6   1339349.33649  22392828.8694
  20849188.006   -14168773.707 7 -10748568.82149  20849187.1624
  21918183.857     1261997.538 7   1034970.47749  21918181.1394
  21880749.545   -12805055.298 6  -9797913.46449  21880747.2954
 95  2 19 16 39 29.9980000  0  5 14 15 22 25 29
  20041076.264   -13784634.610 7 -10538905.49449  20041074.2714
  22402514.389     1705276.552 6   1379006.95149  22402513.1824
  20832935.295   -14254183.674 7 -10815122.02349  20832934.4284
  21926354.037     1304931.680 7   1068425.59949  21926351.2364
  21863468.006   -12895869.914 6  -9868678.08549  21863465.4514
 95  2 19 16 39 59.9980000  0  5 14 15 22 25 29
  20025811.857   -13864850.002 7 -10601410.99149  20025810.0064
  22412261.982     1756503.480 5   1418923.98749  22412261.8304
  20816805.662   -14338945.710 7 -10881170.34349  20816804.5374
  21934584.045     1348181.742 7   1102126.90149  21934581.7484
  21846224.740   -12986484.269 6  -9939286.66749  21846222.3384
 95  2 19 16 40 29.9980000  0  5 14 15 22 25 29
  20010662.537   -13944459.635 7 -10663444.47149  20010660.6974
  22422072.662     1808056.406 6   1459095.01749  22422072.2174
  20800795.943   -14423078.020 7 -10946727.96949  20800794.7484
  21942872.068     1391734.835 7   1136064.32449  21942869.8544
  21829016.803   -13076911.940 6 -10009749.78249  21829014.2014
 95  2 19 16 40 59.9980000  0  5 14 15 22 25 29
  19995626.357   -14023476.343 7 -10725015.93249  19995624.5644
  22431943.123     1859926.289 5   1499513.04449  22431943.3694
  20784900.397   -14506610.668 7 -11011818.32249  20784898.9794
  21951213.295     1435567.149 6   1170219.31949  21951210.6824
  21811846.553   -13167142.657 6 -10080059.42849  21811844.0684
 95  2 19 16 41 29.9980000  0  5 14 15 22 25 29
  19980704.225   -14101892.835 7 -10786119.70049  19980702.0104
  22441873.998     1912113.328 5   1540178.20749  22441874.0334
  20769122.693   -14589521.113 7 -11076423.84749  20769121.1824
  21959606.404     1479674.672 7   1204588.75849  21959604.2604
  21794713.436   -13257177.289 6 -10150216.28249  21794711.4674
 95  2 19 16 41 59.9980000  0  5 14 15 22 25 29
  19965898.240   -14179698.698 7 -10846747.64549  19965896.1434
  22451863.264     1964609.326 5   1581084.09149  22451863.8264
  20753468.654   -14671784.690 7 -11140525.31749  20753467.4944
  21968050.295     1524044.275 7   1239162.41349  21968048.0334
  21777616.162   -13347025.755 6 -10220228.06349  21777613.8654
 95  2 19 16 42 29.9980000  0  5 14 15 22 25 29
  19951211.295   -14256878.217 7 -10906887.53749  19951209.3144
  22461911.053     2017408.198 5   1622226.00649  22461911.8264
  20737937.654   -14753400.458 7 -11204122.00249  20737936.4364
  21976539.857     1568657.923 7   1273926.24449  21976537.9124
  21760553.779   -13436689.299 6 -10290095.76049  21760551.3424
 95  2 19 16 42 59.9980000  0  5 14 15 22 25 29
  19936643.396   -14333433.841 7 -10966541.27549  19936641.5684
  22472014.600     2070502.971 5   1663598.48549  22472015.7014
  20722529.084   -14834372.891 7 -11267217.38949  20722527.9474
  21985075.936     1613515.636 7   1308880.24849  21985073.4864
  21743525.764   -13526171.610 6 -10359822.22449  21743523.4204
 95  2 19 16 43 29.9980000  0  5 14 15 22 25 29
  19922194.326   -14409364.562 7 -11025708.07749  19922192.4864
  22482173.568     2123887.638 5   1705196.86249  22482173.1354
  20707246.271   -14914683.729 7 -11329797.25249  20707245.1934
  21993659.607     1658624.204 6   1344029.72049  21993657.2294
  21726531.022   -13615478.842 6 -10429412.27549  21726528.2564
 95  2 19 16 43 59.9980000  0  6 18 14 15 22 25 29
  24053723.568      -64211.61213
  19907858.045   -14484701.385 7 -11084412.10249  19907856.2524
  22492384.404     2177546.884 5   1747009.19149  22492384.9084
  20692085.631   -14994352.750 7 -11391877.00149  20692084.5764
  22002290.006     1703975.444 6   1379368.29349  22002287.4044
  21709568.264   -13704617.843 6 -10498871.23249  21709566.0964
 95  2 19 16 44 29.9980000  0  6 18 14 15 22 25 29
  24032176.396     -177444.118 3     -2936.91956  24032172.2714
  19893633.193   -14559454.167 7 -11142661.01949  19893631.2484
  22502647.521     2231481.067 5   1789035.73849  22502648.5414
  20677046.186   -15073385.369 7 -11453460.84049  20677045.4364
  22010968.201     1749580.985 6   1414905.03549  22010966.0574
  21692639.951   -13793576.377 6 -10568189.56449  21692637.9364
 95  2 19 16 44 59.9980000  0  6 18 14 15 22 25 29
  24010649.678     -290564.995 3    -91083.02247  24010650.0644
  19879515.553   -14633642.928 7 -11200470.46249  19879513.5144
  22512962.436     2285685.026 5   1831272.53649  22512963.1744
  20662132.607   -15151757.512 7 -11514530.04449  20662131.6354
  22019699.506     1795463.414 6   1450657.51849  22019697.2684
  21675746.818   -13882351.632 6 -10637365.09049  21675744.4754
 95  2 19 16 45 29.9980000  0  6 18 14 15 22 25 29
  23989143.217     -403580.370 3   -179146.94745  23989143.7794
  19865502.740   -14707281.697 7 -11257851.33249  19865500.5844
  22523326.482     2340148.322 5   1873711.37249  22523328.1354
  20647344.795   -15229467.107 7 -11575082.96449  20647344.1044
  22028482.217     1841617.444 6   1486621.64549  22028480.0024
  21658886.342   -13970953.385 6 -10706405.40949  21658883.9984
 95  2 19 16 45 59.9980000  0  6 18 14 15 22 25 29
  23967658.287     -516488.569 3   -267127.35847  23967659.7294
  19851597.537   -14780353.480 7 -11314790.39149  19851595.6044
  22533740.029     2394870.250 5   1916351.78949  22533740.8614
  20632682.561   -15306518.252 7 -11635122.81149  20632681.4474
  22037315.014     1888033.064 6   1522789.60549  22037312.6824
  21642058.436   -14059385.866 6 -10775313.82349  21642055.9164
 95  2 19 16 46 29.9980000  0  6 18 14 15 22 25 29
  23946186.709     -629320.276 3   -355048.10247  23946190.6824
  19837801.225   -14852853.070 7 -11371283.58549  19837799.3964
  22544199.318     2449833.898 5   1959180.53749  22544200.1274
  20618143.373   -15382922.635 7 -11694658.68449  20618142.1074
  22046191.928     1934680.554 6   1559138.25049  22046189.2324
  21625258.279   -14147671.261 6 -10844107.63349  21625255.6074
 95  2 19 16 46 59.9970000  0  6 18 14 15 22 25 29
  23924729.587     -742075.104 3   -442909.00647  23924731.5444
  19824119.493   -14924751.174 7 -11427308.09449  19824117.4784
  22554705.259     2505042.562 5   2002200.20149  22554706.2204
  20603727.595   -15458678.499 7 -11753689.21649  20603726.5874
  22055111.978     1981554.477 6   1595663.33849  22055110.0444
  21608487.618   -14235801.091 6 -10912780.22349  21608485.3214
 95  2 19 16 47 29.9970000  0  6 18 14 15 22 25 29
  23903286.235     -854763.614 3   -530718.19746  23903288.8494
  19810556.774   -14996025.052 7 -11482846.19049  19810554.8994
  22565259.056     2560505.362 5   2045417.90749  22565259.8174
  20589431.954   -15533802.985 7 -11812227.76749  20589430.8414
  22064071.517     2028636.943 6   1632350.92549  22064069.5014
  21591748.306   -14323766.204 6 -10981324.46449  21591745.9274
 95  2 19 16 47 59.9970000  0  6 18 14 15 22 25 29
  23881856.931     -967375.394 3   -618467.59746  23881858.2904
  19797113.970   -15066665.437 7 -11537890.66049  19797112.0134
  22575858.681     2616207.212 5   2088821.86349  22575859.7124
  20575255.579   -15608299.378 7 -11870276.89749  20575254.5014
  22073067.134     2075911.618 6   1669188.29049  22073064.5214
  21575042.064   -14411558.046 6 -11049733.68049  21575039.6854
 95  2 19 16 48 29.9970000  0  6 18 14 15 22 25 29
  23860443.462    -1079904.934 3   -706152.95747  23860442.2434
  19783789.103   -15136689.323 7 -11592454.73449  19783787.2284
  22586502.626     2672139.046 5   2132405.02649  22586503.5994
  20561198.563   -15682169.375 7 -11927837.92849  20561197.3454
  22082101.899     2123388.372 6   1706183.11349  22082099.8724
  21558370.048   -14499170.879 6 -11118003.41549  21558367.7514
 95  2 19 16 48 59.9970000  0  6 18 14 15 22 25 29
  23839049.189    -1192334.071 3   -793760.06745  23839049.7744
  19770578.368   -15206112.534 7 -11646550.75149  19770576.7744
  22597188.556     2728294.915 5   2176162.80949  22597188.4744
  20547262.954   -15755401.717 7 -11984902.08249  20547261.9464
  22091178.087     2171084.848 6   1743349.14049  22091176.0134
  21541732.134   -14586603.558 6 -11186132.76949  21541729.6854
 95  2 19 16 49 29.9970000  0  6 18 14 15 22 25 29
  23817678.024    -1304639.051 4   -881270.43747  23817677.6734
  19757481.095   -15274938.717 7 -11700181.55649  19757478.9744
  22607919.696     2784685.580 5   2220103.47949  22607919.5214
  20533455.259   -15827962.331 7 -12041442.81649  20533454.1694
  22100299.517     2219017.806 6   1780699.44049  22100297.3134
  21525130.501   -14673844.954 6 -11254113.07549  21525128.0874
 95  2 19 16 49 59.9970000  0  6 18 14 15 22 25 29
  23796330.157    -1416818.943 3   -968683.35445  23796330.4624
  19744494.142   -15343186.250 7 -11753361.46249  19744492.3134
  22618693.743     2841303.344 5   2264221.16449  22618694.2124
  20519774.688   -15899853.804 7 -12097462.13749  20519773.5524
  22109466.376     2267189.139 6   1818235.49649  22109464.3024
  21508560.743   -14760919.728 6 -11321963.54749  21508558.2474
 95  2 19 16 50 29.9970000  0  6 18 14 15 22 25 29
  23775002.813    -1528896.724 3  -1056016.65348  23775006.7164
  19731613.110   -15410876.230 7 -11806106.91449  19731611.2474
  22629508.595     2898138.403 5   2308508.14749  22629509.5324
  20506219.774   -15971085.518 7 -12152967.36249  20506218.4854
  22118677.462     2315592.829 6   1855952.60649  22118674.8374
  21492017.524   -14847854.911 6 -11389705.24749  21492015.0284
 95  2 19 16 50 59.9970000  0  6 18 14 15 22 25 29
  23753691.454    -1640887.366 3  -1143282.08542  23753691.5714
  19718840.524   -15477994.647 7 -11858406.98849  19718838.6034
  22640365.689     2955190.077 5   2352963.91849  22640366.2284
  20492789.704   -16041661.007 7 -12207961.24349  20492788.5674
  22127928.243     2364207.887 6   1893834.41749  22127925.9464
  21475499.407   -14934657.571 6 -11457343.68549  21475496.9354
 95  2 19 16 51 29.9970000  0  6 18 14 15 22 25 29
  23732391.962    -1752814.790 3  -1230498.20147  23732395.3964
  19706178.665   -15544535.768 7 -11910257.22149  19706176.5794
  22651261.548     3012447.155 5   2397579.74649  22651262.9424
  20479481.360   -16111596.189 7 -12262456.18249  20479480.1534
  22137215.860     2413013.156 6   1931864.43849  22137213.4234
  21459006.087   -15021331.680 6 -11524881.96349  21459003.5674
 95  2 19 16 51 59.9970000  0  6 18 14 15 22 25 29
  23711105.821    -1864676.649 3  -1317663.27847  23711108.0014
  19693630.564   -15610476.183 7 -11961639.37849  19693628.6654
  22662197.306     3069914.670 5   2442359.54449  22662198.6654
  20466296.462   -16180884.162 7 -12316446.79949  20466295.5134
  22146541.220     2462018.138 6   1970050.07649  22146539.8254
  21442539.321   -15107865.054 6 -11592310.56649  21442536.5324
 95  2 19 16 52 29.9970000  0  6 18 14 15 22 25 29
  23689830.610    -1976482.829 3  -1404784.94746  23689834.6654
  19681198.868   -15675804.827 7 -12012544.83049  19681196.9584
  22673171.782     3127587.029 5   2487298.95349  22673172.3804
  20453236.673   -16249513.058 7 -12369923.85449  20453235.5834
  22155903.665     2511216.907 6   2008386.71049  22155901.4154
  21426101.431   -15194246.806 6 -11659621.03049  21426098.7474
 95  2 19 16 52 59.9970000  0  6 18 14 15 22 25 29
  23668564.001    -2088233.222 3  -1491863.19047  23668564.0484
  19668882.931   -15740524.975 7 -12062976.12949  19668881.1734
  22684183.532     3185452.135 5   2532388.55549  22684184.5634
  20440301.884   -16317486.397 7 -12422890.08549  20440300.8534
  22165299.470     2560593.313 6   2046861.76449  22165297.4544
  21409693.095   -15280473.504 6 -11726810.67149  21409690.1654
 95  2 19 16 53 29.9970000  0  6 18 14 15 22 25 29
  23647314.313    -2199901.749 3  -1578877.58947  23647314.0094
  19656683.485   -15804634.634 7 -12112931.72149  19656681.5994
  22695232.485     3243517.061 5   2577633.87449  22695234.5954
  20427496.134   -16384780.265 7 -12475326.85649  20427495.1614
  22174734.095     2610172.117 6   2085494.52549  22174731.9504
  21393316.587   -15366532.545 6 -11793869.66649  21393313.8804
 95  2 19 16 53 59.9970000  0  6 18 14 15 22 25 29
  23626083.251    -2311475.412 3  -1665818.09047  23626083.4624
  19644600.509   -15868131.652 7 -12162409.93149  19644598.7394
  22706319.384     3301775.492 5   2623029.96849  22706319.8064
  20414818.790   -16451399.984 7 -12527238.31849  20414817.4664
  22184206.470     2659947.848 6   2124280.74349  22184204.2784
  21376970.899   -15452430.478 6 -11860803.12749  21376968.3214
 95  2 19 16 54 29.9970000  0  6 18 14 15 22 25 29
  23604872.423    -2422937.365 3  -1752671.50747  23604872.1654
  19632634.774   -15931011.006 7 -12211406.84049  19632632.8764
  22717443.259     3360231.825 5   2668580.28749  22717444.2084
  20402270.743   -16517341.388 7 -12578621.21949  20402269.5244
  22193717.376     2709927.598 6   2163225.94049  22193715.4894
  21360657.571   -15538156.475 6 -11927602.60649  21360654.9934
 95  2 19 16 54 59.9970000  0  6 18 14 15 22 25 29
  23583680.626    -2534300.514 3  -1839447.95645  23583681.7744
  19620784.415   -15993285.019 7 -12259932.05549  19620782.6344
  22728600.267     3418864.409 5   2714267.91649  22728602.2824
  20389847.149   -16582627.403 7 -12629493.42949  20389846.0484
  22203262.978     2760092.064 6   2202315.06649  22203261.4194
  21344373.407   -15623731.196 6 -11994284.20849  21344370.7944
 95  2 19 16 55 29.9970000  0  6 18 14 15 22 25 29
  23562508.782    -2645560.839 3  -1926144.27747  23562509.3564
  19609053.868   -16054929.747 7 -12307966.91949  19609051.8414
  22739793.603     3477685.437 5   2760102.41849  22739795.1384
  20377550.032   -16647248.750 7 -12679847.71349  20377548.7904
  22212848.017     2810460.634 6   2241563.24149  22212846.2124
  21328121.196   -15709138.351 6 -12060835.23449  21328118.5954
 95  2 19 16 55 59.9970000  0  6 18 14 15 22 25 29
  23541354.532    -2756725.413 3  -2012766.00046  23541358.2944
  19597445.345   -16115934.427 7 -12355503.04349  19597443.1534
  22751024.071     3536699.886 5   2806087.63949  22751025.8174
  20365379.759   -16711202.999 7 -12729682.18449  20365378.5754
  22222470.384     2861026.297 6   2280964.99149  22222468.8134
  21311903.110   -15794363.427 7 -12127244.38149  21311900.5444
 95  2 19 16 56 29.9970000  0  6 18 14 15 22 25 29
  23520215.610    -2867813.993 3  -2099328.51245  23520216.3144
  19585956.735   -16176306.542 7 -12402546.26349  19585954.8724
  22762290.478     3595906.366 5   2852222.48449  22762291.2044
  20353337.860   -16774484.477 7 -12778992.42349  20353336.8644
  22232129.360     2911783.807 6   2320516.22949  22232126.8644
  21295721.384   -15879399.675 7 -12193506.39149  21295718.8294
 95  2 19 16 56 59.9970000  0  6 18 14 15 22 25 29
  23499089.282    -2978829.227 3  -2185833.81546  23499089.0134
  19574586.845   -16236054.412 7 -12449103.06049  19574585.0754
  22773592.556     3655297.222 5   2898500.99849  22773593.4934
  20341423.501   -16837093.932 7 -12827779.00449  20341422.4464
  22241821.704     2962716.921 6   2360204.30449  22241819.9704
  21279574.431   -15964252.609 7 -12259625.55649  21279571.4314
 95  2 19 16 57 29.9970000  0  6 18 14 15 22 25 29
  23477979.212    -3089763.365 3  -2272275.94746  23477980.9934
  19563333.509   -16295192.400 7 -12495184.61749  19563331.5994
  22784929.337     3714870.792 5   2944921.88748  22784930.8494
  20329637.774   -16899029.225 7 -12876040.26649  20329636.5674
  22251548.923     3013833.690 6   2400035.49849  22251547.4464
  21263462.704   -16048919.538 6 -12325599.78349  21263460.2554
 95  2 19 16 57 59.9970000  0  6 18 14 15 22 25 29
  23456888.634    -3200595.271 3  -2358638.53146  23456889.5014
  19552196.806   -16353717.242 7 -12540788.40349  19552194.9074
  22796299.618     3774625.447 5   2991483.88549  22796301.2004
  20317981.704   -16960281.491 7 -12923769.30649  20317980.6734
  22261310.064     3065130.606 6   2440007.05949  22261308.5874
  21247383.751   -16133415.171 6 -12391440.53549  21247381.2434
 95  2 19 16 58 29.9970000  0  6 18 14 15 22 25 29
  23435823.103    -3311292.337 3  -2444895.91145  23435825.6224
  19541179.970   -16411610.125 7 -12585899.75549  19541177.8254
  22807706.556     3834565.056 5   3038190.00649  22807707.7984
  20306459.884   -17020829.232 7 -12970949.35849  20306458.9114
  22271108.071     3116617.041 6   2480126.30249  22271106.6424
  21231337.173   -16217739.917 6 -12457148.12849  21231335.1694
 95  2 19 16 58 59.9970000  0  6 18 14 15 22 25 29
  23414788.048    -3421835.585 3  -2531033.47547  23414788.7044
  19530284.907   -16468863.784 7 -12630513.01249  19530282.9744
  22819146.360     3894684.427 5   3085036.18849  22819145.8804
  20295072.696   -17080669.393 7 -13017578.04749  20295071.6304
  22280943.767     3168304.394 6   2520402.10049  22280941.8454
  21215321.056   -16301905.052 7 -12522731.34949  21215318.3964
 95  2 19 16 59 29.9970000  0  6 18 14 15 22 25 29
  23393782.298    -3532221.172 3  -2617048.18247  23393783.8214
  19519516.579   -16525452.875 7 -12674608.41749  19519514.7514
  22830622.470     3954989.654 5   3132027.20349  22830623.9704
  20283820.954   -17139797.479 7 -13063651.88249  20283819.7244
  22290820.540     3220205.711 6   2560844.61749  22290818.6774
  21199336.392   -16385905.427 7 -12588186.17749  21199333.8254
 95  2 19 16 59 59.9970000  0  6 18 14 15 22 25 29
  23372806.978    -3642448.805 4  -2702939.84647  23372810.9744
  19508878.626   -16581356.106 7 -12718169.38549  19508876.7044
  22842134.938     4015487.339 5   3179168.19049  22842136.8964
  20272707.142   -17198201.808 7 -13109161.74349  20272706.0054
  22300737.017     3272317.179 6   2601450.88949  22300735.2824
  21183386.907   -16469721.299 7 -12653497.24649  21183384.0834
 95  2 19 17  0 29.9970000  0  6 18 14 15 22 25 29
  23351854.735    -3752552.912 4  -2788735.23348  23351856.2474
  19498368.853   -16636585.650 7 -12761205.40349  19498366.7084
  22853681.790     4076167.133 5   3226451.04249  22853683.5484
  20261729.063   -17255891.464 7 -13154114.72149  20261727.9854
  22310693.048     3324636.502 6   2642219.12549  22310691.4314
  21167475.423   -16553335.318 7 -12718651.02549  21167472.9854
 95  2 19 17  0 59.9970000  0  6 18 14 15 22 25 29
  23330922.032    -3862554.093 4  -2874450.40549  23330920.7904
  19487987.032   -16691142.344 7 -12803717.12849  19487984.8294
  22865264.782     4137033.804 5   3273879.55449  22865266.3174
  20250884.306   -17312881.400 7 -13198522.45349  20250883.2634
  22320691.938     3377181.970 6   2683163.57849  22320690.0404
  21151604.735   -16636736.596 7 -12783639.03349  21151602.0644
 95  2 19 17  1 29.9970000  0  6 18 14 15 22 25 29
  23310003.149    -3972484.077 4  -2960110.13148  23310005.9034
  19477729.884   -16745042.022 7 -12845716.88949  19477727.7514
  22876879.649     4198072.313 5   3321441.91748  22876879.9314
  20240171.524   -17369178.108 7 -13242390.00949  20240170.4464
  22330727.962     3429920.995 6   2724258.85549  22330726.1104
  21135774.735   -16719925.554 7 -12848461.59449  21135771.9704
 95  2 19 17  1 59.9970000  0  6 18 14 15 22 25 29
  23289099.017    -4082337.894 4  -3045710.47748  23289099.0754
  19467599.337   -16798280.254 7 -12887201.23949  19467597.4504
  22888528.634     4259285.961 5   3369140.78549  22888529.8884
  20229596.040   -17424754.206 7 -13285696.05349  20229594.6924
  22340802.103     3482860.313 6   2765510.19749  22340800.6264
  21119987.915   -16802884.449 7 -12913104.88949  21119985.3964
 95  2 19 17  2 29.9970000  0  6 18 14 15 22 25 29
  23268210.392    -4192107.969 5  -3131245.60249  23268212.0094
  19457595.017   -16850852.992 7 -12928167.02149  19457592.9314
  22900209.798     4320671.022 5   3416973.21849  22900211.6144
  20219156.829   -17479610.760 7 -13328441.40749  20219155.7044
  22350915.712     3536007.352 6   2806923.40349  22350914.3294
  21104242.954   -16885625.109 7 -12977578.12549  21104240.4584
 95  2 19 17  2 59.9970000  0  6 18 14 15 22 25 29
  23247340.868    -4301778.279 5  -3216702.94849  23247340.4704
  19447717.064   -16902761.843 7 -12968615.48649  19447715.0484
  22911922.165     4382218.874 5   3464932.49048  22911923.5364
  20208855.860   -17533742.089 7 -13370621.65849  20208854.8414
  22361066.142     3589347.312 6   2848486.93549  22361064.6654
  21088535.774   -16968166.386 7 -13041896.00549  21088533.1614
 95  2 19 17  3 29.9970000  0  6 18 14 15 22 25 29
  23226494.267    -4411325.895 5  -3302064.69249  23226494.2904
  19437967.985   -16953994.195 7 -13008536.81349  19437965.9934
  22923665.415     4443930.687 5   3513019.50249  22923667.3724
  20198698.103   -17587121.620 7 -13412216.08849  20198697.1184
  22371252.399     3642876.364 6   2890197.80549  22371250.5834
  21072869.798   -17050492.211 7 -13106045.99849  21072867.1734
 95  2 19 17  3 59.9970000  0  6 18 14 15 22 25 29
  23205674.063    -4520735.047 4  -3387318.56648  23205675.2474
  19428346.079   -17004556.222 7 -13047935.80649  19428344.2984
  22935439.439     4505802.455 5   3561231.18849  22935441.9234
  20188681.673   -17639757.637 7 -13453231.16149  20188680.7824
  22381477.946     3696610.650 6   2932068.60449  22381476.4234
  21057243.806   -17132607.332 7 -13170031.80049  21057241.5214
 95  2 19 17  4 29.9970000  0  6 18 14 15 22 25 29
  23184880.188      -47330.66414  -3472466.81546  23184881.7594
  19418849.298   -17054462.820 7 -13086824.07949  19418847.3994
  22947242.571     4567828.434 5   3609563.03349  22947243.1924
  20178803.071   -17691669.708 7 -13493682.12149  20178802.0644
  22391740.313     3750541.145 6   2974092.29049  22391739.1424
  21041654.837   -17214525.984 7 -13233864.51049  21041652.7284
 95  2 19 17  4 59.9970000  0  6 18 14 15 22 25 29
  23164109.798     -156477.691 3  -3557516.41547  23164111.4744
  19409476.228   -17103718.790 7 -13125205.34449  19409474.4234
  22959073.360     4630000.672 5   3658008.89746  22959074.5324
  20169061.688   -17742861.870 6 -13533572.08249  20169060.4814
  22402036.657     3804648.178 5   3016253.55649  22402034.9584
  21026105.407   -17296240.124 6 -13297537.83749  21026103.0174
 95  2 19 17  5 29.9970000  0  6 18 14 15 22 25 29
  23143363.485     -265502.632 3  -3642470.85247  23143365.6424
  19400227.431   -17152321.536 7 -13163077.63649  19400225.6494
  22970932.017     4692318.741 5   3706568.35548  22970932.8144
  20159454.063   -17793349.784 7 -13572913.32149  20159453.3964
  22412367.360     3858936.718 5   3058556.23349  22412365.2984
  21010596.087   -17377742.518 6 -13361046.19749  21010593.1224
 95  2 19 17  5 59.9970000  0  6 18 14 15 22 25 29
  23122638.095     -374417.130 3  -3727339.25946  23122636.7124
  19391101.915   -17200275.935 7 -13200444.72749  19391100.3924
  22982817.517     4754773.057 5   3755233.91248  22982816.3454
  20149977.798   -17843149.216 7 -13611718.08149  20149976.5324
  22422730.587     3913395.480 5   3100991.56049  22422729.2634
  20995123.001   -17459054.521 6 -13424406.21049  20995120.2714
 95  2 19 17  6 29.9970000  0  6 18 14 15 22 25 29
  23101931.368     -483228.076 3  -3812127.01147  23101931.9424
  19382103.243   -17247565.763 7 -13237293.95649  19382101.5324
  22994727.142     4817360.947 5   3804003.61647  22994730.3994
  20140632.759   -17892256.960 7 -13649983.85749  20140631.5054
  22433124.204     3968013.777 6   3143551.19549  22433122.3644
  20979686.837   -17540172.502 6 -13487615.02249  20979684.2594
 95  2 19 17  6 59.9970000  0  6 18 14 15 22 25 29
  23081244.978     -591933.036 3  -3896832.19446  23081244.6614
  19373231.759   -17294185.955 7 -13273621.40249  19373229.6144
  23006661.009     4880073.095 5   3852870.10646  23006664.0094
  20131420.165   -17940669.056 7 -13687707.58149  20131418.8294
  22443548.985     4022796.233 6   3186238.74049  22443548.0604
  20964286.345   -17621102.113 7 -13550677.05149  20964283.8374
 95  2 19 17  7 29.9970000  0  6 18 14 15 22 25 29
  23060581.462     -700523.050 3  -3981447.73045  23060583.6884
  19364488.173   -17340134.756 7 -13309425.68249  19364486.0874
  23018618.001     4942909.057 4   3901833.07948  23018620.3684
  20122343.681   -17988366.822 7 -13724874.67549  20122342.5444
  22454007.704     4077755.790 6   3229064.32649  22454006.4034
  20948918.063   -17701862.686 7 -13613607.36249  20948915.4154
 95  2 19 17  7 59.9970000  0  6 18 14 15 22 25 29
  23039940.079     -808995.099 3  -4065971.39047  23039941.2394
  19355873.454   -17385403.205 7 -13344699.81549  19355871.4974
  23030598.915     5005871.605 4   3950894.69648  23030600.5324
  20113408.649   -18035321.053 7 -13761462.39649  20113407.5954
  22464499.524     4132891.799 6   3272027.36949  22464498.1654
  20933582.110   -17782454.349 7 -13676406.05249  20933579.4854
 95  2 19 17  8 29.9970000  0  6 18 14 15 22 25 29
  23019318.892     -917360.552 4  -4150411.97447  23019319.6304
  19347386.493   -17430003.064 7 -13379452.96649  19347384.8764
  23042602.446     5068947.827 4   4000044.88347  23042602.9274
  20104613.532   -18081539.788 7 -13797477.00249  20104612.5134
  22475022.954     4188191.968 6   3315118.36849  22475021.5714
  20918276.790   -17862883.754 7 -13739078.30849  20918274.1064
 95  2 19 17  8 59.9970000  0  6 18 14 15 22 25 29
  22998720.196    -1025609.583 5  -4234761.83448  22998718.5794
  19339027.884   -17473928.831 7 -13413680.85349  19339026.2084
  23054628.321     5132142.507 4   4049287.38446  23054630.6884
  20095958.040   -18127024.497 7 -13832919.63849  20095956.8684
  22485577.212     4243654.478 6   3358335.83049  22485575.9584
  20903002.587   -17943149.916 7 -13801623.36949  20903000.0564
 95  2 19 17  9 29.9970000  0  6 18 14 15 22 25 29
  22978137.337    -1133771.751 5  -4319044.00547  22978137.0324
  19330795.478   -17517190.528 7 -13447391.28249  19330793.4504
  23066672.876     5195439.646 4   4098609.70548  23066673.9074
  20087438.642   -18171795.232 7 -13867805.93049  20087437.2124
  22496157.579     4299253.970 6   3401660.04949  22496155.6814
  20887759.399   -18023253.690 7 -13864041.88549  20887756.6224
 95  2 19 17  9 59.9970000  0  6 18 14 15 22 25 29
  22957569.399    -1241856.109 5  -4403265.57849  22957568.4384
  19322688.657   -17559792.656 7 -13480587.76349  19322686.6774
  23078736.884     5258833.434 4   4148007.37247  23078739.4974
  20079050.337   -18215874.893 7 -13902153.72549  20079049.0714
  22506763.415     4354988.899 6   3445089.80649  22506762.1384
  20872550.462   -18103176.648 7 -13926319.51249  20872547.9894
 95  2 19 17 10 29.9960000  0  7 18 14 15 19 22 25 29
  22937020.090    -1349841.795 5  -4487410.25648  22937021.2854
  19314707.551   -17601731.800 7 -13513267.63149  19314705.6294
  23090818.762     5322323.048 5   4197479.62948  23090822.8874
  23718890.473      -90051.53713
  20070791.731   -18259274.349 7 -13935971.49549  20070790.6644
  22517396.215     4410863.043 6   3488628.02749  22517394.6684
  20857379.355   -18182901.293 7 -13988442.60949  20857376.6024
 95  2 19 17 10 59.9960000  0  7 18 14 15 19 22 25 29
  22916489.668    -1457731.489 5  -4571480.11549  22916491.6024
  19306852.543   -17643011.691 7 -13545433.79349  19306850.7154
  23102918.543     5385908.740 5   4247026.83048  23102922.0594
  23696580.191     -207293.593 3    -24340.78757  23696582.9924
  20062662.152   -18301995.152 7 -13969260.43849  20062660.9924
  22528055.496     4466879.353 6   3532277.02049  22528054.6294
  20842246.824   -18262423.913 7 -14050408.28249  20842244.0234
 95  2 19 17 11 29.9960000  0  7 18 14 15 19 22 25 29
  22895975.934    -1565530.655 5  -4655479.44149  22895975.3014
  19299120.598   -17683642.930 7 -13577094.51349  19299118.6524
  23115034.121     5449573.450 5   4296635.58348  23115037.2854
  23674317.965     -324282.623 3   -115500.96647  23674320.3094
  20054662.707   -18344032.892 7 -14002017.12049  20054661.6644
  22538742.496     4523039.608 6   3576038.18649  22538742.1684
  20827151.285   -18341750.560 7 -14112221.25449  20827148.6024
 95  2 19 17 11 59.9960000  0  7 18 14 15 19 22 25 29
  22875482.301    -1673225.974 5  -4739397.84749  22875480.8014
  19291509.902   -17723637.014 7 -13608258.75049  19291508.1334
  23127162.926     5513308.369 5   4346299.03849  23127165.4344
  23652106.051     -441004.412 3   -206452.88746  23652110.1884
  20046792.496   -18385392.348 7 -14034245.26749  20046791.2544
  22549456.215     4579338.938 6   3619907.72649  22549455.7584
  20812089.980   -18420898.874 7 -14173895.26149  20812087.6604
 95  2 19 17 12 29.9960000  0  7 18 14 15 19 22 25 29
  22855005.645    -1780832.958 5  -4823247.43149  22855005.9494
  19284019.824   -17762997.640 7 -13638929.38349  19284018.0434
  23139301.113     5577098.181 5   4396005.25048  23139303.4924
  23629946.121     -557457.498 3   -297195.48447  23629945.5004
  20039050.980   -18426073.320 7 -14065944.72849  20039049.7974
  22560191.113     4635751.302 6   3663865.35049  22560190.6914
  20797058.145   -18499891.491 7 -14235447.94149  20797055.3444
 95  2 19 17 12 59.9960000  0  7 18 14 15 19 22 25 29
  22834543.332    -1888362.471 5  -4907036.58548  22834544.4574
  19276651.059   -17801720.676 7 -13669103.19649  19276649.3954
  23151450.707     5640941.841 4   4445753.42349  23151453.6024
  23607834.996     -673649.972 3   -387734.99647  23607835.5474
  20031441.605   -18466060.993 7 -14097103.95649  20031440.6214
  22570947.988     4692277.812 6   3707911.90549  22570947.2154
  20782053.918   -18578740.051 7 -14296888.37649  20782051.3404
 95  2 19 17 13 29.9960000  0  7 18 14 15 19 22 25 29
  22814097.051    -1995808.771 5  -4990760.95749  22814099.4534
  19269405.668   -17839796.402 7 -13698772.60449  19269404.1214
  23163609.652     5704841.641 4   4495545.34347  23163611.9964
  23585773.707     -789579.634 3   -478069.69248  23585777.3754
  20023966.715   -18505342.103 7 -14127712.61349  20023965.4614
  22581727.606     4748923.793 6   3752051.56549  22581726.5744
  20767076.051   -18657448.984 7 -14358220.01049  20767073.2734
 95  2 19 17 13 59.9960000  0  7 18 14 15 19 22 25 29
  22793663.379    -2103189.407 5  -5074434.14748  22793664.7034
  19262280.223   -17877240.435 7 -13727949.78949  19262278.2894
  23175777.160     5768780.591 4   4545367.80848  23175779.3404
  23563759.816     -905269.231 3   -568217.34147  23563760.4024
  20016623.168   -18543931.849 7 -14157782.54249  20016621.9844
  22592523.027     4805656.192 6   3796258.56749  22592521.6914
  20752123.082   -18736027.245 7 -14419449.81949  20752120.2934
 95  2 19 17 14 29.9960000  0  7 18 14 15 19 22 25 29
  22773239.512    -2210515.479 5  -5158064.80749  22773240.4964
  19255277.621   -17914039.882 7 -13756624.70149  19255276.0634
  23187951.488     5832754.305 4   4595217.29248  23187954.5004
  23541787.184    -1020736.579 3   -658191.87546  23541791.3914
  20009411.059   -18581832.623 7 -14187315.61049  20009410.0634
  22603334.980     4862472.377 6   3840530.85949  22603333.6684
  20737197.043   -18814463.511 7 -14480568.97849  20737194.0314
 95  2 19 17 14 59.9960000  0  7 18 14 15 19 22 25 29
  22752830.723    -2317764.189 5  -5241635.20649  22752830.1254
  19248399.371   -17950185.496 7 -13784790.12449  19248397.8244
  23200132.793     5896767.160 4   4645097.31447  23200134.9144
  23519858.348    -1135968.939 3   -747983.25746  23519861.5704
  20002328.309   -18619051.361 7 -14216317.21949  20002327.2544
  22614166.824     4919394.238 6   3884885.48149  22614165.5704
  20722301.801   -18892737.851 7 -14541561.96649  20722299.3164
 95  2 19 17 15 29.9960000  0  7 18 14 15 19 22 25 29
  22732436.832    -2424932.694 5  -5325143.07949  22732437.6884
  19241645.106   -17985679.095 7 -13812447.49049  19241643.4654
  23212321.152     5960816.724 4   4695005.94946  23212324.9264
  23497975.590    -1250961.508 3   -837587.82845  23497979.4344
  19995374.574   -18655593.513 7 -14244791.62249  19995373.5314
  22625019.105     4976422.268 6   3929322.83449  22625018.1564
  20707441.176   -18970831.827 7 -14602414.41449  20707438.5274
 95  2 19 17 15 59.9960000  0  7 18 14 15 19 22 25 29
  22712056.465    -2532033.967 5  -5408598.61449  22712056.8634
  19235012.840   -18020532.118 7 -13839605.70349  19235011.1174
  23224515.332     6024897.032 4   4744938.53248  23224519.0824
  23476140.168    -1365712.817 3   -927004.37247  23476141.7734
  19988547.691   -18691470.296 7 -14272747.55249  19988546.5664
  22635889.605     5033547.419 5   3973835.86649  22635889.1024
  20692615.543   -19048740.160 7 -14663122.20349  20692612.6134
 95  2 19 17 16 29.9960000  0  7 18 14 15 19 22 25 29
  22691688.176    -2639066.812 5  -5492000.79349  22691690.0394
  19228502.223   -18054745.785 7 -13866265.71849  19228500.4534
  23236714.676     6089004.452 4   4794892.24146  23236716.3874
  23454349.012    -1480220.466 3  -1016231.07047  23454349.8794
  19981846.238   -18726686.848 7 -14300189.02249  19981845.1604
  22646780.465     5090778.210 5   4018431.20749  22646779.1294
  20677826.348   -19126458.623 7 -14723682.03849  20677823.7464
 95  2 19 17 16 59.9960000  0  7 18 14 15 19 22 25 29
  22671334.559    -2746028.903 5  -5575347.82849  22671335.7664
  19222109.270   -18088339.687 7 -13892442.80249  19222107.5354
  23248918.660     6153137.825 3   4844866.15345  23248919.5984
  23432606.106    -1594482.631 3  -1105266.45746  23432608.7894
  19975274.012   -18761224.661 7 -14327101.59849  19975272.5824
  22657690.785     5148111.732 5   4063106.61349  22657689.8594
  20663072.270   -19203991.550 7 -14784097.30749  20663069.8794
 95  2 19 17 17 29.9960000  0  7 18 14 15 19 22 25 29
  22650992.520    -2852923.884 5  -5658642.60748  22650993.9384
  19215835.371   -18121309.155 7 -13918133.31049  19215833.8364
  23261128.020     6217301.974 3   4894864.11847  23261132.8244
  23410906.176    -1708511.285 3  -1194119.99646  23410911.6024
  19968836.348   -18795055.052 7 -14353462.94149  19968835.1524
  22668619.988     5205545.318 5   4107859.97849  22668619.0744
  20648353.168   -19281340.652 7 -14844369.33049  20648350.4494
 95  2 19 17 17 59.9960000  0  7 18 14 15 19 22 25 29
  22630668.699    -2959728.304 4  -5741866.78149  22630670.0124
  19209685.832   -18153625.762 7 -13943315.09449  19209684.4494
  23273346.934     6281508.981 3   4944895.36745  23273350.7424
  23389255.441    -1822288.862 3  -1282777.77748  23389259.3674
  19962534.496   -18828171.182 7 -14379267.71749  19962533.3244
  22679573.410     5263104.578 5   4152711.27749  22679572.8714
  20633669.332   -19358504.523 7 -14904497.01749  20633666.7894
 95  2 19 17 18 29.9960000  0  7 18 14 15 19 22 25 29
  22610358.254    -3066460.243 4  -5825034.49648  22610359.3794
  19203656.035   -18185313.479 7 -13968006.83549  19203654.5824
  23285567.551     6345725.190 3   4994933.79845  23285572.3204
  23367646.160    -1935847.409 3  -1371264.91946  23367648.9144
  19956362.551   -18860604.529 7 -14404540.45749  19956361.4614
  22690545.129     5320763.283 5   4197640.05749  22690544.2154
  20619013.965   -19435520.131 7 -14964509.17649  20619011.1644
 95  2 19 17 18 59.9960000  0  7 18 14 15 19 22 25 29
  22590064.527    -3173105.677 5  -5908134.80149  22590065.0434
  19197749.520   -18216352.372 7 -13992193.00149  19197747.9734
  23297791.316     6409962.324 3   5044988.60642  23297793.1804
  23346081.738    -2049171.358 4  -1459569.22548  23346082.8984
  19950324.645   -18892333.757 7 -14429264.53149  19950323.6844
  22701539.379     5378536.802 5   4242658.31049  22701538.5474
  20604387.754   -19512380.692 7 -15024400.51349  20604385.1174
 95  2 19 17 19 29.9960000  0  7 18 14 15 19 22 25 29
  22569789.918    -3279650.745 5  -5991156.89849  22569789.8594
  19191971.645   -18246715.626 7 -14015852.69849  19191970.1684
  23310020.559     6474226.201 3   5095064.23245  23310021.6954
  23324563.590    -2162250.730 4  -1547683.03448  23324567.0474
  19944419.082   -18923367.807 7 -14453446.91249  19944418.0984
  22712557.027     5436436.277 5   4287774.70249  22712556.3954
  20589793.926   -19589072.512 7 -15084160.37049  20589791.2664
 95  2 19 17 19 59.9960000  0  7 18 14 15 19 22 25 29
  22549534.582    -3386090.795 5  -6074097.16949  22549535.9304
  19186322.043   -18276404.628 7 -14038987.00349  19186320.4024
  23322255.105     6538516.439 3   5145160.36546  23322258.1524
  23303096.496    -2275061.794 4  -1635587.71247  23303098.6524
  19938645.777   -18953706.469 7 -14477087.43249  19938644.7814
  22723596.926     5494449.877 6   4332980.03749  22723596.0474
  20575234.871   -19665578.951 7 -15143775.76849  20575232.3754
 95  2 19 17 20 29.9960000  0  7 18 14 15 19 22 25 29
  22529295.910      -46073.51815  -6156970.94949  22529296.8244
  19180796.770   -18305439.247 7 -14061611.40349  19180795.2704
  23334490.785     6602816.863 3   5195264.44346  23334493.0944
  23281677.137    -2387618.263 4  -1723294.02148  23281678.6604
  19933005.379   -18983347.665 7 -14500184.47249  19933004.3364
  22734652.012     5552542.299 6   4378246.78649  22734651.7544
  20560711.473   -19741901.702 7 -15203248.03449  20560708.6254
 95  2 19 17 20 59.9960000  0  7 18 14 15 19 22 25 29
  22509072.441     -152347.880 5  -6239782.12048  22509073.1334
  19175398.074   -18333809.910 7 -14083718.42849  19175396.5514
  23346728.996     6667129.031 3   5245377.70445  23346735.2894
  23260309.520    -2499907.501 4  -1810792.06147  23260311.1134
  19927497.840   -19012290.172 7 -14522737.08149  19927496.7734
  22745720.855     5610711.417 6   4423573.29149  22745720.1994
  20546223.402   -19818035.815 7 -15262573.31349  20546220.8134
 95  2 19 17 21 29.9960000  0  7 18 14 15 19 22 25 29
  22488863.113     -258550.761 5  -6322537.59349  22488863.6644
  19170126.316   -18361513.418 7 -14105305.59549  19170124.7704
  23358969.895     6731449.835 3   5295497.67046  23358972.3204
  23238994.356    -2611919.019 4  -1898073.75147  23238995.9614
  19922122.301   -19040539.589 7 -14544749.61449  19922121.1994
  22756802.887     5668946.977 6   4468951.58549  22756802.4414
  20531770.301   -19893988.648 7 -15321757.33349  20531767.6884
 95  2 19 17 21 59.9960000  0  7 18 14 15 19 22 25 29
  22468666.043     -364685.261 5  -6405239.79749  22468666.6764
  19164980.355   -18388555.505 7 -14126377.36349  19164978.9494
  23371209.137     6795774.627 3   5345620.74947  23371213.6844
  23217733.152    -2723647.644 4  -1985134.96447  23217737.4184
  19916879.887   -19068088.821 7 -14566216.55049  19916878.6684
  22767897.926     5727252.807 6   4514384.62649  22767897.0354
  20517347.855   -19969778.999 7 -15380814.74649  20517345.3244
 95  2 19 17 22 29.9960000  0  7 18 14 15 19 22 25 29
  22448482.613     -470750.446 5  -6487887.95149  22448482.8954
  19159960.277   -18414936.258 7 -14146933.81349  19159958.9884
  23383449.691     6860097.495 3   5395742.32246  23383453.4534
  23196522.160    -2835110.256 3  -2071988.89947  23196525.0434
  19911766.848   -19094957.191 7 -14587152.94049  19911765.8404
  22779007.918     5785634.652 5   4559876.89049  22779006.0664
  20502953.223   -20045423.289 7 -15439758.33149  20502950.6804
 95  2 19 17 22 59.9960000  0  7 18 14 15 19 22 25 29
  22428314.020     -576734.984 5  -6570473.27749  22428315.2624
  19155067.004   -18440651.790 7 -14166971.90749  19155065.3164
  23395691.176     6924425.704 3   5445868.04747  23395694.9844
  23175363.645    -2946300.827 3  -2158630.86047  23175367.3364
  19906784.809   -19121138.655 7 -14607554.08049  19906783.8134
  22790134.746     5844107.592 5   4605440.16949  22790133.8914
  20488587.535   -20120915.366 7 -15498583.32749  20488584.8524
 95  2 19 17 23 29.9960000  0  7 18 14 15 19 22 25 29
  22408162.012     -682637.487 5  -6652994.67449  22408163.1724
  19150297.402   -18465715.839 7 -14186502.34949  19150296.0204
  23407931.949     6988748.129 3   5495989.30146  23407937.5984
  23154253.598       -7385.52914  -2245075.02446  23154255.1914
  19901934.098   -19146627.910 7 -14627415.83649  19901933.1134
  22801277.371     5902662.246 5   4651067.08149  22801276.0124
  20474251.027   -20196254.582 7 -15557289.19849  20474248.4384
 95  2 19 17 23 59.9960000  0  7 18 14 15 19 22 25 29
  22388026.731     -788446.916 5  -6735443.53449  22388026.1214
  19145649.043   -18490143.776 7 -14205537.12049  19145647.6604
  23420168.652     7053055.618 3   5546098.87446  23420170.6564
  23133187.543     -118084.570 4  -2331333.97949  23133189.6764
  19897213.520   -19171434.906 7 -14646745.96649  19897212.7814
  22812433.371     5961288.325 5   4696749.67349  22812433.6764
  20459946.652   -20271424.289 7 -15615862.99249  20459944.0634
 95  2 19 17 24 29.9960000  0  7 18 14 15 19 22 25 29
  22367906.918     -894178.252 5  -6817831.56349  22367907.2464
  19141121.098   -18513937.236 7 -14224077.49149  19141119.4814
  23432401.598     7117339.603 3   5596190.16746  23432405.8634
  23112167.012      -40471.18014
  19892621.543   -19195566.270 7 -14665549.62449  19892620.4534
  22823599.598     6019965.595 5   4742472.15449  22823600.3594
  20445677.731   -20346407.839 7 -15674291.72649  20445675.0124
 95  2 19 17 24 59.9960000  0  7 18 14 15 19 22 25 29
  22347801.504     -999833.145 5  -6900160.01649  22347801.6214
  19136717.449   -18537079.109 7 -14242110.13449  19136716.0434
  23444629.684     7181595.925 3   5646259.87446  23444632.5904
  23091193.832     -150685.935 4
  19888161.457   -19219004.475 7 -14683813.15749  19888160.3674
  22834775.863     6078699.191 5   4788238.51349  22834775.0554
  20431444.137   -20421205.733 7 -15732575.79049  20431441.4414
 95  2 19 17 25 29.9960000  0  7 18 14 15 19 22 25 29
  22327710.801    -1105408.283 5  -6982426.35649  22327710.9534
  19132438.105   -18559567.095 7 -14259633.25349  19132436.6524
  23456850.371     7245817.504 3   5696302.56048  23456853.9224
  23070268.449      -18306.24514
  19883831.066   -19241761.235 7 -14701545.69449  19883830.0704
  22845963.246     6137488.225 5   4834048.09249  22845962.1564
  20417245.035   -20495822.732 7 -15790718.90149  20417242.1524
 95  2 19 17 25 59.9960000  0  7 18 14 15 19 22 25 29
  22307637.777    -1210893.267 5  -7064622.40949  22307635.7624
  19128285.660   -18581389.960 7 -14276638.09449  19128284.1724
  23469066.262     7310012.968 3   5746324.83247  23469070.2114
  23049392.668     -128007.772 4
  19879631.145   -19263831.459 7 -14718743.27149  19879630.2544
  22857165.793     6196354.391 5   4879917.74949  22857166.6844
  20403082.121   -20570250.106 7 -15848714.24849  20403079.2974
 95  2 19 17 26 29.9960000  0  7 18 14 15 19 22 25 29
  22287578.363    -1316307.335 5  -7146763.20649  22287578.3634
  19124256.598   -18602561.635 7 -14293135.51149  19124254.9924
  23481274.973     7374163.044 3   5796311.75447  23481277.4574
  23028562.871     -237469.128 3    -68218.25156  23028566.3874
  19875558.715       -9902.04617 -14735418.27249  19875557.6604
  22868380.137     6255288.311 5   4925840.20048  22868381.1914
  20388948.434      -34639.28317 -15906588.66249  20388945.4104
 95  2 19 17 26 59.9960000  0  7 18 14 15 19 22 25 29
  22267541.270    -1421603.166 5  -7228811.88549  22267541.0704
  19120353.902   -18623071.019 7 -14309116.85549  19120352.3444
  23493476.066     7438285.995 3   5846277.51947  23493478.8554
  23007779.816     -346684.089 3   -153320.78647  23007780.7424
  19871617.480      -30612.480 7 -14751556.26549  19871616.8834
  22879613.863     6314319.294 5   4971838.29548  22879614.0984
  20374846.504     -108746.422 7 -15964334.47249  20374843.6804
 95  2 19 17 27 29.9960000  0  7 18 14 15 19 22 25 29
  22247522.645    -1526798.427 5  -7310782.17849  22247524.2384
  19116568.723   -18642961.743 7 -14324616.13049  19116567.4924
  23505670.020     7502366.453 3   5896210.22645  23505675.5744
  22987037.426     -455689.518 3   -238260.05046  22987041.6214
  19867803.504      -50655.065 7 -14767173.86649  19867802.8134
  22890862.395     6373429.776 5   5017898.29848  22890863.8594
  20360775.262     -182690.494 7 -16021953.22449  20360772.6954
 95  2 19 17 27 59.9960000  0  7 18 14 15 19 22 25 29
  22227520.105    -1631913.576 5  -7392690.03949  22227521.5594
  19112900.074   -18662238.525 7 -14339637.01049  19112898.6564
  23517855.199     7566395.296 3   5946102.64645  23517859.7464
  22966330.973     -564500.212 3   -323047.59047  22966334.0434
  19864116.043      -70032.949 7 -14782273.52249  19864115.2814
  22902123.402     6432606.047 5   5064009.59949  22902124.4104
  20346735.457     -256469.545 7 -16079443.38849  20346732.6684
 95  2 19 17 28 29.9960000  0  7 18 14 15 19 22 25 29
  22207532.840    -1736945.863 5  -7474533.34049  22207532.9814
  19109351.262   -18680888.598 7 -14354169.54049  19109349.7624
  23530030.309     7630376.959 3   5995958.31545  23530036.5084
  22945665.246     -673103.129 3   -407673.21747  22945666.6294
  19860555.496      -88746.023 7 -14796855.14249  19860554.7464
  22913395.691     6491843.325 5   5110168.41748  22913395.0124
  20332729.816     -330070.147 7 -16136794.49649  20332727.1454
 95  2 19 17 28 59.9960000  0  7 18 14 15 19 22 25 29
  22187560.926    -1841902.638 5  -7556317.82149  22187562.2384
  19105923.426   -18698905.864 7 -14368208.92846  19105920.9184
  23542196.574     7694311.682 3   6045777.44646  23542200.1954
  22925039.449     -781486.662 3   -492127.94848  22925038.9224
  19857121.293     -106788.912 7 -14810914.58049  19857120.8484
  22924681.356     6551150.964 5   5156382.05949  22924681.5314
  20318761.559     -403474.035 7 -16193992.32049  20318758.7344
 95  2 19 17 29 29.9960000  0  7 18 14 15 19 22 25 29
  22167596.035    -1946818.117 5  -7638070.12349  22167596.4574
  19102615.520   -18716286.111 7 -14381752.05847  19102611.1134
  23554354.473     7758197.694 3   6095558.52545  23554359.1484
  22904461.449     -889627.595 3   -576393.57148  22904464.0394
  19853815.082     -124168.555 7 -14824457.12249  19853817.3094
  22935980.496     6610525.860 5   5202648.13249  22935980.7424
  20304832.488     -476672.587 7 -16251030.14449  20304829.6764
 95  2 19 17 29 59.9960000  0  7 18 14 15 19 22 25 29
  22147638.574    -2051692.042 5  -7719790.02249  22147638.6214
  19099432.496   -18733015.070 7 -14394787.60649  19099430.4344
  23566502.027     7822025.296 3   6145294.18945  23566505.2734
  22883932.856     -997505.810 3   -660454.56747  22883935.3524
  19850633.152     -140886.217 7 -14837483.86849  19850632.7194
  22947289.902     6669959.950 5   5248960.32849  22947289.8794
  20290938.926     -549682.824 7 -16307921.22549  20290936.4534
 95  2 19 17 30 29.9960000  0  7 18 14 15 19 22 25 29
  22127693.957    -2156505.307 5  -7801462.66749  22127693.8754
  19096372.262   -18749095.525 7 -14407317.85749  19096370.8444
  23578635.809     7885794.566 2   6194984.40345  23578643.1954
  22863456.824    -1105107.312 4   -744299.86346  22863458.6524
  19847580.301     -156929.960 7 -14849985.48149  19847579.6454
  22958613.012     6729461.829 5   5295325.33949  22958613.6914
  20277078.762     -622519.043 7 -16364676.71549  20277075.9384
 95  2 19 17 30 59.9960000  0  6 18 14 15 22 25 29
  22107763.387    -2261240.810 5  -7883074.72049  22107763.4454
  19093435.879   -18764526.587 7 -14419342.08449  19093434.6604
  23590760.160     7949511.065 2   6244633.46645  23590762.3054
  19844660.277     -172273.648 7 -14861941.60349  19844659.5634
  22969950.965     6789040.313 5   5341750.04049  22969951.1064
  20263251.543     -695180.359 7 -16421295.91449  20263248.6024
 95  2 19 17 31 29.9960000  0  7 18 14 15 19 22 25 29
  22087851.043    -2365879.090 5  -7964611.02549  22087851.6054
  19090625.824   -18779293.393 7 -14430848.70749  19090624.1844
  23602875.746     8013178.089 3   6294243.87447  23602877.7624
  22822670.738     -103446.211 4
  19841878.410     -186893.976 7 -14873334.06949  19841877.3914
  22981300.770     6848686.470 5   5388227.47649  22981300.8404
  20249457.441     -767668.447 7 -16477780.12949  20249454.6884
 95  2 19 17 31 59.9960000  0  7 18 14 15 19 22 25 29
  22067961.738    -2470398.032 5  -8046054.31349  22067961.8094
  19087942.645   -18793394.606 7 -14441836.68049  19087941.2624
  23614981.184     8076786.464 3   6343808.63947  23614989.2854
  22802355.988     -210203.430 4    -44337.70157  22802359.3054
  19839234.848     -200784.767 7 -14884158.06249  19839233.9804
  22992662.551     6908390.638 5   5434750.12049  22992661.7664
  20235696.160     -839985.928 7 -16534131.39649  20235693.6994
 95  2 19 17 32 29.9960000  0  7 18 14 15 19 22 25 29
  22048095.184    -2574799.372 5  -8127406.00049  22048095.0084
  19085384.379   -18806837.526 7 -14452311.71249  19085382.9144
  23627072.887     8140331.783 3
  22782087.520     -316708.426 4   -127328.57447  22782088.9494
  19836727.098     -213963.964 7 -14894427.57949  19836726.2664
  23004033.145     6968145.738 5   5481312.42549  23004033.2624
  20221969.816     -912118.695 7 -16590338.75149  20221966.8404
 95  2 19 17 32 59.9960000  0  6 18 14 19 22 25 29
  22028249.910    -2679086.599 5  -8208668.74349  22028249.4774
  19082954.176   -18819608.909 7 -14462263.44949  19082953.0394
  22761869.434     -422956.478 3   -210119.23347  22761869.5984
  19834354.926     -226429.695 7 -14904141.12649  19834354.2344
  23015413.129     7027945.236 5   5527909.38648  23015413.3634
  20208281.988     -984047.150 7 -16646386.87949  20208279.3634
 95  2 19 17 33 29.9960000  0  6 18 14 19 22 25 29
  22008425.004    -2783266.293 5  -8289847.70849  22008424.7934
  19080651.848   -18831707.981 7 -14471691.30749  19080651.0274
  22741699.434     -528954.136 3   -292714.79347  22741701.6254
  19832113.840     -238206.960 7 -14913318.21549  19832112.9614
  23026797.926     7087776.211 4   5574530.83846  23026797.8094
  20194634.551    -1055765.398 6 -16702271.21949  20194631.9494
 95  2 19 17 33 59.9960000  0  6 18 14 19 22 25 29
  21988620.035    -2887343.871 5  -8370947.08349  21988619.7194
  19078474.762   -18843147.465 7 -14480605.23349  19078473.3204
  22721577.020     -634695.162 4   -375110.36248  22721578.6254
  19829998.723     -249322.193 7 -14921979.45949  19829997.7274
  23038192.629     7147651.044 5   5621186.44648  23038193.2854
  20181029.887    -1127259.479 7 -16757980.91549  20181026.9454
 95  2 19 17 34 29.9960000  0  6 18 14 19 22 25 29
  21968833.145    -2991323.175 5  -8451969.88949  21968833.1914
  19076422.816   -18853930.535 7 -14489007.64349  19076421.4804
  22701507.230     -740168.316 4   -457297.21349  22701506.5274
  19828007.980     -259782.811 7 -14930130.59449  19828007.0204
  23049594.902     7207570.826 5   5667877.11747  23049594.6334
  20167464.207    -1198546.529 7 -16813529.25649  20167461.3244
 95  2 19 17 34 59.9960000  0  6 18 14 19 22 25 29
  21949065.457    -3095202.592 5  -8532914.85849  21949064.4384
  19074498.168   -18864046.298 7 -14496890.07849  19074496.6804
  22681485.582     -845377.705 4   -539278.55648  22681489.0984
  19826143.277     -269582.000 7 -14937766.33649  19826142.5394
  23061005.996     7267535.937 5   5714603.06648  23061005.7974
  20153937.207    -1269632.161 7 -16868920.65849  20153934.4184
 95  2 19 17 35 29.9960000  0  6 18 14 19 22 25 29
  21929317.785    -3198976.782 5  -8613777.79849  21929318.4774
  19072699.715   -18873496.812 7 -14504254.11749  19072698.4734
  22661515.434     -950323.147 4   -621054.16347  22661518.7154
  19824402.481     -278729.940 7 -14944894.58649  19824401.8714
  23072428.715     7327562.008 4   5761376.57347  23072429.7704
  20140451.051    -1340501.739 7 -16924143.68649  20140448.2154
 95  2 19 17 35 59.9960000  0  6 18 14 19 22 25 29
  21909586.980    -3302663.123 5  -8694572.34449  21909586.6524
  19071026.121   -18882290.718 7 -14511106.54149  19071024.9264
  22641594.715    -1055006.106 3   -702625.25448  22641597.0124
  19822785.660     -287226.769 7 -14951515.51049  19822784.6294
  23083863.379     7387652.265 4   5808200.06547  23083862.6884
  20127003.527    -1411168.656 7 -16979208.82449  20127000.7854
 95  2 19 17 36 29.9960000  0  6 18 14 19 22 25 29
  21889875.223    -3406246.522 5  -8775286.63149  21889875.1994
  19069483.105   -18890399.791 7 -14517425.31049  19069481.9694
  22621727.293    -1159407.711 3   -783977.14047  22621729.8484
  19821298.520     -295042.348 7 -14957605.57949  19821297.5234
  23095311.605     7447814.214 4   5855079.46247  23095313.3984
  20113596.316    -1481624.982 6 -17034109.85349  20113593.7974
 95  2 19 17 36 59.9960000  0  6 18 14 19 22 25 29
  21870178.293    -3509756.931 5  -8855944.08649  21870178.5864
  19068065.082   -18897851.303 7 -14523231.71349  19068063.8754
  22601913.621    -1263533.556 3   -865114.14048  22601916.4804
  19819938.309     -302189.690 7 -14963174.95249  19819937.4884
  23106769.512     7508021.802 5   5901994.37949  23106768.9264
  20100230.512    -1551862.801 7 -17088840.62749  20100227.8404
 95  2 19 17 37 29.9960000  0  6 18 14 19 22 25 29
  21850494.535    -3613194.361 5  -8936544.63849  21850494.9104
  19066768.301   -18904666.466 7 -14528542.24249  19066766.7544
  22582153.809    -1367371.691 3   -946026.96247  22582156.9144
  19818706.207     -308664.576 6 -14968220.32149  19818705.6454
  23118235.152     7568274.261 5   5948944.27147  23118235.9494
  20086905.105    -1621888.348 6 -17143405.98049  20086902.5044
 95  2 19 17 37 59.9950000  0  6 18 14 19 22 25 29
  21830827.765    -3716543.652 5  -9017076.53848  21830827.1794
  19065595.218   -18910831.721 7 -14533346.35749  19065594.1754
  22562450.054    -1470915.248 3  -1026710.21647  22562452.9604
  19817604.202     -314454.807 6 -14972732.19849  19817603.6984
  23129708.507     7628567.185 5   5995925.66147  23129708.4484
  20073617.929    -1691710.737 6 -17197813.03749  20073615.1514
 95  2 19 17 38 29.9950000  0  6 18 14 19 22 25 29
  21811176.905    -3819809.118 5  -9097543.09649  21811178.4644
  19064543.788   -18916356.580 7 -14537651.44849  19064542.2884
  22542797.257    -1574186.294 3
  19816631.054     -319570.348 6 -14976718.33049  19816630.6324
  23141186.640     7688887.363 5   6042928.34247  23141186.7454
  20060365.132    -1761355.839 6 -17252081.92449  20060362.9054
 95  2 19 17 38 59.9950000  0  6 18 14 19 22 25 29
  21791544.999    -3922974.657 5  -9177931.81649  21791544.7184
  19063612.937   -18921248.979 7 -14541463.72649  19063611.8124
  22523197.757    -1677186.621 3
  19815785.694     -324011.841 6 -14980179.23449  19815785.4014
  23152672.241     7749243.275 4   6089958.86746  23152670.5304
  20047148.249    -1830810.828 6 -17306202.69449  20047145.9054
 95  2 19 17 39 29.9950000  0  6 18 14 19 22 25 29
  21771932.835    -4026039.720 5  -9258242.19848  21771933.9954
  19062803.171   -18925504.100 6 -14544779.41949  19062802.3154
  22503641.827    -1779953.242 3    -74731.97956  22503646.5734
  19815066.507     -327791.609 6 -14983124.51849  19815065.8514
  23164166.241     7809645.709 4   6137025.61147  23164165.8434
  20033962.835    -1900100.854 6 -17360194.91849  20033960.5504
 95  2 19 17 39 59.9950000  0  6 18 14 19 22 25 29
  21752339.265    -4129003.785 5  -9338473.92949  21752338.4564
  19062116.780   -18929111.185 7 -14547590.16049  19062115.9484
  22484127.819    -1882497.876 3   -154636.85346  22484131.6284
  19814472.960     -330911.103 6 -14985555.30349  19814472.3044
  23175671.569     7870105.561 4   6184137.07746  23175673.4914
  20020808.304    -1969229.544 6 -17414061.43049  20020805.8314
 95  2 19 17 40 29.9950000  0  6 18 14 19 22 25 29
  21732765.140    -4231865.521 5  -9418625.89449  21732765.5624
  19061551.929   -18932079.036 7 -14549902.78649  19061550.9804
  22464657.452    -1984816.350 4   -234365.50146  22464659.5974
  19814006.655     -333362.103 6 -14987465.18749  19814006.4214
  23187189.257     7930631.742 4   6231300.28646  23187190.2764
  20007685.398    -2038188.824 6 -17467795.94049  20007682.7024
 95  2 19 17 40 59.9950000  0  6 18 14 19 22 25 29
  21713209.398    -4334632.210 5  -9498703.83849  21713210.9804
  19061107.530   -18934413.889 7 -14551722.18149  19061106.3944
  22445228.944    -2086913.977 4   -313922.11646  22445231.0074
  19813664.944     -335157.773 6 -14988864.42049  19813664.7454
  23198716.523     7991206.335 4   6278501.16247  23198717.1554
  19994598.671    -2106961.704 6 -17521385.19449  19994596.0584
 95  2 19 17 41 29.9950000  0  6 18 14 19 22 25 29
  21693672.812    -4437296.939 5  -9578702.28649  21693672.9294
  19060786.265   -18936102.858 7 -14553038.27249  19060785.0814
  22425845.851    -2188770.124 4   -393290.51149  22425847.6204
  19813450.358     -336286.308 6 -14989743.79949  19813449.5734
  23210252.351     8051828.158 4   6325738.85347  23210252.0114
  19981548.030    -2175542.486 6 -17574824.75749  19981545.4404
 95  2 19 17 41 59.9950000  0  6 18 14 19 22 25 29
  21674155.694    -4539859.753 5  -9658621.33049  21674155.4604
  19060585.640   -18937156.953 7 -14553859.67149  19060584.4214
  22406513.062    -2290367.150 4   -472456.98247  22406515.1834
  19813360.304     -336757.379 6 -14990110.87749  19813359.8354
  23221792.273     8112468.440 4   6372990.96947  23221792.4134
  19968535.733    -2243923.864 6 -17628108.94349  19968533.1444
 95  2 19 17 42 29.9950000  0  6 18 14 19 22 25 29
  21654655.655    -4642333.282 5  -9738470.79749  21654655.7264
  19060504.483   -18937583.116 7 -14554191.76049  19060503.4054
  22387227.694    -2391712.371 4   -551427.21447  22387230.5194
  19813392.929     -336587.056 6 -14989978.15849  19813392.4834
  23233329.773     8173098.424 4   6420234.99446  23233329.0584
  19955563.710    -2312090.621 6 -17681225.89449  19955560.7224
 95  2 19 17 42 59.9950000  0  6 18 14 19 22 25 29
  21635173.507    -4744712.768 5  -9818246.99549  21635173.1794
  19060544.851   -18937372.175 7 -14554027.40949  19060543.9834
  22367990.843    -2492803.680 4   -630199.68447  22367991.9444
  19813546.062     -335782.363 7 -14989351.12549  19813545.3234
  23244862.944     8233706.321 4   6467461.86647  23244864.0114
  19942634.226    -2380035.372 6 -17734169.84649  19942631.6834
 95  2 19 17 43 29.9950000  0  6 18 14 19 22 25 29
  21615709.929    -4846996.120 5  -9897948.28049  21615710.0694
  19060706.780   -18936520.505 7 -14553363.79449  19060705.7964
  22348799.444    -2593654.775 4   -708784.91048  22348798.8824
  19813820.733     -334338.050 7 -14988225.69649  19813819.9724
  23256395.187     8294306.623 4   6514682.74847  23256398.0464
  19929745.085    -2447768.783 6 -17786949.12249  19929742.6594
 95  2 19 17 43 59.9950000  0  6 18 14 19 22 25 29
  21596263.773    -4949184.780 5  -9977575.78849  21596263.7024
  19060991.405   -18935024.759 7 -14552198.29949  19060990.1754
  22329651.702    -2694274.588 4   -787189.91648  22329653.8234
  19814216.515     -332258.835 7 -14986605.53649  19814215.6244
  23267925.757     8354900.224 5   6561898.44846  23267926.8234
  19916896.366    -2515289.127 6 -17839562.37649  19916893.6834
 95  2 19 17 44 29.9950000  0  6 18 14 19 22 25 29
  21576833.530    -5051291.623 5 -10057139.52249  21576833.8354
  19061397.679   -18932890.599 7 -14550535.34049  19061396.5894
  22310546.366    -2794679.148 4   -865427.17648  22310548.1594
  19814732.897     -329545.428 7 -14984491.19549  19814732.1594
  23279454.390     8415486.223 5   6609108.24948  23279455.9134
  19904085.499    -2582611.207 6 -17892021.13049  19904082.9094
 95  2 19 17 44 59.9950000  0  6 18 14 19 22 25 29
  21557421.843    -5153300.204 5 -10136626.67949  21557422.1484
  19061927.179   -18930108.029 7 -14548367.11849  19061925.9254
  22291482.999    -2894854.127 4   -943485.53449  22291485.7184
  19815374.038     -326176.183 7 -14981865.81349  19815373.4404
  23290987.452     8476091.723 4   6656333.22849  23290987.2534
  19891310.655    -2649742.712 6 -17944331.38549  19891308.4294
 95  2 19 17 45 29.9950000  0  5 18 14 19 22 29
  21538025.272    -5255229.507 5 -10216052.07049  21538024.6634
  19062577.085   -18926693.177 7 -14545706.21849  19062575.7734
  22272465.218    -2994792.987 4  -1021359.95845  22272467.4334
  19816138.515     -322159.579 7 -14978735.99749  19816137.9524
  19878570.085    -2716695.827 7 -17996502.64549  19878567.7414
 95  2 19 17 45 59.9950000  0  5 18 14 19 22 29
  21518642.843    -5357085.735 5 -10295420.52749  21518642.3154
  19063343.554   -18922664.310 7 -14542566.86049  19063342.4644
  22253494.233    -3094483.228 4  -1099040.61047  22253495.9334
  19817024.991     -317501.663 7 -14975106.44749  19817024.3004
  19865861.437    -2783478.680 6 -18048541.22649  19865858.9294
 95  2 19 17 46 29.9950000  0  5 18 14 19 22 29
  21499272.437    -5458878.588 5 -10374739.59649  21499272.9054
  19064223.280   -18918041.924 6 -14538965.01449  19064221.7574
  22234569.757    -3193932.335 4  -1176533.34548  22234570.9054
  19818030.577     -312215.740 6 -14970987.53949  19818029.9094
  19853182.569    -2850107.379 6 -18100459.68049  19853180.0384
 95  2 19 17 46 59.9950000  0  5 18 14 19 22 29
  21479917.546    -5560588.298 5 -10453993.87849  21479916.7724
  19065215.929   -18912825.772 7 -14534900.50549  19065215.1324
  22215694.819    -3293121.741 4  -1253823.76748  22215699.1904
  19819155.382     -306306.072 7 -14966382.60149  19819154.4564
  19840535.218    -2916570.589 6 -18152249.19249  19840532.6284
 95  2 19 17 47 29.9950000  0  5 18 14 19 22 29
  21460579.257    -5662212.985 5 -10533181.90349  21460580.4404
  19066319.155   -18907027.179 6 -14530382.13149  19066318.2884
  22196867.616    -3392059.078 4  -1330917.75047  22196868.9524
  19820396.273     -299783.290 6 -14961299.89549  19820395.7104
  19827920.944    -2982857.977 6 -18203901.68649  19827918.5544
 95  2 19 17 47 59.9950000  0  5 18 14 19 22 29
  21441259.476    -5763737.324 5 -10612291.75149  21441259.3584
  19067536.304   -18900632.534 6 -14525399.31449  19067535.1794
  22178085.187    -3490762.977 4  -1407829.80046  22178088.0464
  19821754.882     -292643.420 6 -14955736.35449  19821754.6014
  19815342.358    -3048959.072 6 -18255409.03449  19815339.5934
 95  2 19 17 48 29.9950000  0  5 18 14 19 22 29
  21421957.382    -5865171.938 5 -10691331.68149  21421956.8314
  19068867.616   -18893636.695 6 -14519948.03749  19068866.1874
  22159344.757    -3589242.587 4  -1484567.15745  22159348.6014
  19823227.593     -284904.800 6 -14949706.25149  19823227.0194
  19802801.601    -3114861.087 6 -18306761.24949  19802799.3624
 95  2 19 17 48 59.9950000  0  5 18 14 19 22 29
  21402671.960    -5966514.580 5 -10770299.94349  21402672.0544
  19070313.772   -18886036.853 7 -14514026.12049  19070312.4604
  22140648.452    -3687491.785 5  -1561124.90547  22140649.8704
  19824815.171     -276562.701 6 -14943205.92049  19824814.3744
  19790301.655    -3180549.317 6 -18357946.89249  19790299.4054
 95  2 19 17 49 29.9950000  0  5 18 14 19 22 29
  21383403.382    -6067773.077 6 -10849202.65449  21383403.6284
  19071876.483   -18877824.926 7 -14507627.24849  19071875.0304
  22121996.358    -3785511.345 5  -1637503.76648  22121997.1084
  19826520.077     -267603.687 7 -14936224.87649  19826519.0814
  19777844.476    -3246011.193 7 -18408956.15949  19777841.8044
 95  2 19 17 49 59.9950000  0  5 18 14 19 22 29
  21364146.796    -6168968.728 5 -10928056.34649  21364145.6834
  19073553.194   -18869013.038 6 -14500760.84149  19073551.8584
  22103384.554    -3883314.528 4  -1713713.96949  22103385.6554
  19828339.413     -258042.385 6 -14928774.47849  19828338.7694
  19765428.280    -3311257.782 6 -18459797.62549  19765425.7494
 95  2 19 17 50 29.9950000  0  5 18 14 19 22 29
  21344905.960    -6270079.475 5 -11006843.91649  21344905.6444
  19075345.843   -18859591.460 6 -14493419.37049  19075345.0344
  22084820.468    -3980868.896 4  -1789730.30745  22084822.5304
  19830277.499     -247858.024 6 -14920838.59249  19830276.8784
  19753056.577    -3376274.203 6 -18510459.76449  19753053.4254
 95  2 19 17 50 59.9950000  0  5 18 14 19 22 29
  21325680.679    -6371109.168 5 -11085568.31149  21325679.9524
  19077251.515   -18849577.961 6 -14485616.66549  19077250.8824
  22066300.663    -4078192.369 5  -1865566.71847  22066301.9764
  19832334.054     -237051.646 6 -14912418.02749  19832333.3744
  19740722.413    -3441090.006 6 -18560965.57449  19740719.8124
 95  2 19 17 51 29.9950000  0  5 18 14 19 22 29
  21306471.976    -6472050.031 5 -11164223.49249  21306473.0424
  19079272.827   -18838956.973 6 -14477340.59549  19079271.9604
  22047823.655    -4175290.668 5  -1941227.69947  22047824.1834
  19834508.858     -225621.248 6 -14903511.21749  19834508.3194
  19728427.468    -3505700.641 6 -18611311.51749  19728424.6324
 95  2 19 17 51 59.9950000  0  5 18 14 19 22 29
  21287281.194    -6572898.341 5 -11242806.57249  21287279.9174
  19081408.648   -18827733.230 6 -14468594.85549  19081407.3584
  22029388.218    -4272168.532 5  -2016716.90449  22029388.0544
  19836799.710     -213582.555 6 -14894130.42049  19836799.3354
  19716167.905    -3570124.894 6 -18661512.23349  19716165.1754
 95  2 19 17 52 29.9950000  0  5 18 14 19 22 29
  21268107.069    -6673658.955 6 -11321321.33849  21268106.3314
  19083658.968   -18815907.919 7 -14459380.38149  19083657.8554
  22010996.835    -4368815.312 5  -2092026.04149  22010999.9294
  19839203.843     -200949.144 7 -14884286.23649  19839203.1284
  19703939.952    -3634383.466 7 -18711583.86749  19703936.9764
 95  2 19 17 52 59.9950000  0  5 18 14 19 22 29
  21248950.233    -6774328.366 6 -11399765.00749  21248950.2104
  19086025.726   -18803469.973 7 -14449688.49649  19086024.4254
  21992651.702    -4465221.661 5  -2167147.81949  21992654.5034
  19841721.640     -187719.233 7 -14873977.21249  19841720.8554
  19691746.663    -3698459.200 7 -18761512.99749  19691743.7454
 95  2 19 17 53 29.9950000  0  5 18 14 19 22 29
  21229809.124    -6874914.609 6 -11478143.87349  21229808.9134
  19088507.218   -18790430.693 7 -14439528.04649  19088505.9764
  21974351.358    -4561390.426 5  -2242084.48349  21974352.7534
  19844348.624     -173913.580 7 -14863219.56249  19844347.7694
  19679589.296    -3762346.981 7 -18811295.67449  19679586.3664
 95  2 19 17 53 59.9950000  0  5 18 14 19 22 29
  21210681.835    -6975429.758 6 -11556467.31449  21210681.6714
  19091100.288   -18776803.812 7 -14428909.72749  19091098.9764
  21956095.233    -4657322.428 5  -2316836.64449  21956097.0154
  19847082.093     -159549.053 7 -14852026.42749  19847081.2374
  19667466.499    -3826052.461 7 -18860936.30049  19667463.6514
 95  2 19 17 54 29.9950000  0  5 18 14 19 22 29
  21191568.593    -7075870.508 6 -11634732.81449  21191568.6514
  19093806.499   -18762582.927 7 -14417828.54349  19093805.4094
  21937885.804    -4753012.866 5  -2391400.57249  21937888.2414
  19849923.358     -144619.603 7 -14840393.10349  19849922.4444
  19655384.046    -3889546.273 7 -18910411.99549  19655381.3394
 95  2 19 17 54 59.9950000  0  5 18 14 19 22 29
  21172472.624    -7176219.676 6 -11712926.94349  21172471.8044
  19096624.765   -18747773.733 7 -14406288.93649  19096623.9214
  21919719.835    -4848476.092 5  -2465787.46449  21919721.2064
  19852874.296     -129111.321 7 -14828308.73849  19852873.4174
  19643347.280    -3952800.283 7 -18959700.82849  19643344.2334
 95  2 19 17 55 29.9950000  0  5 18 14 19 22 29
  21153396.577    -7276465.426 6 -11791040.47549  21153396.1904
  19099554.483   -18732377.152 7 -14394291.62849  19099553.3124
  21901597.515    -4943710.678 5  -2539996.17649  21901599.9764
  19855937.515     -113014.007 7 -14815765.38849  19855936.6124
  19631356.335    -4015813.181 7 -19008801.78549  19631353.2884
 95  2 19 17 55 59.9950000  0  5 18 14 19 22 29
  21134340.663    -7376603.568 6 -11869070.17349  21134340.2304
  19102597.773   -18716384.093 7 -14381829.52949  19102596.9294
  21883520.905    -5038704.728 5  -2614017.46649  21883521.9374
  19859116.077      -96309.638 7 -14802749.00849  19859115.3744
  19619411.179    -4078583.817 7 -19057713.97149  19619408.2964
 95  2 19 17 56 29.9950000  0  5 18 14 19 22 29
  21115307.554    -7476625.364 6 -11947009.19749  21115306.8974
  19105752.405   -18699807.469 7 -14368912.71149  19105751.3984
  21865488.280    -5133466.616 5  -2687857.86049  21865490.5894
  19862411.726      -78991.864 7 -14789254.65249  19862410.6714
  19607507.882    -4141136.842 7 -19106456.58549  19607504.9294
 95  2 19 17 56 59.9950000  0  5 18 14 19 22 29
  21096297.249    -7576523.683 6 -12024852.01549  21096296.9914
  19109016.608   -18682652.859 7 -14355545.50949  19109015.7064
  21847501.741    -5227986.472 5  -2761509.63949  21847503.1124
  19865826.335      -61049.320 7 -14775273.46849  19865825.3624
  19595642.640    -4203489.524 7 -19155043.08949  19595639.8274
 95  2 19 17 57 29.9950000  0  5 18 14 19 22 29
  21077307.804    -7676315.485 6 -12102611.82849  21077306.8194
  19112393.897   -18664906.014 7 -14341716.83449  19112392.5974
  21829561.405    -5322261.460 5  -2834970.65349  21829562.5654
  19869356.851      -42495.521 7 -14760815.97949  19869355.7264
  19583811.687    -4265661.501 7 -19203488.78249  19583808.8394
 95  2 19 17 57 59.9950000  0  5 18 14 19 22 29
  21058337.194    -7776005.028 6 -12180291.95149  21058336.5264
  19115885.148   -18646559.393 7 -14327420.79249  19115884.0694
  21811667.351    -5416298.392 5  -2908246.12849  21811669.4954
  19873000.749      -23346.530 7 -14745894.70349  19872999.5894
  19572012.640    -4327666.346 7 -19251804.24649  19572009.5814
 95  2 19 17 58 29.9950000  0  5 18 14 19 22 29
  21039384.265    -7875602.348 6 -12257900.22549  21039383.8194
  19119488.358   -18627625.859 7 -14312667.42049  19119487.1514
  21793813.991    -5510115.643 5  -2981350.42649  21793815.7264
  19876755.421       -3615.001 7 -14730519.50049  19876754.1554
  19560246.202    -4389498.835 7 -19299985.40449  19560243.2024
 95  2 19 17 58 59.9950000  0  5 18 14 19 22 29
  21020450.483    -7975099.496 6 -12335430.43549  21020449.5934
  19123208.780   -18608073.735 7 -14297432.03049  19123207.9254
  21776007.694    -5603689.130 5  -3054264.78849  21776010.3664
  19880623.694       16711.565 7 -14714680.63049  19880622.6054
  19548520.155    -4451119.396 7 -19348001.42349  19548517.2964
 95  2 19 17 59 29.9950000  0  5 18 14 19 22 29
  21001536.913    -8074493.809 6 -12412880.51449  21001536.8194
  19127049.718   -18587888.417 7 -14281703.23949  19127048.7804
  21758247.163    -5697021.533 5  -3126991.29149  21758248.5694
  19884604.335       37630.166 7 -14698380.43949  19884603.3984
  19536838.398    -4512507.557 7 -19395836.34849  19536835.5264
 95  2 19 17 59 59.9950000  0  5 18 14 19 22 29
  20982647.858    -8173755.076 6 -12490226.92649  20982646.8514
  19131008.851   -18567083.089 7 -14265491.32949  19131007.8434
  21740534.163    -5790104.158 5  -3199523.16149  21740535.9684
  19888701.554       59161.344 7 -14681602.91149  19888700.7454
  19525205.038    -4573640.312 7 -19443472.25349  19525202.2964
 95  2 19 18  0 29.9950000  0  5 18 14 19 22 29
  20963786.483    -8272870.681 6 -12567459.83049  20963786.2374
  19135084.608   -18545666.220 7 -14248802.89049  19135083.4604
  21722871.054    -5882923.970 5  -3271850.23949  21722872.2614
  19892917.960       81318.973 7 -14664337.24249  19892917.2224
  19513625.296    -4634494.086 7 -19490890.77049  19513622.4134
 95  2 19 18  0 59.9950000  0  5 18 14 19 22 29
  20944954.507    -8371834.300 6 -12644574.31049  20944953.8864
  19139274.608   -18523647.879 7 -14231645.77149  19139273.6124
  21705256.437    -5975491.627 5  -3343980.83949  21705258.2764
  19897248.843      104078.186 7 -14646602.80349  19897248.1284
  19502094.866    -4695085.644 7 -19538104.96449  19502092.3584
 95  2 19 18  1 29.9950000  0  5 18 14 19 22 29
  20926153.937    -8470631.720 6 -12721559.28449  20926153.3394
  19143578.499   -18501031.338 7 -14214022.52449  19143577.4444
  21687689.632    -6067805.362 5  -3415913.56349  21687691.2724
  19901694.296      127438.586 7 -14628399.90549  19901693.3124
  19490616.858    -4755402.450 7 -19585105.06649  19490614.0584
 95  2 19 18  1 59.9950000  0  5 18 14 19 22 29
  20907383.148    -8569274.345 6 -12798423.63449  20907382.7734
  19147991.890   -18477839.545 7 -14195951.03349  19147990.6834
  21670168.991    -6159872.590 5  -3487654.20749  21670169.7654
  19906251.249      151386.547 7 -14609739.16549  19906250.1944
  19479188.718    -4815458.351 7 -19631901.86449  19479185.7884
 95  2 19 18  2 29.9950000  0  5 18 14 19 22 29
  20888634.702    -8667794.705 6 -12875192.71349  20888634.3514
  19152515.249   -18454068.682 7 -14177428.31249  19152514.1244
  21652696.991    -6251687.122 5  -3559197.93449  21652698.3274
  19910917.046      175904.951 7 -14590633.92349  19910916.2374
  19467808.976    -4875259.140 7 -19678499.87649  19467806.2694
 95  2 19 18  2 59.9950000  0  5 18 14 19 22 29
  20869908.374    -8766203.028 6 -12951874.50449  20869907.5894
  19157149.921   -18429712.546 7 -14158449.54049  19157148.9374
  21635274.124    -6343246.233 5  -3630542.63849  21635276.1164
  19915692.898      201001.398 7 -14571078.26149  19915691.9014
  19456479.702    -4934795.202 7 -19724891.60149  19456477.2534
 95  2 19 18  3 29.9950000  0  5 18 14 19 22 29
  20851200.069    -8864515.915 6 -13028481.92849  20851198.9804
  19161894.179   -18404781.857 7 -14139023.05949  19161893.3474
  21617898.702    -6434553.634 5  -3701691.18249  21617900.4014
  19920581.015      226688.817 7 -14551062.10049  19920579.9834
  19445199.468    -4994072.970 7 -19771082.06149  19445196.7144
 95  2 19 18  3 59.9950000  0  5 18 14 19 22 29
  20832515.444    -8962706.400 6 -13104993.96649  20832514.8354
  19166749.577   -18379266.858 7 -14119141.27449  19166748.9334
  21600574.233    -6525596.035 5  -3772633.28149  21600575.8154
  19925586.866      252994.571 7 -14530564.12249  19925585.6484
  19433969.812    -5053085.669 7 -19817065.98249  19433966.9994
 95  2 19 18  4 29.9950000  0  5 18 14 19 22 29
  20813857.585    -9060752.320 6 -13181393.35149  20813856.8704
  19171719.812   -18353147.691 7 -14098788.71049  19171719.2024
  21583299.562    -6616374.123 5  -3843369.38849  21583301.2724
  19930710.257      279918.352 7 -14509584.56649  19930709.3434
  19422791.093    -5111829.538 7 -19862840.41349  19422788.1874
 95  2 19 18  4 59.9950000  0  5 18 14 19 22 29
  20795232.835    -9158625.604 6 -13257658.22849  20795231.7454
  19176804.726   -18326425.995 7 -14077966.64049  19176804.1054
  21566073.226    -6706900.377 5  -3913909.28049  21566074.3514
  19935949.319      307450.122 7 -14488131.25249  19935948.3354
  19411661.022    -5170319.263 7 -19908416.82449  19411658.1164
 95  2 19 18  5 29.9950000  0  5 18 14 19 22 29
  20776644.483    -9256307.103 6 -13333773.64849  20776643.7104
  19182005.616   -18299095.950 7 -14056670.53849  19182004.8434
  21548896.624    -6797162.611 5  -3984243.44249  21548897.1284
  19941300.116      335569.469 7 -14466220.08749  19941299.2264
  19400577.772    -5228561.569 7 -19953800.43849  19400574.8904
 95  2 19 18  5 59.9950000  0  5 18 14 19 22 29
  20758095.421    -9353785.326 6 -13409730.67749  20758094.5304
  19187326.687   -18271132.884 7 -14034881.17349  19187325.8664
  21531776.601    -6887128.433 5  -4054346.63149  21531778.3474
  19946761.452      364268.510 7 -14443857.22049  19946760.6204
  19389545.101    -5286539.259 7 -19998977.85949  19389542.4874
 95  2 19 18  6 29.9950000  0  6 18 14 28 19 22 29
  20739581.366    -9451074.429 6 -13485540.33349  20739580.6984
  19192768.085   -18242538.641 7 -14012599.98049  19192767.1364
  23290526.491      -34097.83412
  21514716.085    -6976781.813 5  -4124206.35249  21514717.4564
  19952331.155      393537.662 7 -14421050.11049  19952330.5934
  19378564.491    -5344243.237 7 -20043942.00149  19378561.5624
 95  2 19 18  6 59.9950000  0  6 18 14 28 19 22 29
  20721103.616    -9548175.801 6 -13561203.70449  20721102.7964
  19198326.968   -18213326.522 7 -13989837.32549  19198325.8664
  23272843.101     -127021.246 3
  21497717.101    -7066113.193 5  -4193815.18149  21497717.5344
  19958012.491      423391.847 7 -14397787.13149  19958011.7184
  19367637.882    -5401662.836 7 -20088684.55049  19367635.0694
 95  2 19 18  7 29.9950000  0  6 18 14 28 19 22 29
  20702657.499    -9645112.353 6 -13636738.65349  20702656.9254
  19204000.679   -18183511.700 7 -13966605.02849  19204000.0344
  23255180.437     -219840.356 3    -62676.82456  23255185.0654
  21480775.273    -7155142.801 5  -4263188.86549  21480776.8784
  19963803.944      453826.216 7 -14374072.05949  19963802.9604
  19356763.187    -5458809.564 7 -20133214.47049  19356760.3984
 95  2 19 18  7 59.9950000  0  6 18 14 28 19 22 29
  20684242.147    -9741885.524 6 -13712146.27249  20684241.4094
  19209785.179   -18153113.185 7 -13942917.90849  19209784.6514
  23237536.866     -312554.353 3   -134921.34847  23237539.7144
  21463887.499    -7243891.425 5  -4332343.61149  21463888.5194
  19969707.085      484848.003 7 -14349899.25449  19969705.9134
  19345940.976    -5515680.873 7 -20177529.77749  19345938.1404
 95  2 19 18  8 29.9950000  0  6 18 14 28 19 22 29
  20665855.632    -9838506.456 6 -13787435.28149  20665854.8234
  19215675.538   -18122158.669 7 -13918797.54449  19215675.0814
  23219913.327     -405168.784 3   -207088.28446  23219916.9014
  21447044.038    -7332400.056 5  -4401311.31849  21447044.8354
  19975719.421      516443.225 7 -14325279.61749  19975718.5074
  19335169.366    -5572286.437 7 -20221638.01349  19335166.4954
 95  2 19 18  8 59.9950000  0  6 18 14 28 19 22 29
  20647497.976    -9934977.078 6 -13862607.16849  20647497.4724
  19221672.788   -18090643.583 7 -13894240.36849  19221672.4254
  23202306.929     -497688.089 3   -279181.10246  23202310.3984
  21430244.663    -7420682.652 5  -4470102.91649  21430245.7304
  19981837.913      548596.894 7 -14300224.82849  19981836.9874
  19324447.796    -5628627.853 7 -20265540.41649  19324444.9954
 95  2 19 18  9 29.9940000  0  6 18 14 28 19 22 29
  20629166.510   -10031309.635 6 -13937671.47449  20629165.7134
  19227777.221   -18058565.606 7 -13869244.57949  19227776.5884
  23184719.690     -590108.685 3   -351197.00046  23184724.8344
  21413489.635    -7508729.301 5  -4538710.66349  21413490.5144
  19988060.963      581298.007 7 -14274743.46649  19988060.2134
  19313780.065    -5684687.922 7 -20309223.58249  19313777.1824
 95  2 19 18  9 59.9940000  0  6 18 14 28 19 22 29
  20610858.807   -10127516.891 6 -14012638.12149  20610858.3734
  19233989.291   -18025921.387 6 -13843807.53849  19233988.6114
  23167151.955     -682428.124 2   -423134.05546  23167156.1394
  21396779.814    -7596539.501 5  -4607134.13749  21396780.8574
  19994388.229      614548.538 6 -14248833.96549  19994387.5024
  19303168.791    -5740449.386 6 -20352674.05049  19303166.1074
 95  2 19 18 10 29.9940000  0  6 18 14 28 19 22 29
  20592574.861   -10223599.551 6 -14087507.72849  20592574.3574
  19240312.900   -17992691.513 7 -13817914.19249  19240312.1274
  23149605.525     -774635.125 3   -494983.49948  23149610.9284
  21380118.643    -7684093.661 5  -4675358.12949  21380120.6114
  20000821.057      648351.798 7 -14222493.80649  20000820.4244
  19292613.971    -5795915.817 7 -20395894.67049  19292611.0294
 95  2 19 18 10 59.9940000  0  6 18 14 28 19 22 29
  20574314.205   -10319559.074 6 -14162281.34749  20574313.4904
  19246750.111   -17958864.693 7 -13791555.66149  19246749.2564
  23132079.479     -866732.088 3   -566747.15746  23132083.7684
  21363508.088    -7771382.427 5  -4743375.30049  21363508.4044
  20007359.854      682713.494 7 -14195718.47749  20007358.8464
  19282111.697    -5851104.732 7 -20438899.01549  19282108.9554
 95  2 19 18 11 29.9940000  0  6 18 14 28 19 22 29
  20556076.877   -10415396.532 6 -14236959.86449  20556076.4904
  19253297.158   -17924458.376 7 -13764745.57449  19253296.2324
  23114575.736     -958718.150 3   -638424.39949  23114580.8114
  21346944.205    -7858427.150 5  -4811202.32849  21346945.7754
  20014004.846      717633.938 7 -14168507.77149  20014003.8734
  19271659.400    -5906034.510 7 -20481701.43049  19271656.3654
 95  2 19 18 11 59.9940000  0  6 18 14 28 19 22 29
  20537868.205   -10511083.903 6 -14311521.42449  20537867.9124
  19259956.330   -17889465.212 7 -13737478.21149  19259955.3464
  23097094.033    -1050581.753 3   -710006.27248  23097098.7324
  21330426.588    -7945228.757 5  -4878839.89249  21330427.5964
  20020758.525      753123.565 7 -14140853.54449  20020757.7054
  19261252.947    -5960718.382 7 -20524312.24349  19261250.0064
 95  2 19 18 12 29.9940000  0  6 18 14 28 19 22 29
  20519691.643   -10606602.712 6 -14385951.64149  20519690.9164
  19266727.190   -17853884.015 7 -13709752.63649  19266726.1704
  23079636.690    -1142317.415 3   -781488.48248  23079639.9944
  21313955.916    -8031780.935 5  -4946283.12049  21313957.2994
  20027621.119      789186.757 7 -14112752.38249  20027620.3114
  19250894.760    -6015151.331 7 -20566727.52349  19250891.5964
 95  2 19 18 12 59.9940000  0  6 18 14 28 19 22 29
  20501549.424   -10701940.259 6 -14460240.62449  20501548.6394
  19273605.916   -17817735.909 7 -13681585.31649  19273605.1434
  23062204.268    -1233925.531 3   -852871.31447  23062208.8504
  21297530.658    -8118098.240 5  -5013543.32449  21297531.6664
  20034590.627      825812.033 7 -14084213.23849  20034589.8424
  19240588.518    -6069312.166 7 -20608930.77249  19240585.4824
 95  2 19 18 13 29.9940000  0  6 18 14 28 19 22 29
  20483443.439   -10797088.346 6 -14534381.96849  20483442.8074
  19280586.846   -17781050.756 7 -13652999.51649  19280586.0374
  23044797.010    -1325403.338 3   -924152.56547  23044800.9244
  21281149.221    -8204181.105 5  -5080620.85749  21281150.4864
  20041663.979      862982.599 7 -14055249.19649  20041663.1704
  19230337.643    -6123181.065 7 -20650906.54149  19230334.6664
 95  2 19 18 13 59.9940000  0  6 18 14 28 19 22 29
  20465374.221   -10892042.239 6 -14608371.98749  20465373.5294
  19287670.291   -17743827.222 7 -13623994.20149  19287669.3544
  23027413.424    -1416751.566 4   -995332.85548  23027417.9944
  21264814.963    -8290017.530 5  -5147506.34349  21264816.1824
  20048839.307      900689.352 7 -14025867.35149  20048838.7324
  19220143.041    -6176752.056 7 -20692650.17149  19220140.1824
 95  2 19 18 14 29.9940000  0  6 18 14 28 19 22 29
  20447342.346   -10986800.649 6 -14682209.68249  20447341.4324
  19294855.994   -17706065.620 7 -13594569.61449  19294855.2094
  23010056.236    -1507968.985 4  -1066411.21548  23010060.9364
  21248529.729    -8375598.115 5  -5214192.47649  21248530.5024
  20056113.939      938917.293 7 -13996079.38649  20056113.3654
  19210006.971    -6230020.085 7 -20734157.72649  19210003.8654
 95  2 19 18 14 59.9940000  0  6 18 14 28 19 22 29
  20429345.893   -11081373.935 6 -14755903.13549  20429345.1544
  19302143.158   -17667772.018 7 -13564730.48549  19302142.5254
  22992722.541    -1599053.230 4  -1137385.81549  22992727.7324
  21232294.588    -8460914.967 5  -5280673.11549  21232295.9944
  20063486.182      977658.715 7 -13965891.30249  20063485.3614
  19199925.096    -6282999.255 7 -20775440.20149  19199921.9434
 95  2 19 18 15 29.9940000  0  6 18 14 28 19 22 29
  20411380.705   -11175780.928 6 -14829467.00149  20411380.2604
  19309531.650   -17628944.692 7 -13534475.46649  19309531.0294
  22975415.150    -1690005.674 4  -1208257.70348  22975419.7914
  21216110.315    -8545964.616 5  -5346945.53649  21216111.7914
  20070956.885     1016917.396 7 -13935300.15249  20070956.2754
  19189894.557    -6335710.938 7 -20816514.24749  19189891.4634
 95  2 19 18 15 59.9940000  0  6 18 14 28 19 22 29
  20393446.307   -11270025.970 6 -14902904.67149  20393445.5224
  19317025.346   -17589565.663 7 -13503790.54849  19317024.7014
  22958132.494    -1780825.304 4  -1279026.10048  22958137.3694
  21199976.682    -8630745.305 5  -5413008.37649  21199976.7524
  20078529.408     1056710.604 7 -13904292.49149  20078528.7524
  19179914.432    -6388156.717 7 -20857381.09349  19179911.4904
 95  2 19 18 16 29.9940000  0  6 18 14 28 19 22 29
  20375540.799   -11364121.160 6 -14976225.57249  20375540.0144
  19324622.916   -17549639.260 7 -13472679.10749  19324622.5064
  22940875.994    -1871509.280 4  -1349688.79847  22940879.6044
  21183893.697    -8715261.147 5  -5478864.84349  21183894.6354
  20086202.518     1097033.319 7 -13872872.22549  20086201.6504
  19169988.018    -6440319.781 7 -20898027.64049  19169985.1004
 95  2 19 18 16 59.9940000  0  6 18 14 28 19 22 29
  20357660.486   -11458082.688 6 -15049442.32649  20357659.5144
  19332323.088   -17509174.814 7 -13441148.41549  19332322.7134
  22923645.174    -1962059.153 4  -1420246.99547  22923649.8264
  21167856.658    -8799537.003 5  -5544534.30749  21167857.8074
  20093978.361     1137895.027 7 -13841031.97049  20093977.4364
  19160116.174    -6492197.731 7 -20938452.02449  19160113.0574
 95  2 19 18 17 29.9940000  0  6 18 14 28 19 22 29
  20339807.018   -11551903.401 6 -15122549.35549  20339806.2324
  19340126.150   -17468170.434 7 -13409196.99449  19340125.8694
  22906439.111    -2052474.279 3  -1490700.19347  22906442.8734
  21151862.713    -8883587.114 6  -5610027.85649  21151863.2404
  20101856.072     1179292.718 7 -13808774.05649  20101855.2054
  19150300.002    -6543782.393 7 -20978647.87549  19150296.9674
 95  2 19 18 17 59.9940000  0  6 18 14 28 19 22 29
  20321983.432   -11645566.898 6 -15195533.87349  20321982.5884
  19348033.627   -17426617.087 7 -13376817.80549  19348033.1704
  22889260.190    -2142747.426 3  -1561042.77746  22889264.5844
  21135912.799    -8967405.973 5  -5675341.22649  21135913.7604
  20109832.697     1221209.103 7 -13776111.97049  20109831.9474
  19140541.447    -6595063.099 7 -21018606.87449  19140538.5654
 95  2 19 18 18 29.9940000  0  6 18 14 28 19 22 29
  20304187.815   -11739081.489 6 -15268402.36549  20304186.5844
  19356042.057   -17384532.158 7 -13344024.40449  19356041.6584
  22872108.252    -2232883.138 3  -1631278.26149  22872113.4904
  21120004.885    -9050998.670 5  -5740478.34049  21120005.9284
  20117903.994     1263624.977 7 -13743060.67149  20117903.3384
  19130835.986    -6646064.813 7 -21058348.47749  19130833.0924
 95  2 19 18 18 59.9940000  0  6 18 14 28 19 22 29
  20286423.213   -11832435.457 6 -15341145.70049  20286422.4164
  19364150.525   -17341922.122 7 -13310821.82249  19364150.3614
  22854982.650    -2322876.682 3  -1701402.95347  22854984.9944
  21104142.127    -9134358.978 6  -5805434.39549  21104142.4674
  20126071.104     1306544.112 7 -13709617.22349  20126070.4594
  19121179.971    -6696807.492 7 -21097888.23549  19121176.9824
 95  2 19 18 19 29.9940000  0  6 18 14 28 19 22 29
  20268692.846   -11925609.971 6 -15413749.20149  20268691.8854
  19372358.104   -17298790.994 7 -13277213.19949  19372357.7994
  22837885.689    -2412722.203 3  -1771412.30347  22837888.7014
  21088327.260    -9217466.455 5  -5870193.40549  21088328.3974
  20134331.322     1349949.037 7 -13675795.23049  20134330.5964
  19111575.674    -6747280.179 7 -21137217.61149  19111572.7094
 95  2 19 18 19 59.9940000  0  6 18 14 28 19 22 29
  20250994.643   -12018614.903 6 -15486220.56049  20250993.5064
  19380661.705   -17255155.837 7 -13243211.82149  19380661.5414
  22820815.861    -2502423.936 3  -1841309.64946  22820816.2014
  21072560.619    -9300320.938 6  -5934755.30949  21072560.7724
  20142682.932     1393839.501 7 -13641594.90249  20142682.3814
  19102021.900    -6797484.467 7 -21176337.84049  19102018.9004
 95  2 19 18 20 29.9940000  0  6 18 14 28 19 22 29
  20233325.807   -12111463.788 6 -15558570.32349  20233324.8464
  19389058.690   -17211029.029 7 -13208827.34349  19389058.3504
  22803773.666    -2591983.065 3  -1911095.81447  22803778.9864
  21056839.041    -9382936.556 6  -5999131.07249  21056840.1314
  20151129.166     1438223.517 7 -13607009.99149  20151128.6154
  19092520.275    -6847416.737 7 -21215246.11249  19092517.4044
 95  2 19 18 20 59.9940000  0  6 18 14 28 19 22 29
  20215692.369   -12204128.766 6 -15630776.78449  20215691.3384
  19397552.822   -17166393.070 7 -13174046.12449  19397552.1894
  22786761.689    -2681377.963 3  -1980754.02146  22786766.3424
  21041162.190    -9465318.678 6  -6063324.89249  21041163.0574
  20159669.338     1483101.338 7 -13572040.29849  20159668.7294
  19083078.744    -6897031.688 7 -21253907.12249  19083075.7444
 95  2 19 18 21 29.9940000  0  6 18 14 28 19 22 29
  20198092.080   -12296619.043 6 -15702847.10849  20198091.5414
  19406142.322   -17121254.432 7 -13138873.21049  19406141.7954
  22769780.775    -2770616.464 4  -2050290.36447  22769783.0144
  21025527.549    -9547481.943 6  -6127348.18949  21025528.2054
  20168299.861     1528457.300 7 -13536698.02949  20168299.3574
  19073697.900    -6946329.178 7 -21292320.76149  19073694.7364
 95  2 19 18 21 59.9940000  0  6 18 14 28 19 22 29
  20180522.314   -12388948.424 6 -15774792.06549  20180521.2134
  19414827.744   -17075612.376 7 -13103308.01949  19414827.0064
  22752828.041    -2859699.540 3  -2119705.60148  22752830.9474
  21009932.096    -9629434.790 6  -6191207.51449  21009932.9394
  20177022.135     1574292.780 7 -13500982.11849  20177021.5964
  19064374.119    -6995324.912 7 -21330499.26349  19064371.1664
 95  2 19 18 22 29.9940000  0  6 18 14 28 19 22 29
  20162982.596   -12481121.170 6 -15846614.97349  20162981.6114
  19423609.596   -17029466.103 7 -13067349.93949  19423608.8114
  22735904.525    -2948633.056 3  -2189004.30848  22735906.4124
  20994373.510    -9711196.184 6  -6254917.66249  20994374.5884
  20185829.572     1620575.134 7 -13464917.98949  20185828.8464
  19055105.643    -7044031.706 7 -21368452.61849  19055102.7364
 95  2 19 18 22 59.9940000  0  6 18 14 28 19 22 29
  20145475.564   -12573120.085 6 -15918302.43049  20145474.5224
  19432487.244   -16982812.668 7 -13030996.65849  19432486.4824
  22719012.135    -3037401.243 3  -2258174.15048  22719015.5684
  20978856.705    -9792737.256 6  -6318456.13249  20978857.4674
  20194724.307     1667317.244 7 -13428495.61149  20194723.8614
  19045893.588    -7092441.521 7 -21406174.56249  19045890.8344
 95  2 19 18 23 29.9940000  0  6 18 14 28 19 22 29
  20127998.822   -12664961.463 6 -15989867.12649  20127997.7564
  19441460.869   -16935654.317 7 -12994249.93749  19441460.5414
  22702151.494    -3126004.279 4  -2327215.30449  22702156.3464
  20963385.447    -9874038.831 6  -6381807.98349  20963386.6664
  20203710.689     1714540.151 7 -13391698.59449  20203710.2444
  19036734.189    -7140574.528 7 -21443680.81349  19036731.2364
 95  2 19 18 23 59.9940000  0  6 18 14 28 19 22 29
  20110552.010   -12756644.680 6 -16061308.57949  20110550.9554
  19450530.221   -16887994.141 7 -12957112.19349  19450529.9284
  22685323.080    -3214439.333 4  -2396125.61447  22685327.6974
  20947960.299    -9955099.646 6  -6444972.22949  20947961.2834
  20212788.494     1762243.580 7 -13354527.12549  20212787.7564
  19027627.463    -7188430.734 7 -21480971.37049  19027624.5924
 95  2 19 18 24 29.9940000  0  6 18 14 28 19 22 29
  20093139.502   -12848147.821 6 -16132609.71449  20093138.6934
  19459695.510   -16839831.320 7 -12919582.76849  19459695.0884
  22668527.791    -3302696.788 4  -2464897.51048  22668530.8614
  20932582.244   -10035910.688 6  -6507941.85649  20932583.0534
  20221959.502     1810437.997 7 -13316973.08549  20221958.7874
  19018575.939    -7235996.481 7 -21518035.59649  19018572.9514
 95  2 19 18 24 59.9940000  0  6 18 14 28 19 22 29
  20075762.697   -12939463.680 6 -16203764.92049  20075761.7604
  19468952.213   -16791188.721 7 -12881679.49649  19468951.7444
  22651766.315    -3390779.795 4  -2533533.49049  22651770.4044
  20917252.619   -10116468.701 6  -6570714.29949  20917252.5254
  20231225.447     1859131.229 7 -13279030.36049  20231224.8264
  19009577.932    -7283281.100 7 -21554880.76449  19009575.0144
 95  2 19 18 25 29.9940000  0  6 18 14 28 19 22 29
  20058425.190   -13030573.243 6 -16274759.36549  20058424.3934
  19478300.658   -16742061.927 7 -12843398.91449  19478300.2134
  22635038.768    -3478683.885 4  -2602030.02749  22635041.5334
  20901969.299   -10196782.595 6  -6633296.53949  20901969.7684
  20240584.682     1908314.194 7 -13240706.03049  20240583.9084
  19000634.424    -7330279.956 7 -21591503.25949  19000631.5884
 95  2 19 18 25 59.9940000  0  6 18 14 28 19 22 29
  20041128.908   -13121466.148 6 -16345584.99549  20041127.9594
  19487737.518   -16692470.512 7 -12804756.30749  19487736.9324
  22618343.096    -3566415.561 4  -2670392.23549  22618344.2794
  20886731.260   -10276859.145 6  -6695693.81549  20886731.5414
  20250031.111     1957955.690 6 -13202024.39849  20250030.9824
  18991745.315    -7376991.221 7 -21627901.65549  18991742.4324
 95  2 19 18 26 29.9940000  0  6 18 14 28 19 22 29
  20023873.127   -13212146.138 6 -16416244.71049  20023872.1074
  19497261.604   -16642419.805 7 -12765755.80249  19497261.3694
  22601683.111    -3653968.607 5  -2738615.27148  22601685.4674
  20871538.791   -10356695.568 6  -6757903.99349  20871539.5064
  20259565.799     2008059.771 6 -13162982.30849  20259565.6234
  18982912.760    -7423406.427 7 -21664069.35949  18982910.0294
 95  2 19 18 26 59.9940000  0  6 18 14 28 19 22 29
  20006654.541   -13302629.215 6 -16486750.99449  20006653.6744
  19506873.986   -16591909.625 7 -12726397.25849  19506873.7874
  22585056.564    -3741337.074 5  -2806694.48949  22585059.4244
  20856390.697   -10436297.918 6  -6819931.75149  20856391.4124
  20269185.291     2058610.893 7 -13123591.87949  20269184.5764
  18974137.346    -7469521.890 7 -21700003.49449  18974134.4984
 95  2 19 18 27 29.9940000  0  6 18 14 28 19 22 29
  19989469.588   -13392936.964 6 -16557120.65149  19989468.6974
  19516576.893   -16540920.700 6 -12686665.70949  19516576.9754
  22568468.791    -3828509.975 5  -2874621.29448  22568472.5064
  20841287.666   -10515667.416 6  -6881778.08049  20841288.1474
  20278888.463     2109602.667 6 -13083858.03549  20278887.9714
  18965421.221    -7515326.533 7 -21735695.43349  18965418.5024
 95  2 19 18 27 59.9940000  0  6 18 14 28 19 22 29
  19972313.877   -13483091.116 7 -16627370.62349  19972312.7294
  19526371.104   -16489450.462 7 -12646559.06349  19526370.7524
  22551916.916    -3915488.201 5  -2942396.43949  22551920.4324
  20826225.268   -10594819.275 6  -6943454.80749  20826226.5454
  20288674.213     2161025.185 6 -13043788.60949  20288673.6044
  18956764.143    -7560819.685 7 -21771144.65149  18956761.4364
 95  2 19 18 28 29.9940000  0  6 18 14 28 19 22 29
  19955188.361   -13573085.567 7 -16697496.15549  19955187.3424
  19536260.479   -16437483.233 7 -12606065.16549  19536259.9634
  22535405.127    -4002259.031 5  -3010009.96049  22535408.2914
  20811202.018   -10673767.046 6  -7004972.50849  20811202.5924
  20298543.283     2212888.649 6 -13003375.56549  20298543.0374
  18948167.346    -7605995.257 7 -21806346.40749  18948164.5684
 95  2 19 18 28 59.9940000  0  6 18 14 28 19 22 29
  19938095.439   -13662908.743 7 -16767488.22349  19938094.3614
  19546244.307   -16385016.656 6 -12565182.16849  19546244.1074
  22518931.682    -4088827.810 5  -3077466.04149  22518934.7994
  20796215.346   -10752522.005 6  -7066339.97449  20796216.1074
  20308493.768     2265177.727 6 -12962630.87149  20308493.4634
  18939630.150    -7650859.466 7 -21841305.54149  18939627.5024
 95  2 19 18 29 29.9940000  0  6 18 14 28 19 22 29
  19921041.229   -13752531.001 7 -16837323.73349  19921040.1624
  19556323.221   -16332051.371 6 -12523910.56649  19556322.9634
  22502497.924    -4175187.208 5  -3144758.98449  22502501.4164
  20781267.229   -10831074.580 6  -7127549.72049  20781267.9434
  20318529.885     2317916.623 6 -12921535.67449  20318529.3464
  18931154.354    -7695399.836 7 -21876012.33349  18931151.6004
 95  2 19 18 29 59.9940000  0  6 18 14 28 19 22 29
  19904029.565   -13841926.877 7 -16906982.84649  19904028.3574
  19566494.900   -16278600.521 7 -12482260.60849  19566494.8304
  22486104.299    -4261335.955 5  -3211887.76849  22486108.7644
  20766359.979   -10909413.660 6  -7188593.12349  20766361.3264
  20328653.424     2371117.544 6 -12880080.45649  20328653.0254
  18922740.697    -7739614.571 7 -21910465.38249  18922738.1894
 95  2 19 18 30 29.9940000  0  6 18 14 28 19 22 29
  19887064.807   -13931077.974 7 -16976451.21349  19887063.6584
  19576758.010   -16224666.496 6 -12440234.14649  19576757.8694
  22469754.221    -4347257.122 5  -3278839.24349  22469756.8814
  20751499.346   -10987506.124 6  -7249444.36549  20751499.5104
  20338869.877     2424804.112 6 -12838246.81349  20338869.6904
  18914389.971    -7783496.446 7 -21944659.06049  18914387.3114
 95  2 19 18 30 59.9940000  0  6 18 14 28 19 22 29
  19870144.666   -14019993.961 7 -17045736.38549  19870143.4714
  19587111.525   -16170258.575 7 -12397838.40949  19587111.3264
  22453446.689    -4432950.211 5  -3345612.98249  22453449.7134
  20736688.760   -11065336.418 6  -7310091.30549  20736689.5454
  20349176.768     2478967.519 6 -12796041.61049  20349176.2994
  18906101.729    -7827051.745 7 -21978598.26549  18906099.1864
 95  2 19 18 31 29.9940000  0  6 18 14 28 19 22 29
  19853266.283   -14108690.121 7 -17114850.26049  19853265.0294
  19597554.979   -16115378.837 7 -12355075.02649  19597555.1544
  22437184.377    -4518410.705 5  -3412205.48049  22437188.4674
  20721928.213   -11142903.264 6  -7370532.97949  20721928.2484
  20359574.221     2533606.436 6 -12753465.87949  20359573.7054
  18897875.010    -7870283.995 7 -22012285.74449  18897872.2914
 95  2 19 18 31 59.9940000  0  6 18 14 28 19 22 29
  19836426.736   -14197182.378 7 -17183805.25749  19836425.6474
  19608089.314   -16060020.000 6 -12311938.33049  19608089.3854
  22420966.025    -4603637.561 5  -3478615.92549  22420970.7484
  20707217.971   -11220206.618 6  -7430769.32449  20707218.2294
  20370059.393     2588704.906 6 -12710532.06149  20370059.1474
  18889707.283    -7913205.942 7 -22045731.42749  18889704.6004
 95  2 19 18 32 29.9940000  0  6 18 14 28 19 22 29
  19819624.697   -14285478.560 7 -17252607.45749  19819623.4434
  19618715.814   -16004177.285 7 -12268424.57449  19618715.7214
  22404792.447    -4688631.767 5  -3544845.09849  22404796.1394
  20692555.658   -11297256.758 6  -7490808.36949  20692555.8814
  20380628.346     2644244.664 6 -12667254.37749  20380628.0184
  18881597.643    -7955823.672 7 -22078940.06049  18881595.0644
 95  2 19 18 32 59.9940000  0  6 18 14 28 19 22 29
  19802862.002   -14373565.877 7 -17321246.91049  19802860.6904
  19629437.408   -15947837.192 7 -12224523.25749  19629437.0804
  22388664.314    -4773381.170 5  -3610883.51149  22388668.0414
  20677942.299   -11374049.967 6  -7550647.20749  20677942.7564
  20391279.682     2700218.401 6 -12623638.52449  20391278.9904
  18873550.127    -7998112.195 7 -22111892.16849  18873547.5144
 95  2 19 18 33 29.9940000  0  6 18 14 28 19 22 29
  19786136.736   -14461457.423 7 -17389733.81149  19786135.7294
  19640249.463   -15891018.574 7 -12180249.06249  19640249.4044
  22372581.479    -4857897.960 5  -3676740.64949  22372585.0064
  20663374.510   -11450605.013 6  -7610300.45949  20663375.3774
  20402013.463     2756624.113 6 -12579686.07049  20402013.2874
  18865564.338    -8040078.459 7 -22144593.16549  18865561.5844
 95  2 19 18 33 59.9940000  0  7 18 14 28 19 31 22 29
  19769450.861   -14549141.988 7 -17458059.43049  19769449.6784
  19651148.736   -15833742.872 7 -12135618.70149  19651148.5844
  22356543.627    -4942175.023 5  -3742410.99949  22356547.0844
  20648854.314   -11526908.036 6  -7669757.32549  20648854.9944
  22909206.932     -102486.910 3
  20412829.416     2813463.284 6 -12535395.85749  20412829.1584
  18857642.775    -8081707.212 7 -22177031.16849  18857639.9864
 95  2 19 18 34 29.9940000  0  7 18 14 28 19 31 22 29
  19752807.135   -14636607.048 7 -17526214.01149  19752805.9984
  19662131.166   -15776030.190 6 -12090647.83749  19662131.0494
  22340553.502    -5026203.752 4  -3807887.81549  22340558.1314
  20634383.111   -11602954.100 6  -7729013.97449  20634383.2174
  22889022.057     -208562.062 3
  20423728.229     2870736.576 6 -12490767.37949  20423728.0654
  18849789.783    -8122974.678 7 -22209187.64349  18849787.2644
 95  2 19 18 34 59.9940000  0  7 18 14 28 19 31 22 29
  19736204.768   -14723850.897 7 -17594196.21149  19736203.7724
  19673194.916   -15717888.894 6 -12045342.98649  19673194.8814
  22324610.807    -5109982.386 4  -3873169.78549  22324613.9824
  20619959.604   -11678751.607 6  -7788076.94449  20619959.9204
  22868830.283     -314671.116 3    -24803.41255  22868833.9394
  20434709.213     2928440.454 6 -12445803.37649  20434708.8144
  18842007.416    -8163870.919 7 -22241054.86149  18842004.6864
 95  2 19 18 35 29.9940000  0  7 18 14 28 19 31 22 29
  19719647.572   -14810861.101 7 -17661996.35049  19719646.3654
  19684338.049   -15659331.195 6 -11999713.66549  19684338.1314
  22308715.541    -5193514.845 4  -3938259.88449  22308719.0684
  20605581.033   -11754310.091 6  -7846953.65349  20605581.4324
  22848633.057     -420802.096 3   -107502.69445  22848635.9284
  20445772.432     2986578.063 6 -12400501.39849  20445772.3264
  18834293.213    -8204409.906 7 -22272643.69349  18834290.7644
 95  2 19 18 35 59.9940000  0  7 18 14 28 19 31 22 29
  19703138.002   -14897619.252 6 -17729600.07149  19703136.9364
  19695562.190   -15600348.134 6 -11953752.88349  19695562.9044
  22292867.400    -5276793.670 3  -4003152.35448  22292870.5644
  20591250.268   -11829619.254 6  -7905636.07549  20591251.1354
  22828435.947     -526941.122 3   -190208.24242  22828443.0884
  20456914.572     3045130.787 6 -12354875.93949  20456914.0574
  18826648.486    -8244582.552 7 -22303947.05149  18826645.7444
 95  2 19 18 36 29.9940000  0  7 18 14 28 19 31 22 29
  19686676.197   -14984126.084 7 -17797007.99249  19686674.7214
  19706870.721   -15540921.970 6 -11907446.85349  19706870.9904
  22277067.986    -5359822.515 4  -4067850.03049  22277071.5254
  20576962.768   -11904698.704 6  -7964139.53349  20576963.8114
  22808237.572     -633082.860 3   -272916.07142  22808243.3384
  20468133.158     3104083.122 6 -12308939.12249  20468133.1004
  18819072.252    -8284396.868 7 -22334971.21849  18819069.6744
 95  2 19 18 36 59.9940000  0  7 18 14 28 19 31 22 29
  19670266.018   -15070361.168 7 -17864204.14149  19670264.8344
  19718269.549   -15481021.755 6 -11860771.42049  19718269.5614
  22261319.572    -5442581.679 4  -4132337.54448  22261322.6314
  20562721.799   -11979537.697 6  -8022455.60149  20562722.2794
  22788040.643     -739217.043 3   -355617.81145  22788045.3544
  20479430.564     3163452.904 6 -12262677.00549  20479430.5534
  18811566.307    -8323840.526 7 -22365706.54149  18811563.5884
 95  2 19 18 37 29.9940000  0  7 18 14 28 19 31 22 29
  19653908.877   -15156319.569 7 -17931184.69749  19653907.5884
  19729758.768   -15420644.832 6 -11813724.52849  19729758.8384
  22245624.924    -5525054.636 4  -4196602.05349  22245629.0254
  20548530.135   -12054115.061 6  -8080567.81349  20548530.9434
  22767845.815     -845345.043 3   -438314.85445  22767850.0924
  20490811.846     3223260.578 6 -12216073.67449  20490812.0334
  18804131.354    -8362910.900 7 -22396150.99949  18804128.6004
 95  2 19 18 37 59.9940000  0  7 18 14 28 19 31 22 29
  19637597.432   -15242036.806 7 -17997977.33149  19637596.4004
  19741336.916   -15359800.897 6 -11766313.73149  19741337.1504
  22229983.979    -5607249.007 5  -4260649.50549  22229987.7524
  20534384.018   -12128452.483 6  -8138493.05449  20534384.5684
  22747647.979     -951480.207 3   -521017.31446  22747651.0844
  20502271.947     3283484.665 6 -12169145.86549  20502271.8544
  18796765.783    -8401617.064 7 -22426311.65549  18796763.1004
 95  2 19 18 38 29.9940000  0  7 18 14 28 19 31 22 29
  19621330.447   -15327519.497 7 -18064587.20949  19621329.4754
  19753003.041   -15298495.167 6 -11718543.09749  19753003.4984
  22214397.213    -5689159.904 5  -4324476.05249  22214400.8814
  20520280.846   -12202565.281 6  -8196243.25949  20520281.5144
  22727448.229    -1057630.802 3   -603731.95947  22727452.5884
  20513813.549     3344135.690 6 -12121885.37249  20513813.4204
  18789468.689    -8439964.986 7 -22456193.16149  18789466.2294
 95  2 19 18 38 59.9940000  0  7 18 14 28 19 31 22 29
  19605104.604   -15412787.100 7 -18131029.48549  19605103.4904
  19764752.518   -15236751.905 6 -11670431.52149  19764752.9514
  22198860.947    -5770803.209 5  -4388094.09448  22198864.4284
  20506218.377   -12276463.819 6  -8253826.50949  20506218.7294
  22707239.908    -1163823.502 3   -686479.25148  22707244.1974
  20525432.619     3405194.334 6 -12074307.26349  20525432.6664
  18782233.541    -8477984.978 7 -22485819.13749  18782230.9044
 95  2 19 18 39 29.9940000  0  7 18 14 28 19 31 22 29
  19588921.533   -15497828.398 7 -18197295.41749  19588920.3504
  19776587.369   -15174559.556 6 -11621970.00949  19776587.8854
  22183377.729    -5852166.151 5  -4451493.68549  22183379.8734
  20492200.408   -12350128.770 6  -8311227.74649  20492200.9124
  22687026.346    -1270042.827 3   -769247.27747  22687030.6234
  20537128.815     3466658.706 6 -12026412.99449  20537128.8264
  18775061.854    -8515672.111 7 -22515185.74449  18775059.4864
 95  2 19 18 39 59.9940000  0  7 18 14 28 19 31 22 29
  19572784.260   -15582631.679 7 -18263375.88549  19572783.1584
  19788508.479   -15111913.872 6 -11573155.25749  19788509.1704
  22167948.549    -5933246.724 5  -4514673.23948  22167949.8854
  20478226.244   -12423562.204 6  -8368448.57349  20478226.8184
  22666808.666    -1376290.300 3   -852037.31145  22666813.2134
  20548899.885     3528516.119 6 -11978212.46049  20548899.9204
  18767956.033    -8553014.008 7 -22544283.33049  18767953.3854
 95  2 19 18 40 29.9940000  0  7 18 14 28 19 31 22 29
  19556697.565   -15667166.818 7 -18329247.40549  19556696.5104
  19800515.885   -15048814.119 6 -11523986.68449  19800516.4364
  22152575.697    -6014032.739 5  -4577623.30249  22152578.1234
  20464302.275   -12496734.244 6  -8425465.72549  20464303.1434
  22646585.611    -1482560.330 3   -934844.91147  22646589.7134
  20560747.143     3590772.416 6 -11929701.10949  20560746.8504
  18760917.885    -8590000.093 7 -22573103.66749  18760915.2254
 95  2 19 18 40 59.9940000  0  7 18 14 28 19 31 22 29
  19540662.814   -15751431.422 7 -18394908.11849  19540661.7364
  19812606.682   -14985276.950 6 -11474477.25349  19812607.1044
  22137257.955    -6094525.054 5  -4640344.48449  22137261.3544
  20450427.666   -12569645.626 6  -8482279.75649  20450428.5334
  22626361.275    -1588837.345 3  -1017657.94046  22626367.4164
  20572670.486     3653429.827 6 -11880877.21349  20572670.3694
  18753949.611    -8626619.103 7 -22601637.97049  18753947.1394
 95  2 19 18 41 29.9940000  0  7 18 14 28 19 31 22 29
  19524680.330   -15835419.196 7 -18460353.11549  19524678.9594
  19824778.690   -14921313.216 6 -11424635.44349  19824779.4984
  22121998.674    -6174712.221 5  -4702827.87749  22122001.1824
  20436602.471   -12642297.470 6  -8538891.55649  20436602.6584
  22606141.729    -1695099.086 3  -1100459.05046  22606145.9594
  20584673.916     3716508.058 6 -11831725.40149  20584673.8344
  18747057.463    -8662837.369 7 -22629859.99949  18747055.0374
 95  2 19 18 41 59.9940000  0  7 18 14 28 19 31 22 29
  19508750.096   -15919133.746 7 -18525585.21549  19508748.9364
  19837028.518   -14856940.106 6 -11374474.63849  19837029.1154
  22106796.713    -6254598.483 5  -4765076.79749  22106798.8934
  20422822.799   -12714708.650 6  -8595315.81649  20422823.3614
  22585922.877    -1801347.050 3  -1183249.43248  22585927.1664
  20596757.111     3780004.924 6 -11782247.38749  20596757.2174
  18740241.846    -8698652.238 7 -22657767.69849  18740239.2324
 95  2 19 18 42 29.9940000  0  7 18 14 28 19 31 22 29
  19492873.080   -16002566.884 7 -18590598.03049  19492871.8264
  19849357.010   -14792154.464 6 -11323992.38449  19849357.5964
  22091653.650    -6334174.565 5  -4827084.01649  22091655.7954
  20409089.955   -12786874.916 6  -8651549.24049  20409090.3894
  22565708.650    -1907569.110 3  -1266019.62446  22565709.9754
  20608920.893     3843926.106 6 -11732438.73049  20608921.2444
  18733503.510    -8734064.017 7 -22685361.29849  18733500.9794
 95  2 19 18 42 59.9940000  0  7 18 14 28 19 31 22 29
  19477048.189   -16085727.522 7 -18655398.51449  19477046.9944
  19861763.744   -14726957.627 6 -11273189.71449  19861764.5764
  22076570.119    -6413441.031 5  -4888849.97949  22076571.3614
  20395401.619   -12858809.376 6  -8707602.02349  20395402.1004
  22545500.244    -2013769.600 4  -1348773.06048  22545504.2644
  20621163.158     3908260.178 6 -11682308.34649  20621162.9594
  18726841.315    -8769074.408 7 -22712642.13149  18726838.5614
 95  2 19 18 43 29.9940000  0  7 18 14 28 19 31 22 29
  19461274.666   -16168618.072 7 -18719988.53449  19461273.3774
  19874248.908   -14661347.010 6 -11222064.62549  19874249.4004
  22061543.518    -6492406.061 5  -4950381.08149  22061545.8974
  20381758.893   -12930501.094 6  -8763465.66449  20381759.1744
  22525288.705    -2119977.684 3  -1431532.36347  22525293.0764
  20633478.963     3972978.771 6 -11631878.33749  20633478.8224
  18720249.986    -8803711.263 7 -22739631.90049  18720247.4674
 95  2 19 18 43 59.9940000  0  7 18 14 28 19 31 22 29
  19445557.385   -16251212.243 7 -18784347.61449  19445556.0024
  19886818.205   -14595294.436 6 -11170595.14649  19886818.5574
  22046578.111    -6571047.531 5  -5011660.04249  22046581.5684
  20368169.096   -13001916.681 6  -8819114.14049  20368169.7874
  22505078.205    -2226184.040 4  -1514290.38146  22505083.1394
  20645868.533     4038087.917 6 -11581144.00449  20645869.0614
  18713728.752    -8837981.178 7 -22766335.73949  18713726.2564
 95  2 19 18 44 29.9940000  0  7 18 14 28 19 31 22 29
  19429895.057   -16333519.155 7 -18848482.85849  19429893.8034
  19899470.189   -14528808.792 6 -11118788.22349  19899470.8114
  22031674.549    -6649367.552 5  -5072688.51849  22031676.8814
  20354632.713   -13073050.307 6  -8874542.90449  20354633.2174
  22484867.416    -2332389.922 4  -1597047.97247  22484871.9754
  20658331.541     4103579.543 6 -11530111.62949  20658331.7174
  18707275.533    -8871893.105 7 -22792760.62749  18707273.0144
 95  2 19 18 44 59.9940000  0  7 18 14 28 19 31 22 29
  19414286.900   -16415540.808 7 -18912395.81949  19414285.6704
  19912204.565   -14461889.386 6 -11066643.29049  19912204.9044
  22016832.455    -6727362.450 5  -5133463.66049  22016834.7054
  20341149.221   -13143907.404 6  -8929756.19149  20341149.5964
  22464660.635    -2438576.109 4  -1679790.28548  22464665.0764
  20670869.729     4169468.929 6 -11478769.32249  20670870.1624
  18700891.611    -8905440.389 7 -22818901.37849  18700889.1864
 95  2 19 18 45 29.9940000  0  7 18 14 28 19 31 22 29
  19398732.205   -16497280.013 7 -18976088.69949  19398731.0924
  19925020.877   -14394540.225 6 -11014163.49249  19925021.7444
  22002052.416    -6805030.611 5  -5193984.21949  22002055.0294
  20327715.705   -13214501.840 6  -8984764.81749  20327715.7994
  22444461.838    -2544722.983 4  -1762501.94347  22444467.9434
  20683486.010     4235768.330 6 -11427107.52249  20683486.5494
  18694576.752    -8938625.740 7 -22844760.10549  18694574.3034
 95  2 19 18 45 59.9930000  0  7 18 14 28 19 31 22 29
  19383229.606   -16578748.634 7 -19039570.72949  19383228.5174
  19937915.935   -14326775.866 6 -10961360.16849  19937916.6964
  21987335.528    -6882369.631 5  -5254248.28849  21987336.4894
  20314326.192   -13284862.663 6  -9039591.39849  20314326.9544
  22424276.177    -2650797.180 3  -1845156.94446  22424278.6494
  20696179.552     4302472.246 6 -11375130.51949  20696179.9624
  18688333.786    -8971432.309 7 -22870323.68049  18688331.1614
 95  2 19 18 46 29.9930000  0  7 18 14 28 19 31 22 29
  19367773.185   -16659971.357 7 -19102861.14749  19367771.9314
  19950888.099   -14258607.949 6 -10908242.37049  19950888.4854
  21972678.544    -6959394.326 5  -5314267.45649  21972680.0914
  20300974.778   -13355023.600 6  -9094262.21849  20300975.6814
  22404103.169    -2756808.297 3  -1927762.81747  22404108.4544
  20708947.216     4369565.868 6 -11322849.84949  20708947.4974
  18682164.255    -9003854.119 7 -22895587.43649  18682161.9584
 95  2 19 18 46 59.9930000  0  7 18 14 28 19 31 22 29
  19352367.458   -16740929.573 7 -19165945.45949  19352366.0754
  19963938.435   -14190027.926 6 -10854803.45149  19963938.9154
  21958085.310    -7036081.279 5  -5374023.43949  21958086.9274
  20287664.294   -13424971.239 6  -9148766.83649  20287664.6104
  22383943.958    -2862742.436 3  -2010308.66347  22383946.2554
  20721789.622     4437053.717 6 -11270261.97349  20721790.0674
  18676071.185    -9035872.772 7 -22920537.04649  18676068.8414
 95  2 19 18 47 29.9930000  0  7 18 14 28 19 31 22 29
  19337012.333   -16821621.014 7 -19228821.89749  19337011.0794
  19977061.646   -14121064.844 6 -10801066.04849  19977062.2434
  21943554.294    -7112440.898 5  -5433524.37949  21943555.6654
  20274394.864   -13494702.640 6  -9203102.95549  20274395.5214
  22363794.724    -2968624.285 3  -2092813.85046  22363801.4154
  20734699.974     4504897.618 6 -11217396.67149  20734700.2784
  18670051.802    -9067505.205 7 -22945185.70549  18670049.1534
 95  2 19 18 47 59.9930000  0  7 18 14 28 19 31 22 29
  19321708.903   -16902041.825 7 -19291487.45249  19321707.5564
  19990255.372   -14051731.559 6 -10747040.17449  19990255.9584
  21929085.333    -7188475.114 5  -5492771.73049  21929087.3144
  20261167.966   -13564209.861 6  -9257264.38649  20261168.1424
  22343652.591    -3074474.719 3  -2175294.50847  22343657.0794
  20747675.497     4573084.020 6 -11164264.47749  20747675.9784
  18664105.216    -9098754.321 7 -22969535.67349  18664102.6144
 95  2 19 18 48 29.9930000  0  7 18 14 28 19 31 22 29
  19306458.294   -16982183.758 7 -19353935.69749  19306456.8534
  20003518.856   -13982031.357 6 -10692728.38949  20003519.3374
  21914679.356    -7264179.127 5  -5551761.80149  21914680.4704
  20247988.427   -13633469.387 6  -9311232.81349  20247988.5674
  22323511.083    -3180314.021 3  -2257766.48946  22323515.1034
  20760716.396     4641613.979 6 -11110864.56749  20760716.8534
  18658230.146    -9129627.544 7 -22993592.73749  18658227.7904
 95  2 19 18 48 59.9930000  0  7 18 14 28 19 31 22 29
  19291262.903   -17062035.854 7 -19416158.09249  19291261.7204
  20016849.786   -13911978.093 6 -10638141.49349  20016850.4314
  21900335.380    -7339556.518 5  -5610497.36449  21900337.9234
  20234856.700   -13702478.843 6  -9365006.36449  20234857.0054
  22303374.013    -3286138.173 4  -2340226.65846  22303379.5094
  20773821.419     4710479.457 6 -11057203.22449  20773821.6184
  18652424.841    -9160134.721 7 -23017364.57049  18652422.2514
 95  2 19 18 49 29.9930000  0  7 18 14 28 19 31 22 29
  19276124.106   -17141591.496 7 -19478149.48649  19276122.9814
  20030248.614   -13841565.178 6 -10583274.35049  20030249.4464
  21886054.341    -7414603.860 5  -5668975.76549  21886056.0174
  20221772.169   -13771237.884 6  -9418584.80749  20221772.3104
  22283241.794    -3391931.906 4  -2422663.19446  22283245.3924
  20786989.216     4779678.560 6 -11003281.91349  20786989.7314
  18646692.075    -9190261.611 7 -23040840.07449  18646689.5674
 95  2 19 18 49 59.9930000  0  7 18 14 28 19 31 22 29
  19261038.536   -17220865.311 7 -19539921.27849  19261037.2244
  20043721.466   -13770765.787 6 -10528106.05349  20043722.2394
  21871838.567    -7489307.081 5  -5727186.00949  21871841.0404
  20208736.372   -13839740.878 6  -9471963.72049  20208736.8174
  22263119.247    -3497676.996 3  -2505061.74548  22263123.8064
  20800223.122     4849222.214 6 -10949092.12849  20800223.2164
  18641035.653    -9219985.092 7 -23064001.23449  18641033.2284
 95  2 19 18 50 29.9930000  0  7 18 14 28 19 31 22 29
  19246007.114   -17299856.652 7 -19601472.95649  19246005.7204
  20057268.013   -13699579.203 6 -10472636.05549  20057268.9744
  21857688.935    -7563665.179 5  -5785127.30349  21857691.6304
  20195747.614   -13907995.004 6  -9525148.72349  20195747.9314
  22243009.239    -3603356.564 4  -2587409.29849  22243013.6344
  20813520.286     4919100.143 6 -10894641.86149  20813520.5564
  18635458.630    -9249293.897 7 -23086839.27249  18635456.3684
 95  2 19 18 50 59.9930000  0  7 18 14 28 19 31 22 29
  19231030.333   -17378559.635 7 -19662799.94349  19231028.9854
  20070888.294   -13628005.517 6 -10416864.41749  20070888.9974
  21843604.950    -7637675.407 5  -5842797.55349  21843606.6964
  20182802.208   -13976022.711 6  -9578157.28449  20182802.6774
  22222912.263    -3708963.446 4  -2669700.23048  22222917.7714
  20826882.271     4989316.431 6 -10839927.93849  20826882.8804
  18629960.935    -9278183.966 7 -23109351.02149  18629958.4854
 95  2 19 18 51 29.9930000  0  7 18 14 28 19 31 22 29
  19216106.802   -17456983.784 7 -19723909.65249  19216105.5604
  20084580.685   -13556050.503 6 -10360795.63849  20084581.9624
  21829586.896    -7711340.939 5  -5900199.22149  21829589.4624
  20169899.591   -14043827.337 6  -9630992.02949  20169900.0954
  22202826.286    -3814514.706 4  -2751947.80548  22202830.4234
  20840309.286     5059876.177 6 -10784946.39049  20840309.9894
  18624543.200    -9306655.078 7 -23131536.31149  18624540.8924
 95  2 19 18 51 59.9930000  0  7 18 14 28 19 31 22 29
  19201237.911   -17535120.460 7 -19784795.35549  19201236.3174
  20098345.388   -13483716.549 6 -10304431.58449  20098346.4074
  21815634.364    -7784659.749 5  -5957330.71349  21815635.7124
  20157039.325   -14111408.716 6  -9683652.80349  20157039.6534
  22182749.474    -3920019.274 4  -2834159.01548  22182752.9194
  20853804.286     5130791.771 6 -10729687.54549  20853804.4154
  18619202.013    -9334722.828 7 -23153407.29649  18619199.6224
 95  2 19 18 52 29.9930000  0  7 18 14 28 19 31 22 29
  19186429.997   -17612936.025 7 -19845430.84049  19186428.6264
  20112181.794   -13411006.208 6 -10247774.24249  20112183.0364
  21801750.763    -7857620.535 5  -6014183.21849  21801752.0054
  20144221.310   -14178768.228 6  -9736140.70849  20144221.5564
  22162682.880    -4025471.364 5  -2916329.33348  22162688.2124
  20867368.450     5202073.978 6 -10674143.03249  20867368.8964
  18613936.286    -9362393.982 7 -23174969.24449  18613933.9894
 95  2 19 18 52 59.9930000  0  7 18 14 28 19 31 22 29
  19171682.771   -17690433.193 7 -19905818.22549  19171681.5054
  20126087.716   -13337929.390 6 -10190831.33249  20126088.2674
  21787934.169    -7930225.518 5  -6070758.48049  21787935.6694
  20131445.966   -14245902.325 6  -9788452.96749  20131446.3294
  22142624.224    -4130879.727 5  -2998465.56347  22142628.3724
  20881002.880     5273720.899 6 -10618314.31949  20881003.9464
  18608743.856    -9389681.832 7 -23196232.51649  18608741.5484
 95  2 19 18 53 29.9930000  0  7 18 14 28 19 31 22 29
  19156994.692   -17767619.609 7 -19965963.46849  19156993.2044
  20140063.153   -13264488.931 6 -10133605.06649  20140064.5834
  21774186.567    -8002472.091 5  -6127054.45349  21774188.1384
  20118715.239   -14312802.386 6  -9840582.86149  20118715.6384
  22122577.560    -4236222.245 4  -3080550.50748  22122581.1924
  20894703.185     5345716.853 6 -10562213.63149  20894703.5484
  18603624.075    -9416585.614 7 -23217196.50849  18603621.7434
 95  2 19 18 53 59.9930000  0  7 18 14 28 19 31 22 29
  19142365.349   -17844496.650 7 -20025867.64149  19142364.0244
  20154108.481   -13190681.160 6 -10076092.58849  20154109.5834
  21760507.872    -8074352.733 5  -6183065.27549  21760509.4544
  20106026.817   -14379481.197 6  -9892540.34549  20106026.8534
  22102547.958    -4341477.941 4  -3162567.77247  22102553.2904
  20908467.528     5418047.982 6 -10505851.77749  20908468.2204
  18598576.966    -9443108.200 7 -23237863.46549  18598574.6574
 95  2 19 18 54 29.9930000  0  7 18 14 28 19 31 22 29
  19127794.708   -17921065.010 7 -20085531.28049  19127793.4544
  20168222.356   -13116511.614 6 -10018298.20249  20168223.4704
  21746900.786    -8145857.958 5  -6238783.56449  21746903.0244
  20093379.896   -14445940.080 6  -9944326.46649  20093380.2594
  22082538.856    -4446627.449 4  -3244502.32947  22082544.9624
  20922294.755     5490710.260 6 -10449231.88249  20922295.2474
  18593605.310    -9469233.925 7 -23258221.18049  18593602.8604
 95  2 19 18 54 59.9930000  0  7 18 14 28 19 31 22 29
  19113277.192   -17997356.425 7 -20144979.12049  19113276.0564
  20182399.388   -13042011.416 6  -9960246.16849  20182400.5834
  21733361.216    -8217008.106 5  -6294225.17349  21733363.5954
  20080772.341   -14512193.315 6  -9995952.34149  20080772.5054
  22062546.560      -91042.19914  -3326366.09048  22062551.3294
  20936180.521     5563679.852 6 -10392372.52749  20936181.2124
  18588708.896    -9494965.142 7 -23278271.48849  18588706.6694
 95  2 19 18 55 29.9930000  0  7 18 14 28 19 31 22 29
  19098811.981   -18073371.961 7 -20204211.99449  19098810.6344
  20196640.278   -12967175.705 6  -9901932.70049  20196641.2984
  21719891.185    -8287795.210 5  -6349383.88749  21719892.5444
  20068204.052   -14578240.613 6 -10047417.75849  20068203.9114
  22042570.419     -196020.701 4  -3408167.40048  22042575.4354
  20950124.192     5636954.693 6 -10335275.30749  20950124.9894
  18583888.388    -9520297.044 7 -23298010.64249  18583886.1494
 95  2 19 18 55 59.9930000  0  7 18 14 28 19 31 22 29
  19084400.489   -18149103.368 7 -20263223.46449  19084399.1424
  20210942.919   -12892014.803 6  -9843365.82649  20210943.7514
  21706489.755    -8358220.013 5  -6404260.29749  21706491.9814
  20055674.974   -14644080.402 6 -10098721.47349  20055675.0674
  22022603.036     -300949.429 4  -3489929.89147  22022608.0994
  20964124.903     5710530.071 6 -10277943.92049  20964125.7244
  18579144.700    -9545225.074 7 -23317435.09349  18579142.4744
 95  2 19 18 56 29.9930000  0  7 18 14 28 19 31 22 29
  19070045.685   -18224538.838 7 -20322004.33549  19070044.2314
  20225305.747   -12816536.745 6  -9784551.81749  20225306.6964
  21693156.685    -8428283.531 5  -6458855.17049  21693157.5994
  20043188.567   -14709696.687 6 -10149851.02949  20043188.9194
  22002643.536     -405834.829 4  -3571658.62948  22002647.9194
  20978183.021     5784405.798 6 -10220378.48649  20978183.6774
  18574480.482    -9569736.227 7 -23336534.70149  18574478.1264
 95  2 19 18 56 59.9930000  0  7 18 14 28 19 31 22 29
  19055751.677   -18299654.053 7 -20380535.65649  19055750.1774
  20239733.208   -12740720.197 6  -9725474.04949  20239734.2044
  21679896.497    -8497968.340 5  -6513154.96149  21679898.7004
  20030750.130   -14775061.673 6 -10200784.74949  20030750.1424
  21982696.896     -510654.144 4  -3653335.85848  21982700.7514
  20992298.747     5858583.798 6 -10162577.51849  20992299.8024
  18569898.896    -9593813.202 7 -23355295.98849  18569896.4354
 95  2 19 18 57 29.9930000  0  7 18 14 28 19 31 22 29
  19041519.552   -18374445.515 7 -20438814.70449  19041518.2864
  20254226.380   -12664559.173 6  -9666127.85749  20254227.3764
  21666707.739    -8567274.738 5  -6567159.88749  21666709.3454
  20018357.521   -14840185.283 6 -10251530.40049  20018357.5094
  21962765.388     -615395.368 4  -3734952.21948  21962769.3144
  21006470.528     5933056.473 6 -10104546.93749  21006471.6774
  18565398.239    -9617463.652 7 -23373724.92349  18565396.1064
 95  2 19 18 57 59.9930000  0  8 18 14 28 19 31 22 27 29
  19027348.560   -18448913.296 7 -20496841.53149  19027347.2944
  20268781.778   -12588070.769 6  -9606526.57649  20268782.9034
  21653589.669    -8636208.844 5  -6620874.72949  21653590.9934
  20006008.552   -14905077.240 6 -10302095.53849  20006008.5404
  21942852.888     -720032.326 4  -3816487.33347  21942855.6184
  21020697.966     6007821.761 6 -10046288.35449  21020698.7514
  23077202.333      -89676.750 3
  18560977.692    -9640693.804 7 -23391826.35249  18560975.4894
 95  2 19 18 58 29.9930000  0  8 18 14 28 19 31 22 27 29
  19013239.669   -18523055.739 7 -20554614.85149  19013238.3684
  20283401.271   -12511244.576 6  -9546662.07749  20283402.2314
  21640544.653    -8704761.584 5  -6674292.41149  21640545.3564
  19993706.638   -14969725.791 6 -10352471.00049  19993707.1534
  21922966.911     -824534.125 5  -3897917.15248  21922971.1304
  21034983.200     6082890.612 6  -9987793.21349  21034983.8104
  23059567.052     -182352.222 2
  18556635.896    -9663510.177 7 -23409605.35349  18556633.7864
 95  2 19 18 58 59.9930000  0  8 18 14 28 19 31 22 27 29
  18999193.356   -18596869.491 7 -20612132.05049  18999191.9034
  20298085.544   -12434080.237 6  -9486534.07549  20298086.3884
  21627574.099    -8772921.682 5  -6727404.15949  21627574.8724
  19981449.974   -15034135.704 6 -10402660.50949  19981450.1384
  21903108.497     -928891.766 5  -3979234.64948  21903111.6854
  21049326.989     6158265.645 6  -9929059.49249  21049327.8214
  23041954.060     -274911.710 3
  18552371.106    -9685921.990 7 -23427069.11649  18552368.6694
 95  2 19 18 59 29.9930000  0  8 18 14 28 19 31 22 27 29
  18985208.231   -18670361.738 7 -20669398.72449  18985206.7554
  20312829.067   -12356599.978 6  -9426159.90849  20312830.5094
  21614678.239    -8840690.054 5  -6780210.65649  21614679.3174
  19969236.552   -15098317.734 6 -10452672.44949  19969236.4584
  21883273.997    -1033122.531 5  -4060453.28448  21883278.3214
  21063729.153     6233949.351 6  -9870085.25049  21063729.8924
  23024363.310     -367353.973 3    -57615.91656  23024368.0794
  18548182.083    -9707935.700 7 -23444222.66649  18548179.6814
 95  2 19 18 59 59.9930000  0  8 18 14 28 19 31 22 27 29
  18971283.380   -18743537.905 7 -20726419.10449  18971282.1734
  20327628.630   -12278828.450 6  -9365558.78449  20327629.4744
  21601856.560    -8908068.544 5  -6832713.34849  21601859.0324
  19957066.060   -15162274.688 6 -10502509.00549  19957066.2244
  21863460.521    -1137242.873 5  -4141585.87148  21863465.3494
  21078187.216     6309927.558 6  -9810881.51949  21078188.1534
  23006794.567     -459677.634 3   -129556.40346  23006799.5954
  18544066.981    -9729560.764 7 -23461073.37649  18544064.7084
 95  2 19 19  0 29.9930000  0  8 18 14 28 19 31 22 27 29
  18957418.700   -18816396.890 7 -20783192.33549  18957417.4234
  20342484.208   -12200764.352 6  -9304729.68649  20342485.2984
  21589109.935    -8975051.457 5  -6884907.80849  21589112.5244
  19944936.466   -15226014.046 6 -10552176.00049  19944936.3494
  21843665.567    -1241262.296 5  -4222639.82849  21843669.1184
  21092700.825     6386197.149 6  -9751450.74649  21092702.1384
  22989250.192     -551874.961 3   -201398.40346  22989252.8534
  18540026.911    -9750792.082 7 -23477617.27149  18540024.7554
 95  2 19 19  0 59.9930000  0  8 18 14 28 19 31 22 27 29
  18943611.278   -18888955.744 7 -20839731.69049  18943609.9314
  20357390.903   -12122428.677 6  -9243688.96549  20357392.3214
  21576436.810    -9041648.142 5  -6936801.33649  21576439.3644
  19932843.888   -15289560.849 6 -10601692.95649  19932843.8534
  21823887.419    -1345196.990 5  -4303627.76847  21823891.2634
  21107264.755     6462732.059 6  -9691813.22749  21107266.4894
  22971725.716     -643960.206 3   -273153.11546  22971729.7594
  18536063.278    -9771620.486 7 -23493847.20749  18536061.0994
 95  2 19 19  1 29.9930000  0  8 18 14 28 19 31 22 27 29
  18929860.560   -18961217.019 7 -20896039.17649  18929859.2244
  20372350.778   -12043813.992 6  -9182430.84449  20372351.9034
  21563838.458    -9107854.888 5  -6988390.99849  21563839.9584
  19920790.427   -15352902.763 6 -10651050.26349  19920790.2864
  21804126.630    -1449040.124 5  -4384544.39849  21804130.3924
  21121880.302     6539535.410 6  -9631966.54949  21121881.1224
  22954222.028     -735943.114 3   -344828.08646  22954225.3104
  18532178.255    -9792037.150 7 -23509756.30649  18532175.7944
 95  2 19 19  1 59.9930000  0  8 18 14 28 19 31 22 27 29
  18916168.466   -19033168.853 7 -20952105.53149  18916166.9074
  20387368.364   -11964896.570 6  -9120936.81449  20387369.6184
  21551315.356    -9173664.077 5  -7039670.88249  21551316.4354
  19908776.942   -15416034.118 6 -10700243.49349  19908776.8964
  21784388.435    -1552768.462 5  -4465371.57949  21784392.1494
  21136548.021     6616614.769 6  -9571904.77949  21136549.3454
  22936738.106     -827822.446 3   -416422.31046  22936742.1964
  18528372.646    -9812035.641 7 -23525339.55549  18528370.3494
 95  2 19 19  2 29.9930000  0  8 18 14 28 19 31 22 27 29
  18902536.942   -19104802.778 7 -21007924.16649  18902535.4784
  20402444.989   -11885667.761 6  -9059200.15149  20402446.6894
  21538867.528    -9239077.962 5  -7090642.74449  21538868.8994
  19896803.669   -15478953.167 6 -10749271.29649  19896803.7044
  21764671.341    -1656380.072 5  -4546107.78549  21764674.7394
  21151267.474     6693966.155 6  -9511631.04549  21151267.9894
  22919272.435     -919606.344 3   -487942.19945  22919276.2084
  18524647.028    -9831614.257 7 -23540595.63349  18524644.6494
 95  2 19 19  2 59.9930000  0  8 18 14 28 19 31 22 27 29
  18888969.630   -19176101.039 7 -21063481.24649  18888968.1424
  20417582.310   -11806121.915 6  -8997216.44249  20417584.4314
  21526495.817    -9304091.295 5  -7141302.48649  21526496.4504
  19884874.521   -15541641.229 6 -10798119.11349  19884874.5324
  21744976.794    -1759876.585 5  -4626754.32449  21744978.9154
  21166037.388     6771581.790 6  -9451151.41249  21166038.2554
  22901825.411    -1011291.860 3   -559385.39347  22901830.1344
  18521002.341    -9850765.908 7 -23555519.00549  18520999.9744
 95  2 19 19  3 29.9930000  0  8 18 14 28 19 31 22 27 29
  18875469.388   -19247044.273 7 -21118761.68149  18875467.9704
  20432780.505   -11726254.156 6  -8934981.88849  20432781.8994
  21514200.521    -9368703.367 5  -7191649.56449  21514202.9584
  19872988.763   -15604101.414 6 -10846789.36149  19872988.4704
  21725303.224    -1863258.108 5  -4707311.26349  21725306.3644
  21180860.130     6849474.643 6  -9390455.75749  21180861.1144
  22884395.528    -1102886.259 3   -630757.53746  22884400.0524
  18517437.606    -9869500.294 7 -23570117.23949  18517435.5444
 95  2 19 19  3 59.9930000  0  8 18 14 28 19 31 22 27 29
  18862036.419   -19317634.453 7 -21173767.00649  18862035.2244
  20448037.794   -11646076.324 6  -8872505.72649  20448038.9424
  21501980.614    -9432919.692 5  -7241688.25049  21501982.4314
  19861140.997   -15666361.662 6 -10895303.81649  19861140.8104
  21705651.208    -1966534.137 5  -4787786.01049  21705654.0914
  21195731.771     6927626.878 6  -9329557.98349  21195732.7084
  22866981.138    -1194400.366 3   -702067.14246  22866985.8254
  18513951.583    -9887818.867 7 -23584391.46249  18513949.4504
 95  2 19 19  4 29.9930000  0  8 18 14 28 19 31 22 27 29
  18848671.810   -19387866.535 7 -21228493.29649  18848670.2164
  20463353.606   -11565592.250 6  -8809790.93349  20463355.4934
  21489838.606    -9496726.608 5  -7291407.91449  21489840.3414
  19849332.935   -15728414.476 6 -10943656.64349  19849332.7474
  21686018.614    -2069701.616 5  -4868176.21149  21686022.3764
  21210653.872     7006042.751 6  -9268454.77949  21210655.1034
  22849584.380    -1285818.277 3   -773301.75446  22849585.7984
  18510546.966    -9905710.270 7 -23598332.82049  18510544.7744
 95  2 19 19  4 59.9930000  0  8 18 14 28 19 31 22 27 29
  18835374.067   -19457746.444 7 -21282945.16149  18835372.8724
  20478726.685   -11484805.872 6  -8746840.59249  20478728.6304
  21477776.731    -9560114.448 5  -7340801.02749  21477778.0214
  19837563.708   -15790262.409 6 -10991849.81649  19837563.6854
  21666409.849    -2172744.515 5  -4948469.28749  21666414.1384
  21225628.622     7084732.609 6  -9207138.08049  21225629.2554
  22832208.403    -1377128.705 3   -844452.64145  22832211.0994
  18507225.247    -9923165.334 7 -23611934.17649  18507223.2904
 95  2 19 19  5 29.9930000  0  8 18 14 28 19 31 22 27 29
  18822142.466   -19527278.348 7 -21337125.85449  18822140.9784
  20494155.958   -11403724.295 6  -8683660.22549  20494157.9624
  21465796.036    -9623071.001 5  -7389858.06449  21465798.4154
  19825833.177   -15851905.831 6 -11039883.63049  19825833.2124
  21646830.028    -2275637.221 5  -5028645.37049  21646832.6184
  21240657.888     7163713.463 6  -9145594.64149  21240658.7784
  22814855.341    -1468320.416 3   -915511.05846  22814857.6144
  18503986.896    -9940183.620 7 -23625195.18849  18503984.8684
 95  2 19 19  5 59.9930000  0  8 18 14 28 19 31 22 27 29
  18808974.239   -19596479.049 7 -21391048.47249  18808972.6464
  20509635.310   -11322380.375 6  -8620275.43649  20509637.2314
  21453896.724    -9685605.914 6  -7438586.55749  21453898.0134
  19814142.005   -15913343.106 6 -11087756.81949  19814141.8994
  21627279.364    -2378380.136 5  -5108704.69448  21627281.9664
  21255737.825     7242959.112 6  -9083844.85649  21255739.3724
  22797525.052    -1559390.207 3   -986474.44846  22797526.7044
  18500828.700    -9956779.230 7 -23638126.83949  18500826.6144
 95  2 19 19  6 29.9930000  0  8 18 14 28 19 31 22 27 29
  18795872.903   -19665326.559 7 -21444695.87449  18795871.4744
  20525163.677   -11240779.298 6  -8556690.25549  20525165.3414
  21442078.622    -9747707.612 5  -7486977.46449  21442080.3924
  19802496.427   -15974541.206 6 -11135443.62849  19802495.9114
  21607759.786    -2480952.421 5  -5188631.09249  21607765.2124
  21270871.536     7322486.259 6  -9021875.73649  21270873.0484
  22780221.372    -1650318.989 3  -1057327.89447  22780223.3764
  18497752.583    -9972945.827 7 -23650724.19649  18497750.5794
 95  2 19 19  6 59.9930000  0  8 18 14 28 19 31 22 27 29
  18782840.630   -19733811.976 7 -21498061.12349  18782839.1774
  20540739.747   -11158925.328 6  -8492908.03149  20540741.4114
  21430343.231    -9809375.408 5  -7535030.26049  21430344.1464
  19790895.911   -16035502.203 6 -11182945.68949  19790896.3104
  21588274.989    -2583346.775 5  -5268418.85049  21588278.4584
  21286056.903     7402287.178 5  -8959693.29349  21286058.7784
  22762943.294    -1741115.905 3  -1128078.63245  22762946.7514
  18494758.208    -9988681.682 7 -23662985.91149  18494756.0284
 95  2 19 19  7 29.9930000  0  8 18 14 28 19 31 22 27 29
  18769879.442   -19801922.746 7 -21551134.43849  18769878.0244
  20556365.216   -11076814.416 6  -8428925.58449  20556366.9034
  21418692.286    -9870602.829 5  -7582739.91649  21418694.0674
  19779342.646   -16096214.928 6 -11230254.28549  19779342.3764
  21568823.489    -2685564.099 5  -5348068.61949  21568827.9194
  21301294.364     7482359.136 5  -8897299.64549  21301295.8994
  22745691.021    -1831779.527 3  -1198725.56546  22745696.0244
  18491845.982   -10003985.143 7 -23674910.69549  18491843.8494
 95  2 19 19  7 59.9930000  0  8 18 14 28 19 31 22 27 29
  18756991.958   -19869648.040 7 -21603907.38249  18756990.4934
  20572042.224   -10994432.532 6  -8364731.99649  20572044.1694
  21407126.255    -9931382.913 5  -7630100.98749  21407127.9784
  19767837.810   -16156672.609 6 -11277364.15849  19767837.5524
  21549408.099    -2787594.723 5  -5427572.92948  21549411.8144
  21316581.927     7562695.217 5  -8834700.20049  21316583.3214
  22728463.224    -1922312.433 3  -1269270.57046  22728467.0674
  18489017.177   -10018849.702 7 -23686493.48149  18489015.2314
 95  2 19 19  8 29.9930000  0  8 18 14 28 19 31 22 27 29
  18744176.474   -19936992.325 7 -21656383.44449  18744174.9744
  20587774.575   -10911759.069 6  -8300311.19149  20587776.3214
  21395646.567    -9991709.866 5  -7677109.02249  21395648.0324
  19756380.544   -16216882.849 6 -11324281.21049  19756380.5214
  21530026.872    -2889441.117 5  -5506933.66349  21530029.4974
  21331918.771     7643291.149 6  -8771898.25949  21331920.1894
  22711257.458    -2012727.165 3  -1339723.55147  22711261.8534
  18486272.974   -10033271.525 7 -23697731.27849  18486270.7474
 95  2 19 19  8 59.9930000  0  8 18 14 28 19 31 22 27 29
  18731427.286   -20003991.675 7 -21708590.72049  18731425.8104
  20603562.528   -10828790.792 6  -8235660.67149  20603564.1924
  21384251.583   -10051591.445 5  -7723769.91849  21384253.3064
  19744965.091   -16276870.064 7 -11371024.48049  19744965.1264
  21510678.099    -2991117.544 5  -5586161.96749  21510680.8174
  21347301.731     7724127.934 6  -8708908.63149  21347303.3494
  22694071.810    -2103039.599 3  -1410096.84647  22694074.5994
  18483612.114   -10047254.101 7 -23708626.80249  18483609.9464
 95  2 19 19  9 29.9930000  0  8 18 14 28 19 31 22 27 29
  18718742.286   -20070650.187 7 -21760532.40449  18718740.8574
  20619405.646   -10745536.394 6  -8170787.21049  20619407.0054
  21372940.497   -10111030.683 5  -7770086.17449  21372941.8804
  19733591.403   -16336639.449 7 -11417598.00649  19733591.2984
  21491360.247    -3092633.926 5  -5665265.55049  21491363.0954
  21362728.802     7805196.727 6  -8645738.21149  21362730.8294
  22676904.833    -2193249.014 3  -1480389.84746  22676909.5674
  18481034.224   -10060800.632 7 -23719182.55549  18481032.3254
 95  2 19 19  9 59.9930000  0  8 18 14 28 19 31 22 27 29
  18706124.935   -20136955.184 7 -21812198.62649  18706123.4464
  20635304.450   -10661989.423 6  -8105685.76749  20635306.7594
  21361716.310   -10170013.621 5  -7816046.87849  21361717.8104
  19722259.528   -16396189.051 7 -11464000.28149  19722259.3174
  21472076.013    -3193974.008 5  -5744231.76549  21472079.4234
  21378199.153     7886495.678 6  -8582388.45549  21378200.5244
  22659761.349    -2283339.092 3  -1550589.83146  22659766.6814
  18478542.974   -10073892.138 7 -23729383.74149  18478540.8534
 95  2 19 19 10 29.9930000  0  8 18 14 28 19 31 22 27 29
  18693573.075   -20202915.784 7 -21863596.48849  18693571.4354
  20651255.161   -10578165.979 6  -8040368.88349  20651256.9194
  21350578.356   -10228542.886 5  -7861654.05949  21350579.2004
  19710969.083   -16455519.684 6 -11510231.92549  19710968.9894
  21452822.169    -3295150.919 5  -5823070.82549  21452824.6894
  21393713.208     7968021.992 6  -8518861.54649  21393713.9234
  22642638.981    -2373319.752 3  -1620704.56046  22642642.4034
  18476140.919   -10086516.216 7 -23739220.70049  18476138.8334
 95  2 19 19 10 59.9930000  0  8 18 14 28 19 31 22 27 29
  18681089.153   -20268519.071 7 -21914715.92449  18681087.6064
  20667255.974   -10494081.481 6  -7974848.60049  20667257.9894
  21339527.856   -10286614.657 5  -7906904.75549  21339527.9274
  19699720.403   -16514631.970 6 -11556293.42849  19699720.6964
  21433601.575    -3396158.892 5  -5901778.25749  21433604.3414
  21409272.856     8049787.138 5  -8455148.51849  21409274.9194
  22625536.294    -2463193.492 3  -1690735.99046  22625539.2944
  18473829.114   -10098664.016 7 -23748686.53749  18473827.2864
 95  2 19 19 11 29.9930000  0  8 18 14 28 19 31 22 27 29
  18668675.638   -20333752.308 7 -21965547.00749  18668674.0914
  20683299.278   -10409773.156 6  -7909153.90349  20683301.1304
  21328562.396   -10344239.452 5  -7951807.15349  21328563.5324
  19688509.856   -16573542.413 6 -11602197.64849  19688509.6814
  21414410.903    -3497005.660 5  -5980360.06649  21414413.2944
  21424874.942     8131777.431 5  -8391260.07349  21424876.8414
  22608451.833    -2552973.659 3  -1760694.47248  22608451.5174
  18471603.833   -10110357.822 7 -23757798.61049  18471601.9114
 95  2 19 19 11 59.9930000  0  8 18 14 28 19 31 22 27 29
  18656331.825   -20398619.031 7 -22016092.48949  18656330.1854
  20699383.872   -10325249.468 6  -7843291.39149  20699386.4504
  21317682.317   -10401412.770 5  -7996357.77249  21317683.5604
  19677339.114   -16632247.170 7 -11647941.60349  19677338.7634
  21395253.841    -3597674.856 5  -6058803.51249  21395257.1814
  21440521.747     8214000.289 5  -8327190.39249  21440523.4464
  22591384.489    -2642664.801 3  -1830583.56548  22591390.0324
  18469462.653   -10121609.251 7 -23766565.98149  18469460.8724
 95  2 19 19 12 29.9930000  0  8 18 14 28 19 31 22 27 29
  18644060.817   -20463103.363 7 -22066340.00949  18644059.2944
  20715511.153   -10240500.324 6  -7777253.18949  20715512.9114
  21306889.333   -10458129.947 5  -8040552.95349  21306889.5324
  19666208.216   -16690739.673 6 -11693520.16049  19666208.0644
  21376132.880    -3698157.409 5  -6137101.51849  21376135.0364
  21456215.450     8296471.590 5  -8262927.10549  21456216.2244
  22574332.028    -2732271.384 3  -1900406.78846  22574337.3024
  18467404.857   -10132423.013 7 -23774992.30549  18467403.1574
 95  2 19 19 12 59.9930000  0  8 18 14 28 19 31 22 27 29
  18631867.349   -20527181.213 7 -22116270.79149  18631865.8144
  20731681.052   -10155527.925 6  -7711041.02849  20731682.8564
  21296184.802   -10514383.477 5  -8084386.85249  21296186.6654
  19655118.560   -16749016.292 7 -11738930.50149  19655118.7944
  21357050.302    -3798437.358 5  -6215241.64249  21357050.5014
  21471958.560     8379202.524 5  -8198461.50949  21471960.6344
  22557302.231    -2821765.001 3  -1970141.98545  22557304.2004
  18465428.278   -10142809.994 7 -23783086.06949  18465426.3924
 95  2 19 19 13 29.9930000  0  8 18 14 28 19 31 22 27 29
  18619750.591   -20590854.994 7 -22165886.71249  18619749.2434
  20747893.138   -10070332.184 5  -7644654.84749  20747895.4464
  21285567.114   -10570178.792 5  -8127863.70449  21285568.0754
  19644071.552   -16807068.593 6 -11784166.04349  19644071.4114
  21338006.942    -3898507.966 5  -6293218.64649  21338010.2124
  21487746.927     8462169.747 5  -8133811.80249  21487749.0714
  22540294.271    -2911140.294 3  -2039784.99547  22540296.5674
  18463532.271   -10152774.333 7 -23790850.50349  18463530.4894
 95  2 19 19 13 59.9930000  0  8 18 14 28 19 31 22 27 29
  18607708.294   -20654137.842 7 -22215198.00949  18607706.9354
  20764150.942    -9984898.295 6  -7578083.08049  20764152.8764
  21275035.989   -10625520.418 5  -8170987.03849  21275036.8564
  19633068.911   -16864887.309 6 -11829219.57549  19633068.9814
  21319004.036    -3998370.656 5  -6371033.64649  21319007.2944
  21503576.833     8545356.804 5  -8068990.79449  21503579.0834
  22523306.724    -3000413.005 3  -2109348.04147  22523310.9894
  18461716.630   -10162315.637 7 -23798285.29549  18461714.8254
 95  2 19 19 14 29.9930000  0  8 18 14 28 19 31 22 27 29
  18595742.919   -20717016.369 7 -22264194.25549  18595741.3024
  20780457.208    -9899207.826 5  -7511311.39849  20780459.9394
  21264592.317   -10680400.014 5  -8213750.35249  21264593.8644
  19622112.888   -16922461.867 6 -11874082.84549  19622112.7474
  21300041.239    -4098022.694 5  -6448684.53149  21300044.4154
  21519449.122     8628764.576 6  -8003997.78949  21519450.5284
  22506339.856    -3089570.864 3  -2178821.66146  22506341.9784
  18459988.841   -10171395.922 7 -23805360.85349  18459986.9894
 95  2 19 19 14 59.9930000  0  8 18 14 28 19 31 22 27 29
  18583852.107   -20779503.140 7 -22312885.23649  18583850.3144
  20796811.356    -9813266.388 5  -7444344.16049  20796813.7124
  21254239.083   -10734808.963 5  -8256146.91749  21254240.6894
  19611204.138   -16979787.270 7 -11918751.97649  19611204.3374
  21281119.778    -4197452.896 5  -6526162.54149  21281122.3564
  21535361.247     8712384.046 5  -7938839.82449  21535362.9234
  22489397.903    -3178603.435 3  -2248197.59547  22489401.9814
  18458351.521   -10179999.668 7 -23812065.07749  18458349.5524
 95  2 19 19 15 29.9930000  0  8 18 14 28 19 31 22 27 29
  18572032.341   -20841617.030 7 -22361285.66149  18572030.6304
  20813213.271    -9727073.357 5  -7377180.85449  20813215.6494
  21243973.685   -10788753.898 6  -8298181.92849  21243975.1734
  19600338.052   -17036888.845 7 -11963246.69449  19600338.3104
  21262238.841    -4296671.779 5  -6603475.84649  21262240.3174
  21551308.388     8796188.441 5  -7873537.75249  21551310.0754
  22472473.044    -3267542.307 3  -2317500.56948  22472477.4274
  18456804.161   -10188130.731 7 -23818400.97949  18456802.4744
 95  2 19 19 15 59.9930000  0  8 18 14 28 19 31 22 27 29
  18560283.021   -20903359.561 7 -22409396.71549  18560281.5214
  20829661.458    -9640638.045 5  -7309828.78349  20829663.9894
  21233797.966   -10842227.766 6  -8339849.86849  21233798.9154
  19589511.317   -17093784.050 7 -12007580.60749  19589511.3994
  21243398.622    -4395679.891 5  -6680624.95249  21243401.6814
  21567294.231     8880192.406 5  -7808080.17749  21567296.4934
  22455569.130    -3356375.981 3  -2386721.55047  22455571.7204
  18455346.349   -10195791.753 7 -23824370.61949  18455344.7554
 95  2 19 19 16 29.9930000  0  8 18 14 28 19 31 22 27 29
  18548602.489   -20964740.322 7 -22457225.86849  18548600.9074
  20846150.224    -9553991.826 5  -7242312.36549  20846153.0714
  21223710.239   -10895239.382 6  -8381157.61549  21223710.8724
  19578717.966   -17150503.751 7 -12051777.76149  19578717.9314
  21224597.661    -4494478.920 5  -6757611.14149  21224599.9234
  21583314.825     8964380.299 5  -7742479.27849  21583315.8564
  22438685.044    -3445099.517 3  -2455856.71648  22438687.4464
  18453975.458   -10202995.053 7 -23829983.59049  18453973.5834
 95  2 19 19 16 59.9930000  0  8 18 14 28 19 31 22 27 29
  18536989.591   -21025767.261 7 -22504779.31849  18536987.9504
  20862675.817    -9467148.120 5  -7174642.04849  20862679.3334
  21213710.950   -10947785.351 6  -8422102.52949  21213711.7124
  19567955.935   -17207058.634 7 -12095846.48249  19567955.8414
  21205835.810    -4593072.136 5  -6834436.94749  21205838.9394
  21599369.099     9048748.252 5  -7676738.08549  21599371.3024
  22421821.630    -3533718.235 4  -2524910.21249  22421825.3334
  18452687.567   -10209763.415 7 -23835257.64849  18452685.8804
 95  2 19 19 17 29.9930000  0  8 18 14 28 19 31 22 27 29
  18525446.606   -21086426.113 7 -22552045.94549  18525444.9194
  20879238.372    -9380112.266 5  -7106822.03249  20879240.9624
  21203801.021   -10999861.707 5  -8462681.50349  21203802.0404
  19557226.044   -17263443.592 7 -12139782.79349  19557226.0444
  21187112.802    -4691465.449 5  -6911106.97749  21187114.7004
  21615459.153     9133300.951 5  -7610852.94349  21615461.2284
  22404979.763    -3622224.722 4  -2593876.23649  22404982.9034
  18451481.630   -10216101.721 7 -23840196.59849  18451479.7314
 95  2 19 19 17 59.9930000  0  8 18 14 28 19 31 22 27 29
  18513973.591   -21146717.733 7 -22599026.41649  18513971.9854
  20895837.997    -9292881.437 5  -7038850.06549  20895840.8454
  21193982.231   -11051460.107 6  -8502888.04649  21193982.7594
  19546532.794   -17319637.557 7 -12183570.27149  19546532.4314
  21168428.372    -4789649.604 5  -6987614.02949  21168430.5054
  21631584.138     9218039.249 5  -7544823.18049  21631586.3064
  22388161.403    -3710606.127 4  -2662744.77648  22388163.4194
  18450359.396   -10221999.056 7 -23844791.93649  18450357.7204
 95  2 19 19 18 29.9930000  0  8 18 14 28 19 31 22 27 29
  18502572.153   -21206630.858 7 -22645711.96149  18502570.7474
  20912475.950    -9205448.493 5  -6970720.60449  20912478.7394
  21184255.958   -11102573.829 6  -8542716.92049  21184256.7904
  19535878.622   -17375626.419 7 -12227197.93849  19535878.5524
  21149785.216    -4887619.366 5  -7063954.04649  21149787.3254
  21647744.880     9302965.678 5  -7478646.83449  21647747.1304
  22371364.403    -3798871.806 4  -2731523.16849  22371368.3534
  18449323.021   -10227445.773 7 -23849036.14149  18449321.1814
 95  2 19 19 18 59.9930000  0  8 18 14 28 19 31 22 27 29
  18491244.185   -21266160.194 7 -22692098.44649  18491242.3924
  20929152.599    -9117811.803 5  -6902432.41249  20929155.3764
  21174620.841   -11153206.209 6  -8582170.72649  21174622.1654
  19525265.606   -17431397.277 7 -12270655.72349  19525265.3024
  21131181.442    -4985382.299 5  -7140132.89949  21131184.4074
  21663944.231     9388092.223 5  -7412314.54049  21663946.1894
  22354587.341    -3887034.622 3  -2800221.41948  22354590.4234
  18448372.138   -10232442.567 7 -23852929.75249  18448370.5094
 95  2 19 19 19 29.9930000  0  8 18 14 28 19 31 22 27 29
  18479990.669   -21325298.070 7 -22738179.89749  18479989.0054
  20945867.567    -9029974.171 5  -6833987.62449  20945870.4274
  21165076.411   -11203362.346 6  -8621253.42849  21165077.1964
  19514693.661   -17486952.094 7 -12313945.16849  19514693.4394
  21112620.231    -5082920.514 5  -7216136.64149  21112622.8804
  21680181.224     9473415.676 5  -7345828.82949  21680184.1184
  22337829.888    -3975094.175 3  -2868839.19247  22337832.8644
  18447507.364   -10236985.905 7 -23856470.02649  18447505.9234
 95  2 19 19 19 59.9930000  0  8 18 14 28 19 31 22 27 29
  18468814.560   -21384029.199 7 -22783944.40249  18468812.9424
  20962620.044    -8941939.975 5  -6765389.66349  20962624.0874
  21155623.146   -11253039.622 6  -8659963.00149  21155623.7674
  19504163.896   -17542287.949 7 -12357063.99249  19504163.3924
  21094105.692    -5180213.993 5  -7291949.68249  21094108.8684
  21696455.747     9558938.872 5  -7279187.48549  21696458.0094
  22321091.224    -4063058.510 3  -2937382.76949  22321094.2354
  18446731.692   -10241062.583 7 -23859646.67149  18446730.1924
 95  2 19 19 20 29.9930000  0  8 18 14 28 19 31 22 27 29
  18457720.646   -21442328.387 7 -22829372.33249  18457719.0404
  20979406.747    -8853724.833 5  -6696650.71849  20979409.1034
  21146261.317   -11302234.909 6  -8698296.97749  21146261.7394
  19493675.700   -17597402.763 7 -12400010.58349  19493675.2204
  21075640.560    -5277250.757 5  -7367562.68949  21075643.8174
  21712770.599     9644674.206 5  -7212380.82649  21712771.8764
  22304371.208    -4150921.233 4  -3005847.17449  22304374.5834
  18446045.294   -10244669.450 7 -23862457.23149  18446043.6534
 95  2 19 19 20 59.9930000  0  8 18 14 28 19 31 22 27 29
  18446708.653   -21500197.233 7 -22874464.93249  18446707.0244
  20996228.810    -8765326.084 5  -6627768.68849  20996231.5404
  21136992.067   -11350946.699 6  -8736254.21949  21136992.5364
  19483229.966   -17652295.742 7 -12442784.30849  19483229.5444
  21057225.317    -5374023.904 5  -7442970.28349  21057228.6694
  21729123.638     9730607.381 5  -7145419.99749  21729125.3494
  22287670.286    -4238686.237 4  -3074235.42049  22287673.4744
  18445448.153   -10247807.329 7 -23864902.35149  18445446.6184
 95  2 19 19 21 29.9930000  0  8 18 14 28 19 31 22 27 29
  18435778.521   -21557634.689 7 -22919221.38649  18435776.6924
  21013084.997    -8676747.566 5  -6558746.57949  21013086.8604
  21127815.325   -11399170.573 6  -8773831.25749  21127815.4194
  19472824.224   -17706978.409 7 -12485394.16149  19472823.9194
  21038861.497    -5470527.646 5  -7518167.96649  21038864.1344
  21745509.044     9816712.229 5  -7078325.39249  21745510.6494
  22270987.974    -4326351.668 4  -3142546.11248  22270990.4114
  18444939.856   -10250478.480 7 -23866983.78749  18444938.5914
 95  2 19 19 21 59.9930000  0  8 18 14 28 19 31 22 27 29
  18424930.224   -21614642.824 7 -22963643.30349  18424928.5954
  21029973.810    -8587995.749 5  -6489589.44149  21029975.9784
  21118731.169   -11446908.518 6  -8811029.64749  21118732.8804
  19462457.442   -17761455.435 7 -12527843.77449  19462457.3254
  21020544.271    -5566783.748 5  -7593172.65149  21020545.9934
  21761922.247     9902965.958 5  -7011114.77849  21761924.0644
  22254322.216    -4413930.445 3  -3210789.27448  22254324.1144
  18444517.638   -10252698.081 7 -23868713.36949  18444516.1854
 95  2 19 19 22 29.9930000  0  8 18 14 28 19 31 22 27 29
  18414159.755   -21671241.879 7 -23007746.44549  18414157.9154
  21046897.552    -8499061.970 5  -6420290.52949  21046900.0714
  21109739.356   -11494160.500 6  -8847849.35149  21109739.9314
  19452127.192   -17815741.310 7 -12570144.43949  19452126.8644
  21002271.153    -5662809.195 5  -7667997.63149  21002272.6654
  21778361.896     9989354.395 6  -6943799.18949  21778363.8294
  22237671.864    -4501429.245 3  -3278970.11548  22237673.8564
  18444177.474   -10254485.152 7 -23870105.91349  18444176.0444
 95  2 19 19 22 59.9930000  0  8 18 14 28 19 31 22 27 29
  18403463.528   -21727450.437 6 -23051545.28249  18403461.9934
  21063856.278    -8409946.153 5  -6350849.71548  21063859.3144
  21100838.442   -11540934.476 5  -8884296.56349  21100839.4394
  19441830.192   -17869851.770 6 -12612308.39049  19441830.1924
  20984037.325    -5758627.483 5  -7742661.16249  20984039.4354
  21794823.013    10075855.802 5  -6876395.52848  21794825.3104
  22221036.349    -4588850.463 3  -3347090.49946  22221041.1304
  18443916.872   -10255853.780 6 -23871172.36149  18443915.5134
 95  2 19 19 23 29.9930000  0  8 18 14 28 19 31 22 27 29
  18392843.583   -21783258.957 6 -23095032.43349  18392842.2944
  21080845.716    -8320665.723 5  -6281280.64849  21080849.5954
  21092028.622   -11587229.694 5  -8920370.75549  21092029.4544
  19431565.099   -17923795.597 6 -12654342.52849  19431565.5444
  20965843.536    -5854237.828 5  -7817162.67448  20965844.6494
  21811302.896    10162462.748 5  -6808909.69348  21811305.2984
  22204416.700    -4676187.191 3  -3415144.99346  22204420.5214
  18443736.630   -10256800.645 6 -23871910.19949  18443735.6104
 95  2 19 19 23 59.9930000  0  8 18 14 28 19 31 22 27 29
  18382298.966   -21838670.862 6 -23138210.53649  18382298.0404
  21097865.138    -8231226.288 5  -6211587.71949  21097870.0834
  21083311.692   -11633037.023 5  -8956064.77249  21083314.5174
  19421334.067   -17977560.189 6 -12696237.01049  19421333.8804
  20947689.794    -5949636.627 5  -7891499.39949  20947692.0444
  21827808.911    10249203.109 5  -6741319.85147  21827813.1064
  22187813.935    -4763434.890 3  -3483130.19245  22187817.2044
  18443639.357   -10257312.006 6 -23872308.67949  18443638.3964
 95  2 19 19 24 29.9930000  0  8 18 14 28 19 31 22 27 29
  18371831.403   -21893679.008 7 -23181074.05749  18371829.7164
  21114915.614    -8141627.831 5  -6141770.91549  21114918.5444
  21074689.997   -11678345.857 6  -8991370.39249  21074690.8534
  19411138.974   -18031135.277 7 -12737983.86249  19411138.8214
  20929580.396    -6044800.717 5  -7965653.18549  20929582.6924
  21844345.450    10336101.808 5  -6673606.68649  21844346.3534
  22171230.919    -4850578.025 4  -3551033.92148  22171234.8454
  18443630.950   -10257357.826 7 -23872344.43549  18443629.4744
 95  2 19 19 24 59.9930000  0  8 18 14 28 19 31 22 27 29
  18361443.067   -21948269.744 7 -23223612.28449  18361441.2984
  21131993.841    -8051880.102 5  -6071837.72149  21131997.0524
  21066164.075   -11723150.561 6  -9026283.11849  21066164.9664
  19400982.981   -18084505.400 7 -12779570.95449  19400982.7824
  20911520.896    -6139703.108 5  -8039603.06649  20911522.1264
  21860914.333    10423170.330 5  -6605761.16949  21860916.0324
  22154668.708    -4937611.965 4  -3618852.54747  22154671.3564
  18443715.263   -10256912.240 7 -23871997.23649  18443713.4934
 95  2 19 19 25 29.9930000  0  8 18 14 28 19 31 22 27 29
  18351133.724   -22002446.170 7 -23265827.67749  18351131.7084
  21149097.919    -7961998.679 5  -6001800.38149  21149100.9314
  21057732.497   -11767457.523 6  -9060808.01749  21057733.2244
  19390863.739   -18137682.684 7 -12821007.79149  19390863.3884
  20893512.161    -6234339.100 5  -8113345.35349  20893514.1184
  21877514.935    10510407.325 5  -6537784.35349  21877516.7284
  22138121.911    -5024568.482 4  -3686610.82347  22138124.9354
  18443891.677   -10255987.599 7 -23871276.75649  18443889.9664
 95  2 19 19 25 59.9930000  0  8 18 14 28 19 31 22 27 29
  18340904.263   -22056201.023 7 -23307714.57149  18340902.6694
  21166229.700    -7871970.808 5  -5931648.92149  21166232.9814
  21049398.388   -11811254.629 6  -9094935.62549  21049399.6774
  19380784.661   -18190648.929 7 -12862280.18949  19380784.2514
  20875555.560    -6328703.307 5  -8186875.85349  20875557.3294
  21894150.716    10597828.692 5  -6469663.90348  21894152.9194
  22121590.646    -5111441.522 4  -3754304.08349  22121590.5524
  18444158.778   -10254582.725 7 -23870182.07049  18444157.1964
 95  2 19 19 26 29.9930000  0  8 18 14 28 19 31 22 27 29
  18330756.591   -22109528.755 7 -23349268.64249  18330754.8214
  21183388.950    -7781798.873 5  -5861385.21749  21183392.4194
  21041158.896   -11854552.813 6  -9128674.44849  21041160.4544
  19370741.950   -18243423.036 7 -12903402.86249  19370741.6574
  20857651.013    -6422791.202 5  -8260191.06649  20857652.6774
  21910815.974    10685401.800 5  -6401425.19949  21910818.6924
  22105072.614    -5198243.159 3  -3821941.63547  22105075.8254
  18444513.153   -10252720.809 7 -23868731.24349  18444511.8534
 95  2 19 19 26 59.9930000  0  8 18 14 28 19 31 22 27 29
  18320689.653   -22162430.693 6 -23390490.88849  18320688.1654
  21200573.981    -7691492.378 4  -5791016.61247  21200578.2004
  21033014.442   -11897352.204 5  -9162024.53749  21033016.0014
  19360733.997   -18296013.617 6 -12944382.48549  19360734.6184
  20839798.341    -6516609.355 5  -8333296.03049  20839802.3964
  21927506.044    10773112.090 4  -6333079.52747  21927509.6304
  22088567.903    -5284971.287 3  -3889521.95945  22088574.1034
  18444949.864   -10250426.762 6 -23866943.64449  18444948.5054
 95  2 19 19 27 29.9930000  0  8 18 14 28 19 31 22 27 29
  18310702.981   -22214911.000 7 -23431384.65349  18310701.7514
  21217782.396    -7601059.550 5  -5720549.59249  21217784.5524
  21024965.255   -11939649.358 5  -9194983.36249  21024966.9194
  19350760.060   -18348427.837 6 -12985224.69349  19350760.8804
  20821995.567    -6610161.070 5  -8406193.41749  20821998.3214
  21944221.599    10860955.454 4  -6264630.25149  21944223.2164
  22072080.099    -5371617.065 3  -3957038.04046  22072083.3454
  18445465.177   -10247718.775 6 -23864833.54249  18445464.0754
 95  2 19 19 27 59.9930000  0  8 18 14 28 19 31 22 27 29
  18300795.521   -22266974.806 7 -23471953.82649  18300793.9154
  21235013.942    -7510509.495 5  -5649991.23049  21235016.6614
  21017013.005   -11981439.188 5  -9227546.82749  21017013.8724
  19340822.239   -18400652.848 6 -13025919.52949  19340822.4154
  20804246.442    -6703434.200 5  -8478873.73249  20804249.5604
  21960964.403    10948935.308 5  -6196074.60749  21960966.6534
  22055612.411    -5458158.629 3  -4024472.98947  22055615.1894
  18446063.833   -10244573.407 6 -23862382.62149  18446062.5914
 95  2 19 19 28 29.9930000  0  8 18 14 28 19 31 22 27 29
  18290965.864   -22318629.753 7 -23512204.43349  18290964.5644
  21252266.442    -7419847.468 5  -5579345.65349  21252269.2314
  21009156.833   -12022722.625 5  -9259715.70949  21009158.4274
  19330918.380   -18452697.776 6 -13066474.00949  19330918.4744
  20786552.942    -6796414.446 5  -8551325.83249  20786555.7784
  21977732.646    11037054.011 5  -6127410.79849  21977735.2824
  22039162.653    -5544596.816 3  -4091827.34948  22039166.1694
  18446748.083   -10240977.286 7 -23859580.46649  18446747.1574
 95  2 19 19 28 59.9930000  0  8 18 14 28 19 31 22 27 29
  18281212.771   -22369883.519 7 -23552142.42849  18281211.2474
  21269538.747    -7329081.619 5  -5508619.12149  21269542.4854
  21001398.810   -12063492.178 5  -9291484.16649  21001400.6614
  19321051.271   -18504549.818 6 -13106878.18649  19321051.1304
  20768915.224    -6889100.306 5  -8623548.53749  20768918.2474
  21994529.138    11125317.462 5  -6058634.16549  21994530.7674
  22022736.638    -5630918.152 3  -4159090.68247  22022740.0484
  18447521.372   -10236913.241 7 -23856413.69049  18447520.0604
 95  2 19 19 29 29.9930000  0  8 18 14 28 19 31 22 27 29
  18271532.903   -22420752.437 7 -23591780.54749  18271531.5564
  21286830.763    -7238211.469 5  -5437811.35849  21286834.9704
  20993735.989   -12103760.345 5  -9322861.91549  20993737.3604
  19311219.122   -18556216.453 6 -13147137.89349  19311219.4394
  20751332.388    -6981497.991 5  -8695546.68349  20751334.1814
  22011349.185    11213705.697 5  -5989760.31849  22011352.4894
  22006325.989    -5717155.215 3  -4226288.35147  22006329.7394
  18448385.653   -10232371.224 7 -23852874.47449  18448384.4584
 95  2 19 19 29 59.9920000  0  8 18 14 28 19 31 22 27 29
  18261928.531   -22471221.954 7 -23631107.44249  18261927.2424
  21304146.266    -7147220.273 5  -5366909.24149  21304149.4884
  20986169.938   -12143521.468 5  -9353844.56749  20986171.6844
  19301425.188   -18607685.164 6 -13187243.36849  19301425.4454
  20733806.930    -7073595.842 5  -8767311.20549  20733809.0044
  22028190.016    11302205.801 5  -5920799.29549  22028193.3324
  21989931.586    -5803310.328 3  -4293422.16146  21989933.0044
  18449343.531   -10227339.764 7 -23848953.87549  18449342.2314
 95  2 19 19 30 29.9920000  0  8 18 14 28 19 31 22 27 29
  18252402.508   -22521281.688 7 -23670115.03049  18252401.0204
  21321490.453    -7056076.105 5  -5295887.95649  21321494.7194
  20978701.078   -12182769.255 5  -9384427.22949  20978703.3754
  19291666.992   -18658964.703 6 -13227201.43949  19291666.6524
  20716338.680    -7165392.881 5  -8838841.31249  20716341.1414
  22045051.484    11390811.154 5  -5851756.26149  22045054.2504
  21973551.781    -5889386.208 3  -4360494.20946  21973556.3754
  18450392.406   -10221826.261 7 -23844657.65249  18450391.1174
 95  2 19 19 30 59.9920000  0  8 18 14 28 19 31 22 27 29
  18242954.594   -22570931.183 7 -23708802.94749  18242953.1764
  21338861.555    -6964790.320 5  -5224756.26048  21338866.9104
  20971328.875   -12221510.961 5  -9414615.51849  20971330.0824
  19281943.578   -18710061.025 6 -13267016.74649  19281943.3794
  20698925.469    -7256897.320 5  -8910143.43649  20698928.7744
  22061926.664    11479493.061 5  -5782653.56649  22061930.0274
  21957184.914    -5975395.087 3  -4427514.09148  21957184.8324
  18451531.234   -10215842.244 6 -23839994.80349  18451530.2034
 95  2 19 19 31 29.9920000  0  8 18 14 28 19 31 22 27 29
  18233590.297   -22620140.092 6 -23747147.55249  18233588.9024
  21356263.031    -6873344.519 5  -5153499.91647  21356267.8134
  20964054.406   -12259736.757 5  -9444401.81949  20964055.5784
  19272257.180   -18760963.516 6 -13306681.02649  19272256.8634
  20681570.453    -7348099.752 5  -8981210.21849  20681572.9964
  22078819.164    11568262.856 5  -5713482.39649  22078822.7854
  21940829.664    -6061340.405 3  -4494484.46846  21940830.2974
  18452759.383   -10209388.040 6 -23834965.57449  18452758.1644
 95  2 19 19 31 59.9920000  0  8 18 14 28 19 31 22 27 29
  18224310.906   -22668904.319 7 -23785145.69649  18224308.9384
  21373691.899    -6781757.387 5  -5082133.51049  21373695.9654
  20956878.789   -12297446.797 6  -9473786.28749  20956879.4814
  19262607.438   -18811673.310 7 -13346195.18949  19262607.0514
  20664272.469    -7438999.692 5  -9052041.32949  20664274.4844
  22095728.602    11657122.603 5  -5644241.19449  22095730.5124
  21924492.242      -60086.48615  -4561385.26949  21924494.0234
  18454073.047   -10202484.922 7 -23829586.58949  18454071.2424
 95  2 19 19 32 29.9920000  0  8 18 14 28 19 31 22 27 29
  18215118.523   -22717209.862 7 -23822786.37449  18215116.5904
  21391145.766    -6690034.029 5  -5010660.88949  21391149.9964
  20949803.656   -12334626.837 6  -9502757.72449  20949804.1844
  19252995.242   -18862184.739 7 -13385554.73749  19252995.2774
  20647034.484    -7529589.863 6  -9122631.01849  20647036.0554
  22112660.836    11746103.826 5  -5574905.25449  22112664.3054
  21908175.211     -145832.746 5  -4628200.51248  21908176.8524
  18455475.781   -10195113.503 7 -23823842.64549  18455474.1174
 95  2 19 19 32 59.9920000  0  8 18 14 28 19 31 22 27 29
  18206014.664   -22765051.599 7 -23860065.64849  18206012.8134
  21408622.367    -6598194.796 5  -4939097.97849  21408626.3634
  20942829.625   -12371277.046 6  -9531316.29649  20942830.3874
  19243423.086   -18912487.246 7 -13424751.49149  19243422.7114
  20629852.039    -7619877.961 5  -9192985.31949  20629854.4184
  22129620.524    11835224.356 5  -5505460.78049  22129622.8914
  21891877.547     -231477.436 5  -4694936.59949  21891879.0474
  18456967.773   -10187273.731 7 -23817733.75349  18456966.0044
 95  2 19 19 33 29.9920000  0  8 18 14 28 19 31 22 27 29
  18196996.805   -22812441.656 7 -23896992.96249  18196994.8594
  21426119.648    -6506248.543 5  -4867451.68849  21426122.4964
  20935955.961   -12407396.211 6  -9559461.06849  20935957.2854
  19233889.617   -18962585.935 7 -13463789.42949  19233889.0784
  20612727.609    -7709868.206 5  -9263107.53049  20612729.7664
  22146609.703    11924504.178 5  -5435892.17649  22146612.9264
  21875601.742     -317008.175 5  -4761583.87849  21875603.2424
  18458546.164   -10178979.125 7 -23811270.44549  18458544.2664
 95  2 19 19 33 59.9920000  0  8 18 14 28 19 31 22 27 29
  18188062.086   -22859393.932 7 -23933579.14549  18188060.2464
  21443634.000    -6414209.754 5  -4795733.27549  21443637.4574
  20929184.070   -12442983.247 6  -9587191.19349  20929185.6294
  19224393.258   -19012490.237 7 -13502675.90149  19224392.4964
  20595661.031    -7799554.880 6  -9332993.18149  20595663.2234
  22163630.492    12013948.629 5  -5366195.29749  22163633.5984
  21859347.508     -402421.531 5  -4828139.68349  21859347.7774
  18460214.774   -10170210.875 7 -23804438.06149  18460212.9814
 95  2 19 19 34 29.9920000  0  8 18 14 28 19 31 22 27 29
  18179211.414   -22905904.127 7 -23969820.85349  18179209.5164
  21461166.883    -6322075.666 5  -4723940.62449  21461170.3634
  20922513.227   -12478037.643 6  -9614506.27549  20922514.4344
  19214931.664   -19062210.620 7 -13541419.05849  19214931.1254
  20578652.633    -7888934.545 6  -9402639.60649  20578654.5664
  22180681.828    12103553.700 5  -5296373.29749  22180684.7814
  21843110.484     -487744.799 5  -4894625.29349  21843114.0704
  18461974.320   -10160964.423 7 -23797233.05549  18461972.5394
 95  2 19 19 34 59.9920000  0  8 18 14 28 19 31 22 27 29
  18170446.797   -22951962.996 7 -24005710.88149  18170445.0634
  21478719.258    -6229836.246 5  -4652065.91049  21478724.6954
  20915945.414   -12512551.112 6  -9641399.84749  20915946.6804
  19205506.789   -19111737.891 7 -13580011.73249  19205506.7664
  20561705.695    -7977992.772 6  -9472035.54649  20561707.8754
  22197759.492    12193294.424 5  -5226445.54549  22197761.6254
  21826893.555     -572967.944 5  -4961032.89149  21826895.7934
  18463823.000   -10151249.293 7 -23789662.84549  18463821.5124
 95  2 19 19 35 29.9920000  0  8 18 14 28 19 31 22 27 29
  18161768.930   -22997565.624 7 -24041245.39549  18161767.0554
  21496292.273    -6137490.937 5  -4580108.66249  21496295.5434
  20909480.805   -12546523.357 6  -9667871.68349  20909481.7894
  19196116.727   -19161083.511 7 -13618462.86349  19196116.5744
  20544821.711    -8066718.345 6  -9541172.27949  20544823.3164
  22214856.344    12283139.873 5  -5156436.19949  22214858.8984
  21810694.359     -658094.712 5  -5027365.37349  21810695.9534
  18465761.938   -10141060.420 7 -23781723.48349  18465760.0164
 95  2 19 19 35 59.9920000  0  8 18 14 28 19 31 22 27 29
  18153181.578   -23042693.329 7 -24076409.83949  18153179.7974
  21513885.742    -6045037.875 5  -4508067.45749  21513890.6174
  20903119.594   -12579950.066 6  -9693918.41849  20903120.6484
  19186761.508   -19210246.915 7 -13656772.00649  19186761.0514
  20528003.695    -8155095.049 6  -9610037.16749  20528005.0784
  22231967.000    12373060.413 5  -5086368.30548  22231970.2114
  21794509.961     -743144.378 5  -5093637.79149  21794512.5394
  18467793.289   -10130384.528 7 -23773404.62849  18467791.5664
 95  2 19 19 36 29.9920000  0  8 18 14 28 19 31 22 27 29
  18144682.914   -23087352.345 7 -24111209.07449  18144681.0984
  21531498.711    -5952479.831 5  -4435944.45049  21531503.1064
  20896862.336   -12612834.150 6  -9719542.34849  20896862.9694
  19177440.664   -19259228.885 7 -13694939.76849  19177439.9494
  20511252.555    -8243124.146 6  -9678631.20349  20511254.2774
  22249089.359    12463035.704 5  -5016257.79749  22249093.7544
  21778340.422     -828116.922 5  -5159850.10149  21778341.1604
  18469914.813   -10119237.157 7 -23764718.38749  18469913.1134
 95  2 19 19 36 59.9920000  0  8 18 14 28 19 31 22 27 29
  18136275.211   -23131535.554 7 -24145637.54649  18136273.4534
  21549131.297    -5859820.913 5  -4363742.83349  21549135.9264
  20890710.070   -12645163.245 6  -9744733.80849  20890711.0204
  19168159.969   -19307998.133 7 -13732941.77749  19168159.3714
  20494570.484    -8330787.431 6  -9746940.17849  20494571.7154
  22266224.477    12553081.166 5  -4946092.59347  22266229.0354
  21762188.000     -912996.303 4  -5225989.83249  21762189.7934
  18472129.063   -10107600.910 7 -23755651.20249  18472127.3754
 95  2 19 19 37 29.9920000  0  8 18 14 28 19 31 22 27 29
  18127958.750   -23175240.095 7 -24179693.03349  18127957.0394
  21566779.992    -5767075.652 5  -4291473.92349  21566784.4574
  20884664.328   -12676934.016 6  -9769490.21049  20884665.0434
  19158922.031   -19356544.727 7 -13770770.29049  19158921.5864
  20477959.758    -8418078.370 6  -9814959.01449  20477962.5944
  22283377.891    12643224.433 4  -4875851.18248  22283381.2894
  21746051.563     -997793.686 4  -5292065.69849  21746053.0514
  18474439.805   -10095458.461 7 -23746189.57649  18474438.2814
 95  2 19 19 37 59.9920000  0  8 18 14 28 19 31 22 27 29
  18119733.945   -23218460.716 7 -24213371.44249  18119732.1524
  21584446.492    -5674241.403 5  -4219135.67349  21584450.8634
  20878725.609   -12708141.771 6  -9793807.90449  20878726.6884
  19149730.461   -19404846.269 7 -13808407.84849  19149729.9924
  20461419.297    -8504996.604 6  -9882687.43649  20461420.9964
  22300555.102    12733487.349 4  -4805516.51349  22300556.9774
  21729934.789    -1082489.061 4  -5358062.06648  21729936.3714
  18476845.539   -10082815.624 7 -23736338.03749  18476844.2154
 95  2 19 19 38 29.9920000  0  8 18 14 28 19 31 22 27 29
  18111600.578   -23261202.648 7 -24246676.84349  18111598.5274
  21602125.891    -5581335.998 5  -4146741.99949  21602131.5744
  20872892.633   -12738794.650 6  -9817693.22749  20872893.5354
  19140587.180   -19452894.964 7 -13845848.38349  19140586.5354
  20444947.313    -8591559.076 6  -9950138.63749  20444948.8014
  22317755.625    12823879.429 4  -4735081.22448  22317758.2274
  21713839.539    -1167070.256 4  -5423969.43349  21713841.9774
  18479343.945   -10069686.255 7 -23726107.38649  18479342.5744
 95  2 19 19 38 59.9920000  0  8 18 14 28 19 31 22 27 29
  18103560.156   -23303453.653 7 -24279599.71149  18103558.3984
  21619814.758    -5488378.022 5  -4074307.36247  21619819.7504
  20867164.164   -12768898.766 6  -9841150.94349  20867164.8324
  19131488.734   -19500706.307 7 -13883103.97149  19131488.3484
  20428540.602    -8677777.083 6 -10017321.43449  20428542.2544
  22334979.000    12914389.984 4  -4664553.61248  22334983.6064
  21697764.492    -1251543.882 4  -5489793.02849  21697767.0124
  18481934.109   -10056075.943 7 -23715501.97649  18481932.7384
 95  2 19 19 39 29.9920000  0  8 18 14 28 19 31 22 27 29
  18095615.273   -23345204.653 7 -24312132.96049  18095613.4104
  21637518.781    -5395342.409 5  -4001812.22949  21637523.9024
  20861542.445   -12798441.742 6  -9864171.40749  20861543.1254
  19122433.000   -19548295.252 7 -13920186.26149  19122432.2854
  20412200.281    -8763645.099 6 -10084231.51449  20412202.1214
  22352223.984    13005010.620 4  -4593940.24048  22352227.1374
  21681715.375    -1335886.689 4  -5555514.66349  21681719.1024
  18484619.164   -10041966.141 7 -23704507.35149  18484617.4654
 95  2 19 19 39 59.9920000  0  8 18 14 28 19 31 22 27 29
  18087765.961   -23386454.870 7 -24344275.99249  18087764.0744
  21655240.922    -5302215.575 5  -3929246.02848  21655244.5314
  20856028.102   -12827417.847 6  -9886750.14649  20856028.7114
  19113416.727   -19595676.115 7 -13957106.41049  19113416.3164
  20395929.281    -8849150.702 6 -10150859.20049  20395930.5704
  22369487.305    13095728.111 4  -4523251.35148  22369491.1724
  21665690.289    -1420097.331 4  -5621133.29748  21665693.4184
  18487400.289   -10027350.184 7 -23693118.31849  18487398.8364
 95  2 19 19 40 29.9920000  0  8 18 14 28 19 31 22 27 29
  18080008.172   -23427220.719 7 -24376041.59449  18080006.2734
  21672975.461    -5209017.976 4  -3856624.68148  21672981.2504
  20850621.469   -12855829.935 6  -9908889.40749  20850622.2194
  19104434.867   -19642876.327 7 -13993885.79449  19104434.4344
  20379728.274    -8934286.230 6 -10217198.50749  20379729.8204
  22386764.492    13186519.901 5  -4452504.62749  22386767.9384
  21649686.523    -1504198.485 5  -5686666.65649  21649690.2734
  18490278.820   -10012222.974 7 -23681330.90749  18490277.2854
 95  2 19 19 40 59.9920000  0  8 18 14 28 19 31 22 27 29
  18072338.719   -23467523.802 7 -24407446.60549  18072336.9384
  21690723.758    -5115750.524 4  -3783948.88849  21690728.2114
  20845320.531   -12883685.037 6  -9930594.64549  20845321.2814
  19095483.313   -19689917.402 7 -14030541.17649  19095482.7274
  20363598.992    -9019046.135 6 -10283245.13449  20363600.5864
  22404050.531    13277356.120 5  -4381723.27149  22404054.8094
  21633697.859    -1588218.439 4  -5752136.70949  21633701.1174
  18493253.156    -9996594.251 7 -23669152.70649  18493251.7384
 95  2 19 19 41 29.9920000  0  8 18 14 28 19 31 22 27 29
  18064755.578   -23507374.987 7 -24438499.48149  18064753.7154
  21708488.680    -5022398.593 4  -3711207.33248  21708492.2074
  20840126.914   -12910977.679 6  -9951861.59449  20840127.7234
  19086564.719   -19736784.618 7 -14067061.08349  19086564.2384
  20347543.594    -9103416.518 6 -10348988.23049  20347545.7624
  22421344.859    13368239.274 5  -4310905.33349  22421348.0004
  21617722.078    -1672167.481 5  -5817551.52149  21617724.2344
  18496321.172    -9980471.613 7 -23656589.63849  18496319.8834
 95  2 19 19 41 59.9920000  0  8 18 14 28 19 31 22 27 29
  18057258.109   -23546774.267 7 -24469200.22649  18057256.2814
  21726266.039    -4928977.349 5  -3638411.69249  21726270.7504
  20835039.992   -12937710.288 6  -9972692.15949  20835041.4574
  19077680.758   -19783470.472 7 -14103439.66949  19077680.2074
  20331562.617    -9187397.964 6 -10414428.25749  20331564.0234
  22438649.156    13459174.750 5  -4240046.63549  22438650.9264
  21601759.070    -1756054.380 5
  18499479.203    -9963875.547 7 -23643657.67149  18499477.8914
 95  2 19 19 42 29.9920000  0  8 18 14 28 19 31 22 27 29
  18049846.930   -23585719.635 7 -24499547.26849  18049845.1954
  21744056.461    -4835491.886 5  -3565566.02849  21744059.8954
  20830059.313   -12963883.899 6  -9993087.13549  20830059.9104
  19068834.914   -19829955.093 7 -14139661.44949  19068834.5164
  20315654.227    -9270995.414 6 -10479569.06649  20315655.9844
  22455965.664    13550173.662 5  -4169138.50149  22455968.5244
  21585810.813    -1839861.387 5
  18502724.242    -9946822.682 7 -23630369.75049  18502722.8484
 95  2 19 19 42 59.9920000  0  8 18 14 28 19 31 22 27 29
  18042520.023   -23624224.125 7 -24529550.76549  18042518.2544
  21761858.813    -4741939.111 5  -3492667.92549  21761863.2894
  20825182.164   -12989513.462 6 -10013058.16949  20825183.0784
  19060025.727   -19876247.200 7 -14175733.22349  19060025.2344
  20299815.461    -9354229.509 6 -10544426.73949  20299817.5944
  22473295.141    13641240.467 5  -4098177.45949  22473298.5164
  21569877.313    -1923594.450 5    -41313.55859  21569879.4924
  18506053.008    -9929330.507 7 -23616739.51049  18506051.5904
 95  2 19 19 43 29.9920000  0  8 18 14 28 19 31 22 27 29
  18035280.570   -23662265.715 7 -24559193.56949  18035278.7314
  21779672.797    -4648324.978 5  -3419721.98848  21779679.3594
  20820410.617   -13014588.883 6 -10032597.40649  20820411.3094
  19051255.055   -19922338.346 7 -14211648.39349  19051254.6454
  20284045.219    -9437103.077 6 -10609003.48049  20284046.6604
  22490642.281    13732398.184 5  -4027145.56649  22490646.5244
  21553963.703    -2007223.489 5   -106479.01849  21553966.6804
  18509468.594    -9911381.618 7 -23602753.39249  18509467.1294
 95  2 19 19 43 59.9920000  0  8 18 14 28 19 31 22 27 29
  18028133.984   -23699823.928 7 -24588459.70649  18028132.1214
  21797497.758    -4554653.760 4  -3346731.61247  21797502.8094
  20815746.031   -13039101.262 6 -10051697.90349  20815746.6524
  19042523.508   -19968223.770 7 -14247403.26949  19042522.8984
  20268344.086    -9519613.299 6 -10673297.09649  20268345.1884
  22508010.320    13823667.341 4  -3956026.85548  22508012.8284
  21538073.047    -2090728.245 5   -171547.63149  21538075.0744
  18512975.563    -9892951.160 7 -23588392.02449  18512974.4024
 95  2 19 19 44 29.9920000  0  8 18 14 28 19 31 22 27 29
  18021081.641   -23736881.439 7 -24617335.69249  18021079.9304
  21815335.531    -4460914.270 4  -3273688.00747  21815340.1374
  20811190.414   -13063040.531 6 -10070351.82349  20811190.7074
  19033831.219   -20013900.839 7 -14282995.78149  19033830.8444
  20252715.688    -9601739.252 6 -10737291.28649  20252717.0124
  22525399.086    13915044.966 3  -3884823.61448  22525402.1564
  21522207.180    -2174104.247 5   -236515.91949  21522209.1024
  18516576.992    -9874027.045 7 -23573645.99549  18516575.6564
 95  2 19 19 44 59.9920000  0  8 18 14 28 19 31 22 27 29
  18014126.641   -23773430.996 7 -24645815.87049  18014125.0474
  21833185.344    -4367115.342 4  -3200598.09348  21833189.5274
  20806743.391   -13086410.426 6 -10088562.07449  20806743.9774
  19025173.797   -20059396.958 7 -14318447.29549  19025173.2464
  20237159.727    -9683487.693 6 -10800991.29949  20237161.2034
  22542803.156    14006503.295 3  -3813557.51147  22542805.8524
  21506361.039    -2257376.016 5   -301402.97649  21506362.6454
  18520273.297    -9854603.550 7 -23558510.83149  18520272.2194
 95  2 19 19 45 29.9920000  0  8 18 14 28 19 31 22 27 29
  18007270.109   -23809462.297 7 -24673892.21049  18007268.5044
  21851042.133    -4273280.065 4  -3127479.87646  21851044.9694
  20802403.781   -13109213.585 6 -10106330.69849  20802404.4844
  19016549.805   -20104715.178 7 -14353760.18949  19016548.9494
  20221674.656    -9764861.249 6 -10864399.19549  20221676.6724
  22560219.031    14098023.269 4  -3742243.32948  22560223.6134
  21490533.477    -2340551.238 5   -366214.80749  21490534.9654
  18524062.609    -9834690.425 7 -23542994.13949  18524061.5084
 95  2 19 19 45 59.9920000  0  8 18 14 28 19 31 22 27 29
  18000511.578   -23844979.180 7 -24701567.70649  18000509.7274
  21868906.844    -4179398.496 3  -3054325.61048  21868912.6914
  20798171.578   -13131455.051 6 -10123661.65249  20798172.1414
  19007958.750   -20149862.416 7 -14388939.84549  19007958.2344
  20206265.961    -9845833.459 6 -10927494.34649  20206267.5554
  22577645.375    14189598.852 3  -3670885.85948  22577649.1844
  21474720.852    -2423647.618 5   -430965.21549  21474723.1254
  18527941.680    -9814305.931 7 -23527110.14749  18527940.3914
 95  2 19 19 46 29.9920000  0  8 18 14 28 19 31 22 27 29
  17993852.164   -23879974.720 7 -24728836.96249  17993850.6644
  21886780.172    -4085473.282 3  -2981137.30746  21886786.1604
  20794047.055   -13153128.577 6 -10140550.06049  20794047.6524
  18999401.211   -20194831.902 7 -14423980.99149  18999400.6254
  20190938.484    -9926379.091 6 -10990257.10049  20190939.8324
  22595080.594    14281221.693 3  -3599491.50646  22595082.4814
  21458922.211    -2506669.797 5   -495657.80649  21458924.8714
  18531909.617    -9793453.938 7 -23510861.86949  18531908.3284
 95  2 19 19 46 59.9920000  0  8 18 14 28 19 31 22 27 29
  17987294.141   -23914436.899 7 -24755690.61149  17987292.7114
  21904661.711    -3991510.368 4  -2907919.62848  21904667.2424
  20790033.586   -13174220.273 6 -10156985.09349  20790033.9734
  18990881.375   -20239604.331 7 -14458868.58549  18990880.8714
  20175695.094   -10006485.805 6 -11052677.85049  20175696.3244
  22612530.953    14372925.324 4  -3528034.22245  22612535.9224
  21443139.352    -2589606.623 5   -560283.87149  21443142.8094
  18535970.352    -9772115.123 7 -23494234.24349  18535968.8984
 95  2 19 19 47 29.9920000  0  8 18 14 28 19 31 22 27 29
  17980832.531   -23948392.745 7 -24782149.71149  17980830.9494
  21922545.359    -3897530.253 4  -2834688.56449  21922551.2074
  20786127.898   -13194744.810 6 -10172978.17749  20786128.2154
  18982398.391   -20284182.131 7 -14493604.52149  18982397.8404
  20160535.617   -10086149.787 6 -11114753.60249  20160536.6254
  22629996.500    14464706.307 4  -3456516.63748  22630000.3204
  21427373.344    -2672456.486 5   -624842.18449  21427374.6334
  18540121.766    -9750299.402 7 -23477235.01249  18540120.2314
 95  2 19 19 47 59.9920000  0  7 18 14 28 19 31 27 29
  17974466.758   -23981846.327 7 -24808217.43849  17974465.0594
  21940433.711    -3803527.938 4  -2761440.19448  21940438.6334
  20782330.977   -13214696.806 6 -10188525.12749  20782331.6094
  18973952.805   -20328563.783 7 -14528187.61449  18973952.2544
  20145462.586   -10165358.361 6 -11176474.49549  20145463.5234
  21411625.195    -2755213.295 5   -689327.97849  21411627.4574
  18544367.039    -9727991.728 7 -23459852.43049  18544365.5514
 95  2 19 19 48 29.9920000  0  7 18 14 28 19 31 27 29
  17968196.375   -24014796.605 7 -24833892.97749  17968194.7704
  21958324.117    -3709513.414 4  -2688182.28549  21958326.7894
  20778643.711   -13234070.984 6 -10203621.83149  20778643.6884
  18965545.547   -20372745.052 7 -14562614.56749  18965545.0784
  20130472.641   -10244128.605 6 -11237853.83549  20130473.6134
  21395895.359    -2837876.344 5   -753740.71449  21395896.4144
  18548709.773    -9705169.207 7 -23442068.67449  18548708.2734
 95  2 19 19 48 59.9920000  0  7 18 14 28 19 31 27 29
  17962019.977   -24047253.671 7 -24859184.19549  17962018.3594
  21976221.164    -3615461.251 4  -2614895.08647  21976226.8244
  20775067.578   -13252863.457 6 -10218265.28049  20775067.5904
  18957175.117   -20416731.346 7 -14596889.59149  18957174.6724
  20115564.320   -10322473.028 6 -11298901.36749  20115565.7504
  21380185.399    -2920431.497 5   -818069.40149  21380187.0394
  18553151.789    -9681827.115 7 -23423880.05949  18553150.5124
 95  2 19 19 49 29.9920000  0  7 18 14 28 19 31 27 29
  17955936.141   -24079224.544 7 -24884096.55949  17955934.5704
  21994128.281    -3521360.347 3  -2541569.86946  21994131.9264
  20771602.531   -13271073.110 6 -10232454.59349  20771603.0594
  18948841.688   -20460523.876 7 -14631013.63049  18948841.2544
  20100735.750   -10400397.653 6 -11359621.79449  20100736.7584
  21364495.641    -3002880.668 5   -882315.48049  21364498.2894
  18557692.289    -9657964.608 7 -23405285.92049  18557691.1524
 95  2 19 19 49 59.9920000  0  7 18 14 28 19 31 27 29
  17949946.484   -24110700.845 7 -24908623.52349  17949944.9264
  22012045.469    -3427204.575 3  -2468201.90045  22012050.1684
  20768249.094   -13288693.658 5 -10246184.82749  20768249.6804
  18940548.125   -20504106.210 6 -14664973.86749  18940547.5984
  20085985.523   -10477909.572 6 -11420020.60149  20085986.8364
  21348825.961    -3085227.873 4   -946482.11648  21348828.6454
  18562332.672    -9633581.003 6 -23386285.71349  18562331.4184
 95  2 19 19 50 29.9920000  0  7 18 14 28 19 31 27 29
  17944051.539   -24141678.085 6 -24932761.61249  17944050.5204
  22029973.625    -3332989.727 3  -2394787.84245  22029980.9414
  20765009.617   -13305720.763 5 -10259452.66949  20765010.0864
  18932296.875   -20547465.387 6 -14698760.21349  18932296.6764
  20071314.477   -10555009.049 6 -11480098.02549  20071315.4384
  21333174.688    -3167471.337 4  -1010567.86347  21333176.8444
  18567070.516    -9608683.666 6 -23366885.20049  18567069.5314
 95  2 19 19 50 59.9920000  0  7 18 14 28 19 31 27 29
  17938251.852   -24172155.702 7 -24956510.39949  17938250.7154
  22047911.547    -3238730.829 2  -2321339.53546  22047916.3634
  20761882.555   -13322153.662 5 -10272257.48749  20761883.1064
  18924090.953   -20590588.307 6 -14732362.48149  18924090.6374
  20056722.899   -10631687.551 6 -11539847.44649  20056724.2814
  21317546.914    -3249599.105 4  -1074563.52746  21317549.7154
  18571904.406    -9583282.421 6 -23347092.04749  18571903.3874
 95  2 19 19 51 29.9920000  0  7 18 14 28 19 31 27 29
  17932551.766   -24202109.253 7 -24979850.83349  17932550.4064
  22065851.266    -3144456.095 2  -2247878.98745  22065857.3714
  20758868.750   -13337989.206 5 -10284596.85549  20758870.0864
  18915932.805   -20633461.715 6 -14765770.31949  18915932.5594
  20042214.141   -10707930.721 6 -11599257.64149  20042215.0904
  21301941.594    -3331606.333 4  -1138465.23547  21301945.2734
  18576834.688    -9557373.818 6 -23326903.55449  18576833.5394
 95  2 19 19 51 59.9920000  0  7 18 14 28 19 31 27 29
  17926955.234   -24231520.252 7 -25002768.49549  17926954.3794
  22083795.680    -3050160.261 2  -2174401.85742  22083799.4064
  20755969.664   -13353225.153 5 -10296469.00849  20755970.1094
  18907820.461   -20676091.405 6 -14798988.25249  18907820.2624
  20027792.523   -10783716.152 6 -11658311.16049  20027794.6214
  21286360.977    -3413483.314 4  -1202265.45048  21286363.2504
  18581859.602    -9530966.009 6 -23306326.06949  18581858.5704
 95  2 19 19 52 29.9920000  0  7 18 14 28 19 31 27 29
  17921461.125   -24260391.148 7 -25025265.29649  17921460.1414
  22101739.000    -2955867.298 3  -2100927.10246  22101742.5044
  20753181.672   -13367875.850 5 -10307885.12749  20753183.3714
  18899746.703   -20718519.560 6 -14832049.15049  18899746.9144
  20013459.234   -10859037.191 6 -11717002.80949  20013460.3364
  21270802.930    -3495241.153 4  -1265972.83648  21270807.7234
  18586975.492    -9504082.767 6 -23285378.11749  18586974.8714
 95  2 19 19 52 59.9920000  0  7 18 14 28 19 31 27 29
  17916070.211   -24288721.044 7 -25047340.54849  17916069.1334
  22119679.188    -2861591.736 3  -2027465.76945  22119682.5274
  20750503.133   -13381951.795 5 -10318853.38549  20750503.7424
  18891707.586   -20760765.380 6 -14864967.96249  18891707.6804
  19999215.195   -10933889.085 6 -11775328.89849  19999215.8164
  21255265.039    -3576893.083 4  -1329597.67947  21255267.2544
  18592179.539    -9476735.640 6 -23264068.69249  18592178.7774
 95  2 19 19 53 29.9920000  0  7 18 14 28 19 31 27 29
  17910784.258   -24316498.851 7 -25068985.59849  17910783.3674
  22137620.266    -2767308.673 3  -1953998.65245  22137624.9654
  20747934.297   -13395449.707 5 -10329371.24349  20747934.7424
  18883700.375   -20802843.952 6 -14897756.45249  18883700.2814
  19985060.578   -11008270.807 6 -11833288.62649  19985062.6884
  21239744.594    -3658453.551 4  -1393151.25349  21239746.3284
  18597471.258    -9448926.949 6 -23242399.61249  18597470.1334
 95  2 19 19 53 59.9920000  0  7 18 14 28 19 31 27 29
  17905601.445   -24343735.241 7 -25090208.76549  17905600.4614
  22155565.500    -2673006.971 3  -1880516.95745  22155570.9384
  20745477.266   -13408362.646 5 -10339433.25949  20745478.1684
  18875724.203   -20844757.413 6 -14930416.27949  18875724.0164
  19970995.274   -11082186.359 6 -11890885.08349  19970996.2464
  21224239.352    -3739931.204 4  -1456640.33048  21224244.4384
  18602851.047    -9420657.268 6 -23220371.31749  18602850.5204
 95  2 19 19 54 29.9920000  0  7 18 14 28 19 31 27 29
  17900522.219   -24370426.353 7 -25111007.04149  17900521.3634
  22173513.602    -2578690.174 3  -1807023.56346  22173517.1414
  20743133.664   -13420677.328 5 -10349029.10149  20743135.2584
  18867784.727   -20886480.052 6 -14962927.42149  18867784.4924
  19957017.227   -11155639.127 6 -11948120.95449  19957018.1524
  21208750.672    -3821325.229 4  -1520064.23948  21208753.0864
  18608321.727    -9391906.877 6 -23197968.44649  18608320.9774
 95  2 19 19 54 59.9920000  0  7 18 14 28 19 31 27 29
  17895542.477   -24396595.541 7 -25131398.64649  17895541.3984
  22191462.578    -2484370.471 3  -1733527.89342  22191471.2074
  20740901.867   -13432405.631 5 -10358168.04449  20740901.7974
  18859882.438   -20928007.539 7 -14995286.51949  18859881.9694
  19943121.469   -11228663.408 6 -12005022.95649  19943123.0394
  21193275.352    -3902649.532 5  -1583433.83849  21193277.6134
  18613884.133    -9362678.036 6 -23175192.77949  18613882.9844
 95  2 19 19 55 29.9920000  0  8 18 14 28 19 31  2 27 29
  17890659.977   -24422253.137 7 -25151391.59149  17890658.6884
  22209412.320    -2390043.100 3  -1660026.28046  22209419.4844
  20738783.797   -13443536.814 6 -10366841.67249  20738784.4654
  18852018.914   -20969331.657 7 -15027487.13049  18852018.3284
  19929306.094   -11301263.065 6 -12061594.06949  19929306.9264
  22503583.602      -97694.36413
  21177816.328    -3983885.853 5  -1646734.84249  21177818.2504
  18619540.313    -9332954.563 7 -23152031.67049  18619538.8484
 95  2 19 19 55 59.9920000  0  8 18 14 28 19 31  2 27 29
  17885871.719   -24447415.198 7 -25170998.39649  17885870.5234
  22227359.383    -2295733.262 3  -1586538.28147  22227364.2814
  20736778.047   -13454076.638 6 -10375054.49049  20736778.7624
  18844195.750   -21010442.377 7 -15059521.45049  18844195.0124
  19915574.195   -11373425.929 6 -12117824.81249  19915575.3794
  22483705.180     -202154.413 3
  21162376.414    -4065024.735 5  -1709959.93249  21162379.1214
  18625291.664    -9302730.034 7 -23128480.11449  18625290.3874
 95  2 19 19 56 29.9920000  0  8 18 14 28 19 31  2 27 29
  17881180.305   -24472069.368 7 -25190209.43649  17881179.1684
  22245303.859    -2201439.684 3  -1513063.01746  22245309.6374
  20734885.063   -13464023.666 6 -10382805.38849  20734885.1334
  18836415.141   -21051327.683 7 -15091380.12049  18836414.5784
  19901928.133   -11445135.221 6 -12173702.12549  19901929.0824
  22463872.750     -306376.656 3    -75789.45452  22463878.6914
  21146958.008    -4146050.346 5  -1773096.75249  21146961.1024
  18631142.000    -9271987.327 7 -23104524.78249  18631140.6644
 95  2 19 19 56 59.9920000  0  8 18 14 28 19 31  2 27 29
  17876588.070   -24496201.389 7 -25209013.61249  17876586.6524
  22263245.227    -2107154.997 3  -1439594.59648  22263250.6524
  20733106.852   -13473370.158 6 -10390088.33449  20733107.1564
  18828677.883   -21091988.271 7 -15123063.69149  18828677.3324
  19888372.984   -11516367.281 6 -12229207.56649  19888373.4654
  22444086.266     -410352.625 3   -156809.66646  22444092.7584
  21131564.445    -4226942.016 5  -1836129.20649  21131566.8134
  18637091.133    -9240724.128 7 -23080163.87049  18637089.9144
 95  2 19 19 57 29.9920000  0  8 18 14 28 19 31  2 27 29
  17872092.883   -24519822.579 7 -25227419.74149  17872091.6294
  22281181.953    -2012896.955 3  -1366146.99645  22281187.4844
  20731438.641   -13482135.183 6 -10396918.19249  20731439.4614
  18820977.289   -21132455.353 7 -15154596.48249  18820976.7744
  19874908.047   -11587124.998 6 -12284343.40049  19874909.2314
  22424340.211     -514123.123 3   -237669.74747  22424345.3564
  21116190.836    -4307730.542 5  -1899081.29049  21116193.0274
  18643134.141    -9208967.371 7 -23055418.37049  18643132.7234
 95  2 19 19 57 59.9920000  0  8 18 14 28 19 31  2 27 29
  17867700.313   -24542906.797 7 -25245407.44849  17867698.9774
  22299115.250    -1918660.712 3  -1292716.35146  22299120.4304
  20729883.055   -13490308.284 6 -10403286.80949  20729883.4064
  18813315.688   -21172717.982 7 -15185969.95349  18813315.0554
  19861537.055   -11657389.913 6 -12339095.22849  19861537.8284
  22404630.234     -617696.483 3   -318376.29246  22404633.5274
  21100838.664    -4388407.339 5  -1961946.32349  21100841.5354
  18649272.633    -9176710.292 7 -23030283.00549  18649271.2154
 95  2 19 19 58 29.9920000  0  8 18 14 28 19 31  2 27 29
  17863408.719   -24565458.970 7 -25262980.57649  17863407.3594
  22317041.727    -1824451.433 3  -1219306.73045  22317045.1954
  20728438.891   -13497900.113 6 -10409202.48649  20728439.0664
  18805687.203   -21212805.937 7 -15217207.31649  18805686.5944
  19848256.125   -11727182.518 6 -12393479.01849  19848257.0514
  22384955.367     -721087.836 3   -398940.91348  22384958.2154
  21085504.016    -4468992.158 5  -2024739.66549  21085505.6334
  18655502.156    -9143975.530 7 -23004775.42549  18655500.7974
 95  2 19 19 58 59.9920000  0  8 18 14 28 19 31  2 27 29
  17859214.961   -24587496.953 7 -25280153.03349  17859213.7194
  22334965.016    -1730266.339 2  -1145916.02046  22334969.2234
  20727103.539   -13504916.843 6 -10414670.04249  20727103.8914
  18798087.367   -21252743.120 7 -15248327.19349  18798086.5944
  19835062.789   -11796513.115 6 -12447502.81949  19835063.5044
  22365311.961     -824311.907 3   -479375.26645  22365313.8714
  21070181.914    -4549508.586 5  -2087479.71649  21070183.5554
  18661816.578    -9110792.516 7 -22978918.55949  18661814.9264
 95  2 19 19 59 29.9920000  0  8 18 14 28 19 31  2 27 29
  17855113.641   -24609050.304 7 -25296947.85149  17855111.9884
  22352879.367    -1636127.022 2  -1072560.88545  22352888.2544
  20725874.672   -13511373.603 6 -10419701.26349  20725874.6134
  18790513.813   -21292541.711 7 -15279339.08049  18790512.8284
  19821952.555   -11865407.062 6 -12501186.35149  19821953.0824
  22345699.836     -927379.324 3   -559687.52047  22345703.9734
  21054868.711    -4629980.815 5  -2150185.31049  21054870.3994
  18668214.781    -9077170.093 7 -22952719.29949  18668213.2814
 95  2 19 19 59 59.9920000  0  8 18 14 28 19 31  2 27 29
  17851105.125   -24630113.934 7 -25313361.07549  17851103.8364
  22370781.969    -1542043.620 1   -999249.46242  22370787.7114
  20724752.836   -13517269.374 6 -10424295.35249  20724753.4224
  18782969.633   -21332187.281 7 -15310231.72849  18782968.9064
  19808926.992   -11933858.183 6 -12554524.84049  19808927.3564
  22326121.234    -1030264.253 3   -639857.58246  22326126.7194
  21039566.266    -4710397.140 5  -2212847.35649  21039568.3404
  18674697.781    -9043101.537 7 -22926172.40149  18674696.4104
 95  2 19 20  0 29.9920000  0  8 18 14 28 19 31  2 27 29
  17847193.477   -24650670.726 7 -25329379.35349  17847192.1644
  22388677.367    -1448007.941 2   -925975.15146  22388681.0474
  20723738.797   -13522597.345 6 -10428446.99449  20723739.2314
  18775456.625   -21371667.593 7 -15340995.59749  18775456.0044
  19795988.430   -12001848.449 6 -12607504.22349  19795989.3324
  22306580.602    -1132950.270 3   -719872.63248  22306584.4104
  21024273.109    -4790760.069 5  -2275467.77749  21024275.3484
  18681266.086    -9008583.795 7 -22899275.49249  18681264.7504
 95  2 19 20  0 59.9920000  0  8 18 14 28 19 31  2 27 29
  17843379.422   -24670714.047 7 -25344997.52549  17843378.4384
  22406558.641    -1354043.104 2   -852755.87945  22406562.1804
  20722831.703   -13527365.385 6 -10432162.32849  20722832.5594
  18767976.133   -21410978.162 7 -15371627.19649  18767975.4774
  19783138.586   -12069376.562 6 -12660123.47249  19783138.9144
  22287076.844    -1235443.427 3   -799737.34047  22287081.9064
  21008990.773    -4871070.827 5  -2338047.54749  21008992.5434
  18687920.094    -8973617.611 7 -22872029.14849  18687918.9694
 95  2 19 20  1 29.9920000  0  7 18 28 19 31  2 27 29
  17839665.414   -24690231.637 7 -25360206.03749  17839663.9844
  20722030.156   -13531578.537 6 -10435445.29449  20722029.5124
  18760529.555   -21450110.479 7 -15402119.90149  18760528.8984
  19770377.172   -12136438.822 6 -12712379.72549  19770377.6064
  22267609.953    -1337742.204 3   -879450.61946  22267615.1334
  20993720.555    -4951316.406 5  -2400576.53549  20993721.9264
  18694663.016    -8938182.918 7 -22844417.73249  18694661.4924
 95  2 19 20  1 59.9920000  0  7 18 28 19 31  2 27 29
  17836055.828   -24709199.990 7 -25374986.57649  17836054.6914
  20721334.492   -13535232.771 6 -10438292.73749  20721334.6094
  18753116.617   -21489064.781 7 -15432473.89549  18753115.7734
  19757707.234   -12203020.378 6 -12764261.39649  19757707.3984
  22248181.438    -1439843.177 3   -959009.74546  22248185.9024
  20978464.258    -5031489.445 5  -2463048.99649  20978466.8954
  18701495.563    -8902277.733 7 -22816439.69949  18701494.1094
 95  2 19 20  2 29.9920000  0  7 18 28 19 31  2 27 29
  17832548.016   -24727632.685 7 -25389349.72049  17832546.6214
  20720744.656   -13538330.312 6 -10440706.40949  20720745.4534
  18745736.617   -21527848.014 7 -15462694.58049  18745735.9614
  19745127.328   -12269128.273 6 -12815773.98249  19745127.7384
  22228787.266    -1541758.767 3  -1038424.39847  22228790.1844
  20963222.289    -5111585.736 5  -2525461.63949  20963223.9304
  18708416.149    -8865909.324 7 -22788100.71249  18708414.7424
 95  2 19 20  2 59.9920000  0  7 18 28 19 31  2 27 29
  17829136.813   -24745559.498 7 -25403318.66649  17829135.7114
  20720261.391   -13540871.938 6 -10442686.89949  20720262.3634
  18738387.516   -21566468.681 7 -15492788.59349  18738386.7074
  19732636.406   -12334766.396 6 -12866920.50949  19732636.9694
  22209427.578    -1643493.935 3  -1117698.47447  22209431.0354
  20947995.609    -5191601.882 5  -2587811.85549  20947997.2034
  18715426.508    -8829070.662 7 -22759395.29949  18715425.1484
 95  2 19 20  3 29.9920000  0  7 18 28 19 31  2 27 29
  17825824.820   -24762964.924 7 -25416881.33949  17825823.5904
  20719888.500   -13542829.974 6 -10444212.64949  20719889.2624
  18731072.930   -21604905.502 7 -15522739.35449  18731072.2034
  19720239.914   -12399910.296 6 -12917681.92149  19720240.6994
  22190107.313    -1745020.372 3  -1196809.81546  22190109.5394
  20932786.234    -5271527.933 5  -2650091.84149  20932789.0234
  18722529.367    -8791744.943 7 -22730310.35849  18722528.1724
 95  2 19 20  3 59.9920000  0  7 18 28 19 31  2 27 29
  17822611.813   -24779847.865 7 -25430036.87949  17822610.5124
  20719629.211   -13544192.762 6 -10445274.56049  20719629.6454
  18723793.227   -21643160.982 7 -15552548.81149  18723792.2664
  19707940.938   -12464542.201 6 -12968044.37649  19707941.4064
  22170827.063    -1846338.930 3  -1275759.23746  22170831.7384
  20917594.320    -5351361.367 5  -2712299.66649  20917595.3874
  18729722.984    -8753942.541 7 -22700853.97649  18729721.8594
 95  2 19 20  4 29.9920000  0  7 18 28 19 31  2 27 29
  17819495.086   -24796226.518 7 -25442799.46849  17819493.9384
  20719482.320   -13544966.499 6 -10445877.47449  20719482.1564
  18716547.336   -21681238.604 7 -15582219.66949  18716546.6804
  19695739.453   -12528660.193 6 -13018006.38149  19695739.8874
  22151584.414    -1947461.595 3  -1354555.98047  22151587.5554
  20902418.094    -5431112.875 5  -2774443.65849  20902419.5824
  18737006.586    -8715668.215 7 -22671029.86349  18737005.4734
 95  2 19 20  4 59.9920000  0  7 18 28 19 31  2 27 29
  17816480.539   -24812068.510 7 -25455143.87949  17816479.6254
  20719450.555   -13545133.358 6 -10446007.48249  20719450.1804
  18709337.469   -21719126.820 7 -15611742.95249  18709336.7424
  19683641.102   -12592237.848 6 -13067547.35149  19683641.4884
  22132380.469    -2048377.892 3  -1433191.91748  22132383.6454
  20887257.750    -5510779.968 5  -2836521.85949  20887259.2624
  18744384.219    -8676898.537 7 -22640819.75949  18744383.1414
 95  2 19 20  5 29.9920000  0  7 18 28 19 31  2 27 29
  17813572.750   -24827348.641 7 -25467050.47649  17813571.7424
  20719533.086   -13544698.274 6 -10445668.45649  20719533.4964
  18702163.641   -21756825.576 7 -15641118.59549  18702162.9264
  19671644.391   -12655281.794 6 -13116672.43649  19671644.8714
  22113213.109    -2149099.208 3  -1511675.94647  22113217.7154
  20872114.625    -5590357.496 5  -2898530.27349  20872116.1604
  18751854.219    -8637642.940 7 -22610231.02149  18751853.2704
 95  2 19 20  5 59.9920000  0  7 18 28 19 31  2 27 29
  17810772.625   -24842063.910 7 -25478516.92549  17810771.5474
  20719730.313   -13543660.203 6 -10444859.56749  20719730.9104
  18695027.008   -21794328.408 7 -15670341.57549  18695026.3054
  19659749.984   -12717786.114 6 -13165377.03649  19659750.2894
  22094085.641    -2249617.125 3  -1590001.49147  22094089.0164
  20856991.852    -5669830.020 5  -2960456.86649  20856993.2934
  18759417.758    -8597896.308 7 -22579259.65249  18759416.5514
 95  2 19 20  6 29.9920000  0  7 18 28 19 31  2 27 29
  17808076.789   -24856231.359 7 -25489556.49949  17808075.3244
  20720038.524   -13542043.036 6 -10443599.43749  20720039.0634
  18687926.719   -21831640.957 7 -15699416.28149  18687925.9814
  19647951.047   -12779790.356 6 -13213691.96449  19647951.1764
  22074997.070    -2349922.596 3  -1668161.44347  22075001.8284
  20841882.656    -5749226.773 5  -3022324.40249  20841884.5664
  18767070.680    -8557679.676 7 -22547922.04949  18767069.5664
 95  2 19 20  6 59.9920000  0  7 18 28 19 31  2 27 29
  17805489.414   -24869827.936 7 -25500151.24049  17805487.9144
  20720459.375   -13539831.269 6 -10441875.96949  20720459.9614
  18680865.742   -21868746.779 7 -15728329.90349  18680864.8874
  19636247.297   -12841292.263 6 -13261615.46549  19636247.6494
  22055957.352    -2449983.311 4  -1746130.72449  22055961.5824
  20826792.008    -5828531.017 5  -3084119.85549  20826793.9534
  18774813.406    -8516991.229 7 -22516216.80049  18774812.2344
 95  2 19 20  7 29.9920000  0  7 18 28 19 31  2 27 29
  17803011.773   -24882848.545 7 -25510297.17249  17803010.4734
  20720994.672   -13537018.754 6 -10439684.39849  20720993.9344
  18673846.055   -21905635.096 7 -15757074.04049  18673845.1414
  19624640.609   -12902287.674 6 -13309144.29749  19624640.8324
  22036968.109    -2549771.323 4  -1823887.52549  22036973.5004
  20811721.094    -5907727.127 5  -3145831.06749  20811722.4774
  18782644.242    -8475841.353 7 -22484151.98849  18782643.0594
 95  2 19 20  7 59.9920000  0  6 18 28 19 31 27 29
  17800636.586   -24895329.462 7 -25520022.57449  17800635.2274
  20721640.719   -13533622.976 6 -10437038.32049  20721640.6604
  18666864.586   -21942323.127 7 -15785662.11349  18666863.8014
  19613126.695   -12962793.046 6 -13356291.28849  19613127.0704
  20796664.313    -5986851.022 5  -3207486.01149  20796665.7544
  18790558.883    -8434250.121 7 -22451743.26849  18790557.8524
 95  2 19 20  8 29.9920000  0  6 18 28 19 31 27 29
  17798367.617   -24907253.133 7 -25529313.74849  17798366.3874
  20722401.281   -13529626.606 6 -10433924.26349  20722401.7034
  18659925.266   -21978789.179 7 -15814077.21149  18659924.5744
  19601711.039   -13022782.461 6 -13403036.23049  19601711.2274
  20781626.211    -6065876.342 5  -3269064.12349  20781628.2624
  18798561.602    -8392194.617 7 -22418972.77549  18798560.5704
 95  2 19 20  8 59.9920000  0  7 18 28 19 31  2 27 29
  17796200.570   -24918640.182 7 -25538186.77949  17796199.2704
  20723273.375   -13525044.135 6 -10430353.50049  20723273.7034
  18653022.383   -22015064.603 7 -15842343.77549  18653021.5394
  19590394.570   -13082250.659 6 -13449375.04249  19590394.8984
  21980318.024      -95666.796 4
  20766606.484    -6144805.252 5  -3330567.13149  20766608.4654
  18806652.109    -8349678.861 7 -22385843.64549  18806651.1954
 95  2 19 20  9 29.9920000  0  7 18 28 19 31  2 27 29
  17794134.586   -24929497.339 7 -25546646.90449  17794133.0634
  20724258.234   -13519867.153 6 -10426319.49149  20724258.9264
  18646158.953   -22051132.179 7 -15870448.36749  18646158.3564
  19579181.375   -13141175.658 6 -13495290.57449  19579181.7154
  21961529.227     -194399.855 4    -51266.81158  21961534.6524
  20751605.352    -6223635.024 5  -3391992.89649  20751607.6604
  18814834.125    -8306682.650 7 -22352340.13249  18814832.7894
 95  2 19 20  9 59.9920000  0  7 18 28 19 31  2 27 29
  17792167.031   -24939837.609 7 -25554704.26949  17792165.6844
  20725355.625   -13514100.431 6 -10421825.94149  20725355.4494
  18639334.000   -22086996.433 7 -15898394.53149  18639333.3674
  19568072.078   -13199555.497 6 -13540781.32049  19568071.9264
  21942781.156     -292921.536 4   -128036.90049  21942787.0044
  20736623.742    -6302365.961 5  -3453341.63749  20736625.4774
  18823109.391    -8263194.482 7 -22318453.28149  18823108.1374
 95  2 19 20 10 29.9920000  0  7 18 28 19 31  2 27 29
  17790300.461   -24949646.064 7 -25562347.22849  17790299.1134
  20726565.461   -13507743.981 6 -10416872.88249  20726565.7544
  18632547.844   -22122659.481 7 -15926183.91349  18632547.1414
  19557068.945   -13257376.027 6 -13585836.23149  19557069.4734
  21924067.891     -391260.064 4   -204664.25347  21924072.1334
  20721663.516    -6380981.801 5  -3514600.69949  20721665.5314
  18831479.891    -8219208.138 7 -22284178.23549  18831478.8594
 95  2 19 20 10 59.9920000  0  7 18 28 19 31  2 27 29
  17788537.969   -24958908.984 7 -25569565.09549  17788536.5984
  20727888.461   -13500790.437 6 -10411454.54649  20727888.4734
  18625800.156   -22158117.295 7 -15953813.37049  18625799.3594
  19546172.219   -13314639.915 6 -13630457.40549  19546172.4414
  21905390.195     -489409.789 4   -281144.49749  21905394.6724
  20706725.477    -6459481.578 5  -3575769.32249  20706726.9184
  18839944.656    -8174725.322 7 -22249516.33449  18839943.7424
 95  2 19 20 11 29.9920000  0  7 18 28 19 31  2 27 29
  17786882.195   -24967608.535 7 -25576343.97749  17786881.0824
  20729325.430   -13493240.591 6 -10405571.55449  20729325.2194
  18619091.859   -22193369.747 7 -15981282.80049  18619091.2974
  19535380.055   -13371352.812 6 -13674649.22949  19535380.3364
  21886750.211     -587363.284 4   -357471.83548  21886753.8204
  20691807.961    -6537872.060 5  -3636852.77949  20691809.2504
  18848501.766    -8129755.984 7 -22214475.31649  18848500.8754
 95  2 19 20 11 59.9920000  0  7 18 28 19 31  2 27 29
  17785338.289   -24975722.361 7 -25582666.44649  17785337.2114
  20730875.000   -13485095.663 6 -10399224.87049  20730875.6214
  18612420.031   -22228430.729 7 -16008603.03149  18612419.1644
  19524691.586   -13427520.004 6 -13718415.82549  19524691.8444
  21868150.117     -685110.315 4   -433638.30148  21868154.0664
  20676914.086    -6616141.324 5  -3697841.79349  20676915.4104
  18857151.367    -8084303.925 7 -22179058.15649  18857150.4534
 95  2 19 20 12 29.9920000  0  7 18 28 19 31  2 27 29
  17783905.328   -24983253.709 7 -25588535.03649  17783904.0164
  20732536.570   -13476365.757 6 -10392422.35649  20732536.3714
  18605781.859   -22263315.597 7 -16035786.03049  18605781.0394
  19514104.633   -13483154.349 6 -13761767.22149  19514105.1254
  21849590.211     -782641.933 4   -509636.88448  21849594.0434
  20662038.930    -6694309.739 5  -3758752.22149  20662040.4534
  18865888.563    -8038389.282 7 -22143280.53849  18865887.3914
 95  2 19 20 12 59.9920000  0  7 18 28 19 31  2 27 29
  17782583.039   -24990203.523 7 -25593950.48149  17782581.4814
  20734309.195   -13467049.813 6 -10385163.17849  20734309.3484
  18599177.516   -22298022.189 7 -16062830.11249  18599176.4384
  19503618.813   -13538257.678 6 -13804704.83949  19503618.9884
  21831076.016     -879933.237 4   -585448.26647  21831079.5204
  20647180.656    -6772392.963 5  -3819596.27349  20647182.8134
  18874713.180    -7992017.030 7 -22107146.34549  18874712.3244
 95  2 19 20 13 29.9920000  0  7 18 28 19 31  2 27 29
  17781370.180   -24996575.730 7 -25598915.84249  17781368.9964
  20736193.375   -13457148.175 6 -10377447.63149  20736193.5274
  18592606.828   -22332550.028 7 -16089734.90349  18592605.9844
  19493236.266   -13592818.885 6 -13847220.02049  19493236.9924
  21812610.492     -976967.430 3   -661059.24548  21812614.2194
  20632337.281    -6850393.774 5  -3880376.10249  20632339.0634
  18883627.164    -7945174.069 7 -22070645.36649  18883626.4734
 95  2 19 20 13 59.9920000  0  7 18 28 19 31  2 27 29
  17780263.531   -25002390.603 7 -25603446.91749  17780262.2544
  20738188.024   -13446665.912 6 -10369279.65249  20738188.1174
  18586072.500   -22366887.634 7 -16116491.46249  18586071.7854
  19482956.899   -13646836.415 6 -13889311.54949  19482957.2034
  21794195.188    -1073745.684 4   -736470.84248  21794199.1844
  20617508.711    -6928317.748 5  -3941096.06249  20617510.9844
  18892630.820    -7897859.399 7 -22033776.82649  18892629.9534
 95  2 19 20 14 29.9920000  0  7 18 28 19 31  2 27 29
  17779262.203   -25007653.406 7 -25607547.80849  17779260.8914
  20740293.836   -13435599.249 6 -10360656.27249  20740294.3164
  18579576.922   -22401022.561 7 -16143090.08549  18579576.2664
  19472784.563   -13700293.109 6 -13930966.07649  19472784.8564
  21775826.805    -1170268.823 4   -811683.59948  21775832.2664
  20602694.266    -7006169.363 5  -4001759.61549  20602696.1644
  18901724.430    -7850071.587 7 -21996539.60649  18901723.5514
 95  2 19 20 14 59.9920000  0  7 18 28 19 31  2 27 29
  17778365.508   -25012365.477 7 -25611219.56049  17778364.3134
  20742511.625   -13423945.214 6 -10351575.22849  20742512.0354
  18573123.430   -22434935.332 7 -16169515.60449  18573122.5744
  19462719.594   -13753183.809 6 -13972179.55849  19462719.7814
  21757506.922    -1266541.673 4   -886701.35949  21757510.5314
  20587893.992    -7083943.629 5  -4062362.91849  20587895.4454
  18910908.984    -7801807.167 6 -21958931.00349  18910908.3054
 95  2 19 20 15 29.9920000  0  7 18 28 19 31  2 27 29
  17777571.086   -25016539.920 7 -25614472.38249  17777569.6214
  20744839.133   -13411714.991 6 -10342045.19849  20744839.3444
  18566709.266   -22468642.478 7 -16195780.89849  18566708.4814
  19452760.805   -13805517.172 6 -14012958.74549  19452760.9104
  21739231.813    -1362579.061 4   -961535.63448  21739235.7384
  20573108.781    -7161642.153 5  -4122907.19749  20573110.3164
  18920181.609    -7753078.258 6 -21920960.46249  18920180.5084
 95  2 19 20 15 59.9920000  0  7 18 28 19 31  2 27 29
  17776880.703   -25020167.750 7 -25617299.27349  17776879.2624
  20747277.117   -13398903.424 6 -10332062.17649  20747277.3634
  18560333.414   -22502147.428 7 -16221888.63949  18560332.6884
  19442910.047   -13857284.947 6 -14053297.22149  19442910.1764
  21721000.117    -1458383.216 5  -1036188.17447  21721004.1374
  20558337.156    -7239265.258 5  -4183392.68849  20558338.1884
  18929537.891    -7703910.906 6 -21882648.28049  18929537.0824
 95  2 19 20 16 29.9920000  0  7 18 28 19 31  2 27 29
  17776298.008   -25023230.734 7 -25619686.02449  17776296.6724
  20749828.195   -13385497.968 6 -10321616.38649  20749829.1454
  18553994.375   -22535459.468 7 -16247846.05949  18553993.4844
  19433168.102   -13908477.099 6 -14093187.15849  19433168.4774
  21702817.953    -1553931.979 5  -1110641.70449  21702821.9844
  20543582.547    -7316801.582 5  -4243810.57149  20543583.9304
  18938978.250    -7654301.806 7 -21843991.87549  18938977.2664
 95  2 19 20 16 59.9920000  0  7 18 28 19 31  2 27 29
  17775823.203   -25025724.397 7 -25621629.14849  17775821.8674
  20752491.672   -13371500.665 6 -10310709.41649  20752492.2114
  18547689.422   -22568592.960 7 -16273664.35349  18547688.5554
  19423532.602   -13959112.275 6 -14132643.08249  19423532.7194
  21684686.711    -1649214.294 5  -1184887.60949  21684691.4694
  20528844.219    -7394253.186 5  -4304162.43449  20528845.4964
  18948502.164    -7604254.265 7 -21804993.83049  18948501.1334
 95  2 19 20 17 29.9920000  0  7 18 28 19 31  2 27 29
  17775455.492   -25027657.192 7 -25623135.22849  17775454.2504
  20755265.703   -13356921.631 6 -10299349.14549  20755266.1954
  18541412.844   -22601575.596 7 -16299365.10449  18541411.9184
  19414001.180   -14009200.320 6 -14171672.67349  19414001.4734
  21666604.734    -1744231.246 5  -1258926.69949  21666609.2464
  20514121.828    -7471620.611 5  -4364448.68349  20514123.3054
  18958108.195    -7553774.301 7 -21765658.83549  18958107.3984
 95  2 19 20 17 59.9920000  0  7 18 28 19 31  2 27 29
  17775193.477   -25029033.980 7 -25624208.06049  17775192.0704
  20758150.414   -13341762.373 6 -10287536.77049  20758150.9774
  18535167.641   -22634394.013 7 -16324937.88849  18535166.6684
  19404572.297   -14058749.237 6 -14210282.16649  19404572.5664
  21648574.531    -1838985.794 5  -1332761.34949  21648578.5044
  20499415.586    -7548901.827 5  -4424667.75449  20499417.4144
  18967796.625    -7502861.777 7 -21725986.77849  18967795.7704
 95  2 19 20 18 29.9920000  0  7 18 28 19 31  2 27 29
  17775036.070   -25029861.005 7 -25624852.50749  17775034.6994
  20761145.398   -13326026.140 6 -10275274.78349  20761145.6214
  18528956.500   -22667033.972 7 -16350371.62049  18528955.7034
  19395244.313   -14107768.517 6 -14248478.96149  19395244.4774
  21630592.375    -1933478.727 5  -1406392.12349  21630596.1254
  20484727.664    -7626085.713 5  -4484810.98549  20484729.2704
  18977572.242    -7451490.313 7 -21685957.11349  18977571.4224
 95  2 19 20 18 59.9920000  0  7 18 28 19 31  2 27 29
  17774983.484   -25030138.698 7 -25625068.90049  17774982.2194
  20764249.359   -13309715.039 6 -10262564.84649  20764249.3594
  18522782.227   -22699480.064 7 -16375654.28749  18522781.2194
  19386019.477   -14156244.984 6 -14286252.79149  19386019.1134
  21612658.750    -2027722.860 5  -1479829.03149  21612662.3954
  20470059.688    -7703166.039 5  -4544873.51849  20470061.1644
  18987437.875    -7399648.185 7 -21645560.69049  18987436.6564
 95  2 19 20 19 29.9920000  0  7 18 28 19 31  2 27 29
  17775031.836   -25029884.342 7 -25624870.71249  17775030.5004
  20767459.641   -13292844.502 6 -10249418.99849  20767459.8054
  18516644.305   -22731735.803 7 -16400788.62749  18516643.5784
  19376898.977   -14204172.814 6 -14323599.11349  19376898.8834
  21594765.445    -2121751.283 5  -1553097.84549  21594770.5204
  20455408.484    -7780158.266 5  -4604867.41149  20455410.1954
  18997390.766    -7347344.052 7 -21604804.26749  18997389.6884
 95  2 19 20 19 59.9920000  0  7 18 28 19 31  2 27 29
  17775183.305   -25029088.274 7 -25624250.41049  17775181.7934
  20770776.664   -13275411.246 6 -10235834.67549  20770777.4024
  18510544.539   -22763790.315 7 -16425766.16549  18510543.3444
  19367885.242   -14251541.060 6 -14360509.40449  19367885.2194
  21576912.336    -2215567.256 4  -1626201.09149  21576915.3364
  20440772.602    -7857069.207 6  -4664797.97649  20440774.4884
  19007432.125    -7294576.075 7 -21563686.40349  19007431.5744
 95  2 19 20 20 29.9920000  0  7 18 28 19 31  2 27 29
  17775443.219   -25027723.122 7 -25623186.66549  17775442.0704
  20774203.625   -13257404.848 6 -10221803.73649  20774203.2744
  18504481.742   -22795650.115 7 -16450591.97949  18504480.7464
  19358982.414   -14298325.346 6 -14396964.66849  19358982.1334
  21559102.500    -2309161.471 5  -1699131.54349  21559105.0084
  20426153.383    -7933894.333 6  -4724661.66549  20426154.5554
  19017564.711    -7241328.496 6 -21522194.82849  19017564.2314
 95  2 19 20 20 59.9920000  0  7 18 28 19 31  2 27 29
  17775810.289   -25025793.473 7 -25621683.05049  17775809.0474
  20777738.914   -13238828.752 6 -10207328.88749  20777739.2314
  18498452.484   -22827334.918 7 -16475281.43349  18498451.4414
  19350191.492   -14344521.840 6 -14432961.91449  19350191.8094
  21541332.172    -2402543.640 5  -1771896.79249  21541337.2814
  20411547.375    -8010649.174 6  -4784470.57749  20411548.8054
  19027786.164    -7187614.849 6 -21480340.07949  19027785.6604
 95  2 19 20 21 29.9920000  0  7 18 28 19 31  2 27 29
  17776283.641   -25023306.491 7 -25619745.15049  17776282.2934
  20781381.875   -13219683.806 6 -10192410.75849  20781381.9104
  18492455.484   -22858849.321 7 -16499838.10949  18492454.6174
  19341510.500   -14390140.408 6 -14468508.83549  19341510.6644
  21523602.258    -2495712.891 5  -1844496.10349  21523606.3244
  20396954.453    -8087336.732 6  -4844227.06349  20396955.3204
  19038092.531    -7133453.965 6 -21438136.83549  19038091.8874
 95  2 19 20 21 59.9920000  0  7 18 28 19 31  2 27 29
  17776862.250   -25020266.274 7 -25617376.15649  17776861.0554
  20785134.234   -13199965.055 6 -10177045.51949  20785134.2464
  18486491.273   -22890191.233 7 -16524260.37449  18486490.3834
  19332940.797   -14435174.940 6 -14503600.65749  19332940.8674
  21505917.391    -2588650.990 5  -1916915.33349  21505921.7384
  20382376.445    -8163944.093 6  -4903921.05449  20382377.9814
  19048482.484    -7078855.126 6 -21395592.32749  19048481.8524
 95  2 19 20 22 29.9920000  0  7 18 28 19 31  2 27 29
  17777543.461   -25016685.900 7 -25614586.25849  17777541.9024
  20788992.656   -13179688.992 6 -10161245.99749  20788993.1484
  18480557.266   -22921374.091 7 -16548558.70249  18480556.3054
  19324480.680   -14479633.645 6 -14538243.78649  19324480.9494
  21488272.750    -2681369.515 5  -1989163.46249  21488277.1094
  20367812.586    -8240476.140 6  -4963556.37049  20367813.6524
  19058953.344    -7023831.530 6 -21352716.83849  19058952.5594
 95  2 19 20 22 59.9920000  0  7 18 28 19 31  2 27 29
  17778324.313   -25012582.512 7 -25611388.82149  17778322.8484
  20792956.438   -13158857.794 6 -10145013.92049  20792956.4614
  18474656.688   -22952382.209 7 -16572720.86749  18474655.7974
  19316129.039   -14523520.329 6 -14572441.18149  19316129.0164
  21470670.898    -2773869.141 5  -2061241.02149  21470674.3564
  20353264.141    -8316928.982 6  -5023129.96149  20353265.7934
  19069501.922    -6968397.868 6 -21309521.82149  19069501.1954
 95  2 19 20 23 29.9920000  0  7 18 28 19 31  2 27 29
  17779208.805   -25007935.717 7 -25607767.94649  17779207.3754
  20797027.047   -13137467.285 6 -10128346.00549  20797027.9614
  18468793.492   -22983193.535 7 -16596729.68149  18468792.6254
  19307888.047   -14566826.686 6 -14606186.37949  19307888.0354
  21453116.008    -2866122.169 5  -2133126.42549  21453119.8164
  20338731.805    -8393297.745 6  -5082638.03449  20338732.7664
  19080129.094    -6912552.509 6 -21266005.99749  19080128.3914
 95  2 19 20 23 59.9920000  0  7 18 28 19 31  2 27 29
  17780200.789   -25002722.424 7 -25603705.64149  17780199.4184
  20801205.039   -13115511.512 6 -10111237.63049  20801205.5784
  18462970.016   -23013796.402 7 -16620576.06249  18462968.7624
  19299758.383   -14609549.486 6 -14639476.85549  19299758.5594
  21435609.820    -2958115.476 5  -2204809.43349  21435613.8524
  20324215.227    -8469582.013 6  -5142080.26549  20324216.6564
  19090838.852    -6856271.515 6 -21222150.72149  19090838.2894
 95  2 19 20 24 29.9920000  0  7 18 28 19 31  2 27 29
  17781300.984   -24996939.543 7 -25599199.50649  17781299.6484
  20805488.938   -13092999.583 6 -10093695.88449  20805489.3364
  18457185.602   -23044192.856 7 -16644261.60349  18457184.5944
  19291736.250   -14651705.613 6 -14672325.75949  19291736.3914
  21418152.719    -3049855.471 5  -2276295.07949  21418157.4774
  20309712.141    -8545798.111 6  -5201469.37549  20309713.1374
  19101630.547    -6799561.375 6 -21177961.04749  19101630.2314
 95  2 19 20 24 59.9920000  0  7 18 28 19 31  2 27 29
  17782507.383   -24990601.221 7 -25594260.55849  17782506.1414
  20809878.063   -13069933.950 6 -10075722.67549  20809878.0514
  18451440.094   -23074386.209 7 -16667788.88049  18451439.1564
  19283820.992   -14693301.056 6 -14704737.76949  19283820.9344
  21400741.773    -3141348.570 5  -2347588.33449  21400744.5864
  20295219.313    -8621956.614 6  -5260813.61749  20295220.5784
  19112501.375    -6742435.104 6 -21133447.11849  19112500.6954
 95  2 19 20 25 29.9920000  0  7 18 28 19 31  2 27 29
  17783822.047   -24983691.700 7 -25588876.51949  17783820.7584
  20814375.188   -13046303.350 6 -10057309.25049  20814375.1174
  18445733.633   -23104374.182 7 -16691156.13149  18445732.5204
  19276014.914   -14734321.461 6 -14736701.69649  19276014.8204
  21383378.914    -3232587.440 5  -2418683.49049  21383381.8204
  20280740.320    -8698043.195 6  -5320101.78949  20280741.8794
  19123454.781    -6684874.807 6 -21088594.98449  19123454.1844
 95  2 19 20 25 59.9920000  0  7 18 28 19 31  2 27 29
  17785243.195   -24976224.020 7 -25583057.55549  17785241.9884
  20818979.969   -13022103.728 6 -10038452.40049  20818980.5084
  18440062.883   -23134173.178 7 -16714376.12149  18440061.9104
  19268320.438   -14774755.503 6 -14768208.71149  19268320.2154
  21366062.000    -3323591.018 5  -2489595.30449  21366065.3634
  20266278.719    -8774039.871 6  -5379319.93249  20266280.1604
  19134491.305    -6626877.318 6 -21043402.18649  19134490.9534
 95  2 19 20 26 29.9920000  0  7 18 28 19 31  2 27 29
  17786768.813   -24968207.479 7 -25576810.90749  17786767.5354
  20823693.336   -12997335.183 6 -10019152.25249  20823693.7344
  18434426.391   -23163793.635 7 -16737456.99349  18434425.4774
  19260740.617   -14814587.570 6 -14799246.64649  19260740.6524
  21348789.906    -3414356.979 5  -2560321.95549  21348793.4454
  20251834.031    -8849946.818 6  -5438468.13949  20251835.2504
  19145608.336    -6568457.670 6 -20997880.42049  19145607.8674
 95  2 19 20 26 59.9920000  0  7 18 28 19 31  2 27 29
  17788400.992   -24959629.991 7 -25570127.16049  17788399.6914
  20828516.203   -12971988.376 5  -9999401.51449  20828516.5904
  18428825.125   -23193229.477 7 -16760394.00849  18428824.1644
  19253278.242   -14853803.629 6 -14829804.57849  19253278.0784
  21331564.609    -3504875.581 5  -2630855.86149  21331568.8164
  20237408.570    -8925753.055 6  -5497537.87149  20237409.8714
  19156807.680    -6509604.550 6 -20952020.89249  19156806.9884
 95  2 19 20 27 29.9920000  0  7 18 28 19 31  2 27 29
  17790144.953   -24950465.632 7 -25562986.11349  17790143.4774
  20833452.234   -12946052.168 5  -9979191.49849  20833452.7504
  18423261.227   -23222467.302 7 -16783176.72649  18423260.2774
  19245936.164   -14892386.454 6 -14859869.07849  19245935.9534
  21314394.047    -3595108.284 5  -2701166.98249  21314397.2344
  20223005.266    -9001444.023 6  -5556517.80249  20223006.2624
  19168093.508    -6450297.398 6 -20905807.57549  19168093.1804
 95  2 19 20 27 59.9920000  0  7 18 28 19 31  2 27 29
  17791998.164   -24940727.208 7 -25555397.74749  17791996.6644
  20838495.742   -12919549.138 5  -9958539.81149  20838496.8794
  18417732.023   -23251521.837 7 -16805816.62149  18417731.0164
  19238710.508   -14930357.283 6 -14889456.69849  19238710.1684
  21297277.000    -3685059.560 5  -2771258.81049  21297279.0514
  20208617.156    -9077051.914 6  -5615432.99149  20208618.2464
  19179461.539    -6390559.394 6 -20859258.52749  19179461.3404
 95  2 19 20 28 29.9920000  0  7 18 28 19 31  2 27 29
  17793959.367   -24930420.922 7 -25547366.88549  17793957.8914
  20843644.664   -12892490.715 5  -9937455.34049  20843644.7704
  18412240.656   -23280380.356 7 -16828303.77249  18412239.4734
  19231597.313   -14967737.420 6 -14918584.04049  19231597.2774
  21280215.508    -3774717.694 5  -2841122.22149  21280218.6374
  20194243.211    -9152588.173 6  -5674292.36949  20194243.9384
  19190909.336    -6330400.065 6 -20812381.17449  19190908.8674
 95  2 19 20 28 59.9910000  0  7 18 28 19 31  2 27 29
  17796027.128   -24919553.450 7 -25538898.73849  17796025.7924
  20848896.198   -12864893.221 5  -9915950.83549  20848896.9014
  18406785.105   -23309048.385 7 -16850642.49849  18406784.2614
  19224594.050   -15004538.395 6 -14947260.08849  19224593.8744
  21263206.745    -3864097.388 5  -2910768.65349  21263210.1554
  20179884.019    -9228045.125 6  -5733089.94749  20179885.3904
  19202435.987    -6269829.173 6 -20765183.12249  19202435.5304
 95  2 19 20 29 29.9910000  0  7 18 28 19 31  2 27 29
  17798201.745   -24908127.174 7 -25529995.16349  17798200.2334
  20854251.565   -12836749.116 5  -9894020.39549  20854251.6944
  18401366.269   -23337525.311 7 -16872832.31049  18401365.4604
  19217702.651   -15040754.244 6 -14975480.19649  19217702.8514
  21246249.964    -3953207.978 5  -2980205.40349  21246252.4954
  20165542.284    -9303412.811 6  -5791817.97049  20165542.9994
  19214043.550    -6208831.195 6 -20717652.28149  19214042.9764
 95  2 19 20 29 59.9910000  0  7 18 28 19 31  2 27 29
  17800478.792   -24896161.288 7 -25520671.11049  17800477.4214
  20859709.136   -12808070.169 5  -9871673.19149  20859709.8274
  18395981.401   -23365822.363 7 -16894881.96049  18395980.3584
  19210919.440   -15076400.451 6 -15003256.42949  19210919.2184
  21229336.245    -4042086.843 5  -3049461.58649  21229338.5194
  20151217.886    -9378688.605 6  -5850474.39249  20151218.7884
  19225729.222    -6147420.290 6 -20669799.67249  19225728.5074
 95  2 19 20 30 29.9910000  0  6 18 19 31  2 27 29
  17802856.495   -24883666.379 7 -25510934.83049  17802854.9834
  18390628.831   -23393951.006 7 -16916800.38049  18390627.9294
  19204245.566   -15111470.420 6 -15030583.64649  19204245.2144
  21212463.855    -4130752.404 5  -3118551.56349  21212466.9834
  20136911.792    -9453866.131 6  -5909054.23849  20136912.5424
  19237493.581    -6085598.971 6 -20621627.25849  19237493.0774
 95  2 19 20 30 59.9910000  0  7 18 28 19 31  2 27 29
  17805332.761   -24870652.312 7 -25500794.00949  17805331.2494
                     28753.242 5     17801.35319  20870927.190    20870926.964
  18385304.175   -23421932.486 7 -16938604.12749  18385303.3664
  19197682.753   -15145957.963 6 -15057457.02549  19197682.6834
  21195626.495    -4219232.009 5  -3187496.61849  21195629.0734
  20122620.651    -9528966.407 6  -5967573.89449  20122621.4954
  19249335.284    -6023371.283 6 -20573138.20149  19249334.6984
 95  2 19 20 31 29.9910000  0  7 18 28 19 31  2 27 29
  17807906.237   -24857128.895 7 -25490256.29749  17807904.7264
                     59027.272 5     41391.469 9  20876688.175    20876687.940
  18380009.206   -23449757.956 7 -16960286.30549  18380008.3514
  19191232.034   -15179856.318 6 -15083871.30249  19191231.9294
  21178828.128    -4307508.387 5  -3256283.33749  21178830.3904
  20108343.300    -9603994.068 6  -6026036.96449  20108343.5114
  19261256.339    -5960726.405 6 -20524324.06049  19261255.8824
 95  2 19 20 31 59.9910000  0  7 18 28 19 31  2 27 29
  17810577.128   -24843093.854 7 -25479319.91549  17810575.4874
                     89829.267 5     65392.993 9  20882549.620    20882549.269
  18374744.769   -23477421.933 7 -16981842.65149  18374743.8084
  19184894.128   -15213161.600 6 -15109823.44549  19184894.1634
  21162070.589    -4395568.463 5  -3324901.50149  21162073.2024
  20094075.714    -9678970.729 6  -6084460.29349  20094077.1324
  19273253.339    -5897680.297 6 -20475197.27549  19273252.8944
 95  2 19 20 32 29.9910000  0  7 18 28 19 31  2 27 29
  17813346.151   -24828542.646 7 -25467981.32549  17813344.7104
                    121151.509 5     89799.903 9  20888510.093    20888509.784
  18369511.355   -23504924.351 7 -17003273.10449  18369510.4994
  19178671.409   -15245862.604 6 -15135304.72849  19178671.5154
  21145357.855    -4483396.367 5  -3393338.76149  21145360.1054
  20079814.620    -9753914.194 6  -6142857.76249  20079815.2764
  19285324.183    -5834248.437 6 -20425769.90149  19285323.4914
 95  2 19 20 32 59.9910000  0  7 18 28 19 31  2 27 29
  17816214.878   -24813467.892 7 -25456234.77949  17816213.3554
                    153001.342 5    114617.916 9  20894570.882    20894570.769
  18364313.409   -23532239.158 7 -17024557.36449  18364312.4134
  19172562.956   -15277962.321 6 -15160317.47249  19172562.9444
  21128692.144    -4570974.145 5  -3461581.13049  21128694.2764
  20065561.214    -9828814.194 6  -6201221.35049  20065561.8704
  19297469.745    -5770423.046 6 -20376035.87849  19297469.4644
 95  2 19 20 33 29.9910000  0  7 18 28 19 31  2 27 29
  17819184.714   -24797859.903 7 -25444072.72749  17819183.1324
                    185381.180 5    139848.919 9  20900732.628    20900732.386
  18359154.269   -23559350.834 7 -17045683.34049  18359153.4954
  19166568.034   -15309465.949 6 -15184865.72949  19166567.9294
  21112077.792    -4658282.651 5  -3529613.64749  21112080.9094
  20051319.612    -9903653.818 6  -6259537.89749  20051320.5384
  19309688.855    -5706211.325 6 -20326000.81349  19309688.5264
 95  2 19 20 33 59.9910000  0  7 18 28 19 31  2 27 29
  17822259.269   -24781704.060 7 -25431483.77549  17822257.6874
  20906994.776                       18711.40715
  18354033.862   -23586258.947 7 -17066650.70049  18354033.0424
  19160686.198   -15340375.115 6 -15208950.77449  19160685.7064
  21095511.972    -4745335.603 5  -3597447.04649  21095515.4054
  20037091.558    -9978422.226 6  -6317798.94549  20037092.3314
  19321982.159    -5641610.076 6 -20275662.22149  19321982.1244
 95  2 19 20 34 29.9910000  0  7 18 28 19 31  2 27 29
  17825436.487   -24765008.001 7 -25418473.87549  17825434.7884
  20913358.855       52153.003 5      8731.53859  20913359.4174
  18348949.995   -23612975.120 7 -17087468.49449  18348949.2454
  19154914.339   -15370708.507 6 -15232587.16249  19154914.4214
  21078992.230    -4832150.416 5  -3665094.87049  21078995.1714
  20022879.378   -10053109.011 6  -6375996.38849  20022880.0694
  19334351.722    -5576608.282 6 -20225011.51749  19334351.3944
 95  2 19 20 34 59.9910000  0  7 18 28 19 31  2 27 29
  17828717.144   -24747768.122 7 -25405040.22049  17828715.6794
  20919826.550       86140.255 5     35215.06849  20919826.7374
  18343903.222   -23639494.264 7 -17108132.75649  18343902.6124
  19149251.823   -15400463.483 6 -15255772.83249  19149251.8004
  21062519.917    -4918713.916 5  -3732546.87749  21062523.0234
  20008686.933   -10127691.928 6  -6434112.89349  20008687.6834
  19346801.151    -5511184.808 6 -20174032.23349  19346800.8004
 95  2 19 20 35 29.9910000  0  7 18 28 19 31  2 27 29
  17832104.448   -24729967.921 7 -25391169.95149  17832102.7964
  20926397.417      120671.094 5     62122.16649  20926397.3944
  18338890.698   -23665836.987 7 -17128659.54549  18338889.7964
  19143701.456   -15429630.873 6 -15278500.65249  19143701.1634
  21046096.800    -5005013.610 5  -3799793.32849  21046099.7064
  19994512.183   -10202178.534 6  -6492154.35549  19994513.1554
  19359330.261    -5445344.727 6 -20122728.31449  19359330.1914
 95  2 19 20 35 59.9910000  0  7 18 28 19 31  2 27 29
  17835602.323   -24711586.671 7 -25376846.91449  17835600.7884
  20933074.542      155755.786 5     89460.83149  20933075.3624
  18333913.136   -23691993.843 7 -17149041.50949  18333911.9994
  19138267.464   -15458185.184 6 -15300750.73949  19138267.0424
  21029727.394    -5091035.066 5  -3866822.96749  21029730.9914
  19980356.550   -10276567.489 6  -6550119.73249  19980357.4874
  19371942.097    -5379070.149 6 -20071085.83649  19371942.0384
 95  2 19 20 36 29.9910000  0  7 18 28 19 31  2 27 29
  17839211.159   -24692621.091 7 -25362068.56349  17839209.6594
  20939855.097      191390.952 5    117228.42649  20939855.2614
  18328972.386   -23717956.616 7 -17169272.23749  18328971.6714
  19132953.698   -15486110.209 6 -15322510.47749  19132953.6634
  21013415.847    -5176753.072 5  -3933616.15649  21013418.0504
  19966216.503   -10350874.184 6  -6608021.01749  19966216.9604
  19384632.206    -5312381.388 6 -20019120.61349  19384632.0774
 95  2 19 20 36 59.9910000  0  7 18 28 19 31  2 27 29
  17842933.245   -24673062.879 7 -25346828.41349  17842931.7924
  20946741.808      227579.014 5    145426.87649  20946742.1834
  18324071.589   -23743712.146 7 -17189341.47349  18324070.6984
  19127764.519   -15513381.230 6 -15343760.60849  19127764.3664
  20997163.495    -5262161.098 5  -4000167.82249  20997165.0074
  19952093.089   -10425093.610 6  -6665854.28749  19952093.5934
  19397398.558    -5245294.572 6 -19966845.22149  19397398.6984
 95  2 19 20 37 29.9910000  0  7 18 28 19 31  2 27 29
  17846770.105   -24652899.841 7 -25331116.97949  17846768.5114
  20953733.839      264322.738 5    174058.29549  20953734.9174
  18319212.862   -23769244.185 7 -17209236.56049  18319211.9724
  19122699.909   -15539993.636 6 -15364497.53049  19122699.6054
  20980966.659    -5347274.962 5  -4066490.25149  20980969.3084
  19937987.105   -10499219.991 6  -6723615.06649  19937987.5974
  19410241.097    -5177807.325 6 -19914257.79949  19410240.8274
 95  2 19 20 37 59.9910000  0  8 18 16 28 19 31  2 27 29
  17850718.737   -24632150.043 7 -25314948.32749  17850717.2374
  22294884.847      -45763.03613
  20960830.534      301616.308 5    203118.15849  20960831.4604
  18314397.792   -23794547.766 7 -17228953.63349  18314397.0074
  19117760.605   -15565951.784 6 -15384724.64249  19117760.5234
  20964821.565    -5432117.032 5  -4132600.88449  20964823.1714
  19923901.550   -10573238.665 6  -6781291.91949  19923902.0544
  19423159.284    -5109922.611 6 -19861360.65749  19423159.0504
 95  2 19 20 38 29.9910000  0  8 18 16 28 19 31  2 27 29
  17854776.237   -24610827.559 7 -25298333.42149  17854774.7264
  22283609.894     -105010.688 3
  20968031.042      339456.910 5    232604.28849  20968031.3124
  18309624.894   -23819629.488 7 -17248497.83649  18309624.2494
  19112943.464   -15591265.625 6 -15404449.68949  19112943.2764
  20948726.808    -5516696.541 5  -4198506.92849  20948729.3984
  19909839.964   -10647133.840 6  -6838872.53549  19909840.4444
  19436151.222    -5041648.831 6 -19808160.36349  19436151.0464
 95  2 19 20 38 59.9910000  0  8 18 16 28 19 31  2 27 29
  17858941.128   -24588940.255 7 -25281278.39749  17858939.5694
  22272429.136     -163769.127 3    -30481.09456  22272433.0504
  20975334.112      377833.334 5    262507.93749  20975334.4994
  18304890.737   -23844507.466 7 -17267883.27249  18304890.0234
  19108245.839   -15615951.686 6 -15423685.57549  19108245.6054
  20932676.667    -5601038.987 5  -4264228.25549  20932679.6794
  19895802.823   -10720899.204 6  -6896352.00749  19895803.5734
  19449219.417    -4972974.733 6 -19754648.11549  19449219.0304
 95  2 19 20 39 29.9910000  0  8 18 16 28 19 31  2 27 29
  17863210.784   -24566503.357 7 -25263795.11749  17863209.4604
  22261337.784     -222051.493 3    -75895.90148  22261342.8474
  20982737.722      416738.174 5    292823.36049  20982738.1554
  18300193.753   -23869189.726 7 -17287116.20449  18300192.9804
  19103667.761   -15640009.768 6 -15442432.13049  19103667.5504
  20916673.714    -5685136.170 5  -4329758.46949  20916675.7414
  19881789.190   -10794542.063 6  -6953736.01649  19881789.4724
  19462364.839    -4903895.389 6 -19700820.10049  19462364.2414
 95  2 19 20 39 59.9910000  0  8 18 16 28 19 31  2 27 29
  17867584.136   -24543520.648 7 -25245886.53049  17867582.9054
  22250338.206     -279854.350 3   -120937.04947  22250343.4444
  20990241.706      456170.484 5    323549.77349  20990242.1874
  18295534.120   -23893676.552 7 -17306196.84649  18295533.2884
  19099212.472   -15663421.850 6 -15460675.30249  19099212.4954
  20900720.331    -5768968.950 5  -4395082.65949  20900722.9804
  19867795.901   -10868075.147 6  -7011034.49649  19867796.4994
  19475586.925    -4834414.192 6 -19646678.95049  19475586.5974
 95  2 19 20 40 29.9910000  0  8 18 16 28 19 31  2 27 29
  17872062.183   -24519989.586 7 -25227550.65849  17872060.7764
  22239435.355     -337148.158 3   -165581.53347  22239440.7924
  20997846.323      496133.908 5    354690.07849  20997846.1484
  18290912.550   -23917963.684 7 -17325121.88449  18290911.7764
  19094882.620   -15686175.808 6 -15478405.64649  19094882.2574
  20884820.284    -5852526.602 5  -4460192.47249  20884823.1324
  19853821.448   -10941513.375 6  -7068259.06049  19853821.8354
  19488886.011    -4764525.125 6 -19592219.97449  19488885.9054
 95  2 19 20 40 59.9910000  0  8 18 16 28 19 31  2 27 29
  17876642.667   -24495918.736 7 -25208794.17149  17876641.0974
  22228631.995     -393920.313 4   -209819.55547  22228636.7534
  21005550.112      536618.278 5    386236.29149  21005550.4874
  18286327.495   -23942058.823 7 -17343897.31449  18286327.0154
  19090676.144   -15708281.611 6 -15495630.93949  19090676.1324
  20868971.933    -5935807.773 5  -4525086.83449  20868974.3824
  19839859.667   -11014882.146 6  -7125429.49849  19839860.3584
  19502261.753    -4694234.894 6 -19537448.41449  19502261.5304
 95  2 19 20 41 29.9910000  0  8 18 16 28 19 31  2 27 29
  17881323.644   -24471319.766 7 -25189626.16549  17881322.1554
  22217925.917     -450184.328 4   -253661.60347  22217929.5034
  21013351.347      577614.850 5    418181.62849  21013352.2614
  18281776.691   -23965973.358 7 -17362532.01749  18281776.0234
  19086589.519   -15729756.093 6 -15512364.29249  19086589.2144
  20853176.112    -6018816.175 5  -4589768.65649  20853179.1124
  19825908.136   -11088197.584 6  -7182558.37349  19825908.6284
  19515709.401    -4623567.932 6 -19482383.29049  19515709.3554
 95  2 19 20 41 59.9910000  0  8 18 16 28 19 31  2 27 29
  17886107.800   -24446178.919 7 -25170035.91149  17886106.4174
  22207315.925     -505938.174 3   -297106.13647  22207320.9524
  21021250.175      619122.574 5    450525.27749  21021250.0464
  18277259.480   -23989711.087 7 -17381028.94749  18277258.7884
  19082618.230   -15750626.483 6 -15528626.92249  19082617.5854
  20837431.815    -6101553.411 5  -4654239.17049  20837434.7104
  19811969.284   -11161446.939 6  -7239635.75049  19811969.9294
  19529228.605    -4552525.934 6 -19427025.93749  19529228.6284
 95  2 19 20 42 29.9910000  0  8 18 16 28 19 31  2 27 29
  17890993.784   -24420502.883 7 -25150028.62849  17890992.4724
  22196802.847     -561187.879 3   -340157.83248  22196808.0974
  21029245.753      661138.035 5    483264.55249  21029246.9954
  18272774.394   -24013279.967 7 -17399394.30949  18272773.7024
  19078757.566   -15770913.782 6 -15544435.20349  19078757.0974
  20821738.730    -6184021.067 5  -4718499.60249  20821741.6364
  19798047.105   -11234608.610 6  -7296644.80749  19798047.5504
  19542817.456    -4481115.906 6 -19371381.80049  19542817.2574
 95  2 19 20 42 59.9910000  0  8 18 16 28 19 31  2 27 29
  17895980.823   -24394296.182 7 -25129607.83849  17895979.6634
  22186378.316     -615964.766 3   -382841.09348  22186382.8744
  21037336.511      703656.547 5    516395.82549  21037336.8744
  18268321.573   -24036680.201 7 -17417628.25049  18268320.8234
  19075005.808   -15790628.896 6 -15559797.62249  19075005.6674
  20806096.042    -6266224.312 5  -4782554.03349  20806098.4214
  19784143.409   -11307671.901 6  -7353577.20949  19784143.7144
  19556473.940    -4409350.339 6 -19315460.62949  19556473.7884
 95  2 19 20 43 29.9910000  0  8 18 16 28 19 31  2 27 29
  17901069.628   -24367555.261 7 -25108770.77349  17901068.2224
  22176044.175     -670268.949 3   -425156.01347  22176049.0974
  21045523.269      746677.912 5    549918.93449  21045523.5384
  18263903.253   -24059899.415 7 -17435721.14549  18263902.3044
  19071363.706   -15809767.772 6 -15574711.01849  19071363.6124
  20790503.394    -6348166.000 5  -4846404.63549  20790505.2694
  19770263.128   -11380614.240 6  -7410415.34849  19770263.6204
  19570197.659    -4337231.457 6 -19259264.13749  19570197.4254
 95  2 19 20 43 59.9910000  0  8 18 16 28 19 31  2 27 29
  17906257.886   -24340290.260 7 -25087525.33549  17906256.3624
  22165802.894     -724089.663 3   -467094.16746  22165806.4214
  21053805.347      790198.453 5    583830.98449  21053806.5544
  18259521.667   -24082924.357 7 -17453662.65849  18259520.6714
  19067833.191   -15828321.293 6 -15589168.29649  19067832.9684
  20774959.612    -6429846.528 5  -4910051.74749  20774961.6054
  19756406.964   -11453427.120 6  -7467152.60249  19756407.3274
  19583989.644    -4264755.758 6 -19202789.61749  19583989.3744
 95  2 19 20 44 29.9910000  0  8 18 16 28 19 31  2 27 29
  17911545.956   -24312501.663 7 -25065871.90249  17911544.6084
  22155656.128     -777409.173 3   -508641.80646  22155660.8984
  21062182.331      834222.055 5    618135.04149  21062184.8044
  18255180.323   -24105738.410 7 -17471439.83849  18255179.5384
  19064421.300   -15846249.745 6 -15603138.51049  19064421.1364
  20759466.026    -6511262.836 5  -4973492.94549  20759468.1944
  19742573.058   -11526125.691 6  -7523800.78749  19742573.4914
  19597850.276    -4191916.405 6 -19146031.71349  19597849.9604
 95  2 19 20 44 59.9910000  0  8 18 16 28 19 31  2 27 29
  17916934.800   -24284182.739 7 -25043805.22249  17916933.6514
  22145606.612     -830218.928 3   -549792.27547  22145612.3314
  21070654.651      878742.190 5    652826.02949  21070655.4834
  18250880.097   -24128336.193 7 -17489048.49749  18250879.1484
  19061130.003   -15863548.447 6 -15616618.00749  19061129.7224
  20744022.253    -6592421.794 5  -5036733.61949  20744024.0464
  19728755.183   -11598739.570 6  -7580382.97649  19728755.6874
  19611780.753    -4118712.750 6 -19088989.95849  19611780.8704
 95  2 19 20 45 29.9910000  0  8 18 16 28 19 31  2 27 29
  17922427.940   -24255315.939 7 -25021311.63049  17922426.5694
  22135658.886     -882497.118 3   -590528.41746  22135660.5974
  21079223.370      923769.416 5    687912.13249  21079224.2264
  18246624.308   -24150701.043 7 -17506475.65249  18246623.2884
  19057960.323   -15880202.347 6 -15629595.06649  19057959.9484
  20728630.347    -6673308.187 5  -5099761.92049  20728633.1244
  19714953.323   -11671267.516 6  -7636898.20749  19714953.6984
  19625785.112    -4045118.650 6 -19031643.95649  19625784.9014
 95  2 19 20 45 59.9910000  0  8 18 16 28 19 31  2 27 29
  17928025.183   -24225903.286 7 -24998392.69449  17928023.8004
  22125807.550     -934266.180 3   -630867.96046  22125810.3744
  21087886.534      969297.043 5    723388.15649  21087887.1204
  18242408.175   -24172857.184 7 -17523740.17149  18242407.3314
  19054914.940   -15896207.626 6 -15642066.70249  19054914.4954
  20713289.409    -6753924.414 5  -5162579.67749  20713291.8124
  19701162.097   -11743740.632 6  -7693370.70549  19701162.5774
  19639864.175    -3971133.184 6 -18973992.99649  19639864.2574
 95  2 19 20 46 29.9910000  0  8 18 16 28 19 31  2 27 29
  17933729.565   -24195926.012 7 -24975033.79649  17933728.0544
  22116054.237     -985517.461 3   -670803.98045  22116056.6634
  21096647.831     1015339.299 5    759265.18449  21096648.8154
  18238233.636   -24194792.488 7 -17540832.61349  18238232.9684
  19051995.448   -15911549.801 6 -15654021.63049  19051994.9334
  20698003.073    -6834253.821 5  -5225173.96149  20698005.3584
  19687382.237   -11816155.280 6  -7749797.65149  19687382.9644
  19654019.464    -3896746.396 6 -18916029.31149  19654019.6284
 95  2 19 20 46 59.9910000  0  8 18 16 28 19 31  2 27 29
  17939540.823   -24165388.342 7 -24951238.23249  17939539.4524
  22106396.073    -1036273.728 3   -710354.23046  22106401.0664
  21105506.308     1061891.450 5    795539.54749  21105506.6244
  18234098.948   -24216522.383 7 -17557764.99649  18234098.0234
  19049195.980   -15926259.850 6 -15665483.99849  19049195.6634
  20682770.745    -6914301.706 5  -5287548.87849  20682773.6754
  19673615.386   -11888499.718 6  -7806169.88349  19673615.6674
  19668248.792    -3821971.536 6 -18857763.23549  19668248.9684
 95  2 19 20 47 29.9910000  0  8 18 16 28 19 31  2 27 29
  17945460.730   -24134277.835 7 -24926996.29749  17945459.6164
  22096832.245    -1086535.697 3   -749519.37346  22096836.9564
  21114465.050     1108968.670 5    832223.03649  21114466.7024
  18230005.308   -24238034.439 7 -17574527.63449  18230004.4294
  19046520.730   -15940319.079 6 -15676439.22649  19046520.5654
  20667594.816    -6994051.187 5  -5349691.26649  20667597.3824
  19659867.292   -11960745.886 6  -7862465.55049  19659867.5624
  19682552.987    -3746802.406 6 -18799189.93649  19682553.8904
 95  2 19 20 47 59.9910000  0  8 18 16 28 19 31  2 27 29
  17951488.448   -24102602.031 7 -24902313.87049  17951487.4054
  22087363.081    -1136293.928 3   -788292.02846  22087367.1014
  21123523.448     1156567.599 5    869313.06849  21123524.7024
  18225950.933   -24259339.714 7 -17591129.14949  18225950.3944
  19043971.073   -15953716.889 6 -15686879.07149  19043970.8154
  20652474.464    -7073508.417 5  -5411605.92849  20652476.7614
  19646139.175   -12032888.161 6  -7918680.25249  19646139.6084
  19696927.401    -3671265.852 6 -18740330.33449  19696927.8354
 95  2 19 20 48 29.9910000  0  8 18 16 28 19 31  2 27 29
  17957623.081   -24070363.428 7 -24877192.89949  17957622.1794
  22077993.815    -1185526.026 3   -826654.67145  22077997.9404
  21132680.253     1204688.624 5    906809.92149  21132681.4014
  18221939.401   -24280421.309 7 -17607556.36949  18221938.5464
  19041546.894   -15966456.185 6 -15696805.78649  19041546.5194
  20637407.316    -7152687.604 5  -5473303.93449  20637409.7534
  19632433.542   -12104912.398 6  -7974802.98949  19632434.1284
  19711368.112    -3595377.461 6 -18681196.57849  19711368.3234
 95  2 19 20 48 59.9910000  0  8 18 16 28 19 31  2 27 29
  17963868.355   -24037545.703 7 -24851620.66649  17963867.4174
  22068728.933    -1234212.752 3   -864592.29246  22068734.4294
  21141937.667     1253335.627 5    944716.62549  21141938.6874
  18217969.987   -24301279.404 7 -17623809.43349  18217969.4134
  19039249.464   -15978529.938 6 -15706213.89849  19039249.0304
  20622393.659    -7231583.781 5  -5534781.40749  20622396.1674
  19618753.401   -12176800.798 6  -8030819.87449  19618753.7304
  19725876.144    -3519139.154 6 -18621790.15049  19725876.5894
 95  2 19 20 49 29.9910000  0  8 18 16 28 19 31  2 27 29
  17970221.862   -24004158.279 7 -24825604.51149  17970221.0074
  22059571.573    -1282339.304 3   -902093.40446  22059575.1014
  21151294.300     1302505.566 5    983030.79849  21151294.4294
  18214045.144   -24321905.034 7 -17639881.35749  18214044.4404
  19037082.573   -15989916.870 6 -15715086.82449  19037082.4564
  20607434.089    -7310196.850 5  -5596038.28849  20607436.1054
  19605099.269   -12248552.730 6  -8086730.42849  19605100.0774
  19740451.401    -3442544.699 6 -18562106.19949  19740452.0934
 95  2 19 20 49 59.9910000  0  8 18 16 28 19 31  2 27 29
  17976687.190   -23970183.333 7 -24799130.54649  17976685.9724
  22050526.573    -1329866.994 3   -939127.91445  22050532.3164
  21160755.659     1352223.220 5   1021771.77449  21160756.5264
  18210167.901   -24342280.041 7 -17655757.98449  18210167.1754
  19035048.956   -16000601.730 6 -15723412.67449  19035048.5584
  20592533.448    -7388498.768 5  -5657052.70149  20592535.1244
  19591478.230   -12320130.743 6  -8142505.46549  19591478.7574
  19755101.620    -3365557.219 6 -18502116.01649  19755101.6084
 95  2 19 20 50 29.9910000  0  8 18 16 28 19 31  2 27 29
  17983267.292   -23935603.853 7 -24772185.51649  17983265.9684
  22041595.722    -1376800.146 3   -975699.17047  22041596.2264
  21170321.769     1402495.301 5   1060944.76749  21170323.1634
  18206341.441   -24362389.170 7 -17671427.43049  18206340.6324
  19033146.058   -16010601.403 6 -15731204.62049  19033145.5544
  20577695.737    -7466469.378 5  -5717808.95049  20577698.5154
  19577893.753   -12391518.361 6  -8198132.13949  19577893.9294
  19769831.948    -3288149.667 6 -18441798.49149  19769832.5694
 95  2 19 20 50 59.9910000  0  8 18 16 28 19 31  2 27 29
  17989959.073   -23900438.617 7 -24744784.05749  17989957.8434
  22032773.964    -1423156.853 3  -1011821.20345  22032777.7964
  21179992.698     1453315.130 5   1100544.58149  21179993.4374
  18202563.284   -24382242.055 7 -17686897.21049  18202562.5814
  19031372.667   -16019921.806 6 -15738467.26949  19031372.0814
  20562925.433    -7544092.482 5  -5778294.43449  20562927.8354
  19564345.183   -12462716.228 6  -8253610.95649  19564345.1014
  19784643.894    -3210311.458 6 -18381145.38849  19784644.2694
 95  2 19 20 51 29.9910000  0  8 18 16 28 19 31  2 27 29
  17996756.253   -23864718.631 7 -24716950.32249  17996755.3044
  22024057.026    -1468965.534 3  -1047516.24947  22024061.3864
  21189764.191     1504667.370 5   1140559.25149  21189765.4914
  18198831.261   -24401854.527 7 -17702179.65349  18198830.3354
  19029724.136   -16028583.966 6 -15745217.00449  19029723.8664
  20548216.511    -7621385.147 5  -5838522.43449  20548218.4444
  19550828.034   -12533750.469 6  -8308962.27349  19550828.3154
  19799537.269    -3132046.913 6 -18320160.09549  19799538.6874
 95  2 19 20 51 59.9910000  0  8 18 16 28 19 31  2 27 29
  18003662.550   -23828426.472 7 -24688670.73949  18003661.4954
  22015443.487    -1514228.585 3  -1082786.15346  22015445.6084
  21199637.214     1556548.477 5   1180986.01949  21199638.5734
  18195142.347   -24421240.100 7 -17717285.29049  18195141.5154
  19028200.144   -16036592.557 6 -15751457.45649  19028199.9094
  20533570.566    -7698349.405 5  -5898494.50249  20533573.2374
  19537340.597   -12604626.532 6  -8364190.34549  19537340.7844
  19814508.269    -3053374.726 6 -18258857.13649  19814509.1594
 95  2 19 20 52 29.9910000  0  8 18 16 28 19 31  2 27 29
  18010677.901   -23791561.064 7 -24659944.46649  18010676.7414
  22006933.980    -1558942.396 3  -1117628.00742  22006937.3084
  21209610.542     1608956.709 5   1221823.54949  21209612.2064
  18191498.292   -24440390.919 7 -17732208.00549  18191497.5304
  19026803.972   -16043930.935 6 -15757175.67949  19026803.8664
  20518987.511    -7774983.995 5  -5958209.69449  20518989.8314
  19523879.409   -12675365.323 6  -8419311.44349  19523879.7264
  19829555.495    -2974300.854 6 -18197241.18949  19829556.3984
 95  2 19 20 52 59.9910000  0  8 18 16 28 19 31  2 27 29
  18017802.487   -23754120.827 7 -24630770.27649  18017801.3624
  21998533.730    -1603091.814 3  -1152030.07145  21998538.3124
  21219684.605     1661896.101 5   1263074.95849  21219686.6444
  18187900.495   -24459296.628 7 -17746939.71149  18187899.7924
  19025540.362   -16050571.639 6 -15762350.25149  19025539.9994
  20504467.511    -7851288.009 5  -6017667.30449  20504469.9014
  19510442.620   -12745975.539 6  -8474332.35349  19510443.0424
  19844678.253    -2894828.328 6 -18135314.60449  19844679.1554
 95  2 19 20 53 29.9910000  0  8 18 16 28 19 31  2 27 29
  18025034.433   -23716116.583 7 -24601156.60349  18025033.2264
  21990236.894    -1646692.174 3  -1186004.36345  21990242.4014
  21229854.394     1715337.703 5   1304717.71649  21229855.6944
  18184344.784   -24477982.234 7 -17761499.91849  18184343.9644
  19024405.698   -16056534.245 7 -15766996.44449  19024405.0664
  20490003.667    -7927295.722 5  -6076894.02249  20490005.9294
  19497024.073   -12816490.903 6  -8529279.34849  19497024.5664
  19859872.026    -2814986.804 6 -18073100.48649  19859873.0814
 95  2 19 20 53 59.9910000  0  8 18 16 28 19 31  2 27 29
  18032377.480   -23677528.425 7 -24571087.93149  18032376.2844
  21982049.816    -1689717.115 3  -1219530.22546  21982054.6674
  21240120.948     1769290.211 5   1346758.55449  21240122.1324
  18180836.558   -24496417.539 7 -17775865.08049  18180835.4684
  19023403.675   -16061800.979 7 -15771100.39649  19023403.3584
  20475600.519    -8002984.563 6  -6135872.26549  20475602.7924
  19483627.784   -12886890.035 6  -8584135.77049  19483627.9604
  19875139.800    -2734753.189 6 -18010580.85549  19875140.4914
 95  2 19 20 54 29.9910000  0  8 18 16 28 19 31  2 27 29
  18039824.050   -23638396.311 7 -24540595.39249  18039823.1364
  21973968.925    -1732183.077 3  -1252620.54746  21973974.7264
  21250480.644     1823731.020 5   1389179.90149  21250481.6754
  18177375.722   -24514604.456 7 -17790036.69349  18177374.9724
  19022528.925   -16066396.413 6 -15774681.25849  19022528.4564
  20461253.581    -8078376.638 6  -6194619.27449  20461255.2104
  19470247.995   -12957200.463 6  -8638923.07449  19470248.0424
  19890480.925    -2654135.569 6 -17947761.98749  19890481.6634
 95  2 19 20 54 59.9910000  0  8 18 16 28 19 31  2 27 29
  18047374.073   -23598721.103 7 -24509679.66449  18047373.2884
  21965990.245    -1774100.432 3  -1285283.35046  21965992.8124
  21260931.261     1878649.163 5   1431973.19649  21260932.0234
  18173962.612   -24532540.838 7 -17804013.08549  18173961.8864
  19021781.183   -16070325.520 6 -15777742.90749  19021781.1244
  20446962.245    -8153477.878 6  -6253139.65049  20446964.3084
  19456885.151   -13027420.838 6  -8693640.20349  19456885.2454
  19905890.925    -2573154.406 6 -17884659.86149  19905892.2614
 95  2 19 20 55 29.9910000  0  8 18 16 28 19 31  2 27 29
  18055028.480   -23558496.793 7 -24478336.06549  18055027.4604
  21958119.847    -1815465.220 3  -1317515.65247  21958122.8944
  21271474.105     1934052.531 5   1475144.59849  21271476.3904
  18170597.901   -24550221.428 7 -17817790.15449  18170597.1514
  19021160.940   -16073585.073 6 -15780282.82149  19021160.5894
  20432727.230    -8228284.106 6  -6311430.14249  20432729.3394
  19443544.245   -13097528.672 6  -8748269.63949  19443544.4804
  19921371.800    -2491804.342 6 -17821270.25849  19921372.5264
 95  2 19 20 55 59.9910000  0  8 18 16 28 19 31  2 27 29
  18062787.433   -23517723.840 7 -24446564.95749  18062786.4484
  21950354.980    -1856276.911 3  -1349316.90648  21950359.5154
  21282111.144     1989948.439 5   1518699.79549  21282112.3164
  18167283.519   -24567638.866 7 -17831362.17249  18167282.7104
  19020667.581   -16076177.204 6 -15782302.66949  19020667.3704
  20418548.737    -8302790.809 6  -6369487.25249  20418550.7534
  19430227.573   -13167507.133 6  -8802798.26149  19430227.3154
  19936919.355    -2410100.243 6 -17757604.79449  19936919.8944
 95  2 19 20 56 29.9910000  0  8 18 16 28 19 31  2 27 29
  18070646.120   -23476427.110 7 -24414385.70849  18070644.7614
  21942686.675    -1896569.269 3  -1380713.47945  21942692.0424
  21292836.745     2046313.977 5   1562620.93449  21292837.6244
  18164012.956   -24584826.558 7 -17844755.16949  18164011.8664
  19020296.761   -16078125.719 6 -15783820.99149  19020296.3154
  20404422.878    -8377025.157 6  -6427332.12749  20404424.9294
  19416931.253   -13237380.098 6  -8857244.67749  19416931.0304
  19952524.378    -2328097.182 6 -17693706.37049  19952525.0584
 95  2 19 20 56 59.9910000  0  8 18 16 28 19 31  2 27 29
  18078605.128   -23434602.045 7 -24381794.77749  18078603.8624
  21935116.511    -1936348.873 3  -1411710.58045  21935119.3704
  21303653.269     2103152.592 5   1606910.70349  21303654.3704
  18160784.620   -24601790.784 7 -17857974.03149  18160783.6364
  19020047.565   -16079437.353 6 -15784843.04549  19020047.2964
  20390350.120    -8450976.837 6  -6484956.74549  20390352.1834
  19403660.175   -13307120.744 6  -8911587.99349  19403660.3624
  19968185.284    -2245797.846 6 -17629577.08849  19968186.5154
 95  2 19 20 57 29.9910000  0  8 18 16 28 19 31  2 27 29
  18086658.183   -23392283.109 7 -24348819.01049  18086657.0114
  21927640.440    -1975634.160 3  -1442322.38847  21927645.6794
  21314555.222     2160443.285 5   1651552.75349  21314557.1204
  18157593.230   -24618561.758 7 -17871042.31249  18157592.3514
  19019910.675   -16080155.240 6 -15785402.43949  19019910.1834
  20376325.800    -8524674.183 6  -6542383.18949  20376327.7224
  19390412.808   -13376734.357 6  -8965832.31249  19390412.8434
  19983899.300    -2163220.828 6 -17565231.42749  19983899.7454
 95  2 19 20 57 59.9910000  0  8 18 16 28 19 31  2 27 29
  18094805.878   -23349465.815 7 -24315454.90349  18094804.7654
  21920260.300    -2014421.286 3  -1472546.09645  21920266.0074
  21325543.573     2218186.871 5   1696547.71549  21325544.2064
  18154440.355   -24635130.968 7 -17883953.37649  18154439.3354
  19019888.448   -16080271.649 6 -15785493.14149  19019888.4604
  20362352.714    -8598102.604 6  -6599600.06849  20362355.0234
  19377191.441   -13446214.483 6  -9019972.61849  19377191.1484
  19999667.276    -2080360.901 6 -17500665.33949  19999668.6484
 95  2 19 20 58 29.9910000  0  8 18 16 28 19 31  2 27 29
  18103048.300   -23306151.595 7 -24281703.58849  18103047.3744
  21912971.566    -2052722.672 3  -1502391.29946  21912975.9134
  21336615.261     2276369.027 5   1741884.40449  21336616.4094
  18151323.456   -24651509.169 7 -17896715.60149  18151322.6834
  19019980.995   -16079786.088 7 -15785114.78149  19019980.6444
  20348429.948    -8671266.969 6  -6656611.20449  20348432.0344
  19363991.730   -13515578.795 6  -9074022.68349  19363991.5424
  20015490.698    -1997206.919 6 -17435870.09749  20015491.5424
 95  2 19 20 58 59.9910000  0  8 18 16 28 19 31  2 27 29
  18111385.245   -23262341.136 7 -24247565.58749  18111384.4834
  21905775.042    -2090540.220 3  -1531859.38247  21905780.6674
  21347769.120     2334982.516 5   1787557.18949  21347770.5154
  18148241.706   -24667704.742 7 -17909335.52049  18148241.0734
  19020187.261   -16078702.516 6 -15784270.43349  19020187.1084
  20334555.284    -8744177.805 6  -6713424.79249  20334556.5384
  19350813.362   -13584831.299 6  -9127985.63149  19350813.0694
  20031371.651    -1913753.607 6 -17370841.62649  20031372.0734
 95  2 19 20 59 29.9910000  0  8 18 16 28 19 31  2 27 29
  18119818.573   -23218024.357 7 -24213033.06449  18119817.5544
  21898670.206    -2127873.604 3  -1560950.32646  21898676.5464
  21359004.995     2394025.070 5   1833564.32549  21359005.9804
  18145194.706   -24683716.971 7 -17921812.57749  18145193.8864
  19020510.081   -16077005.497 6 -15782948.07649  19020509.8474
  20320729.105    -8816836.649 6  -6770042.01449  20320730.3234
  19337651.253   -13653999.696 6  -9181883.03549  19337651.0074
  20047311.315    -1829990.903 6 -17305572.05249  20047311.7264
 95  2 19 20 59 59.9910000  0  8 18 16 28 19 31  2 27 29
  18128352.964   -23173175.855 7 -24178086.20449  18128351.9914
  21891660.136    -2164711.526 4  -1589655.15248  21891664.4954
  21370322.417     2453501.690 5   1879909.69149  21370324.1754
  18142184.175   -24699537.757 7 -17934140.45849  18142183.1904
  19020953.745   -16074674.847 7 -15781131.98549  19020953.2304
  20306953.519    -8889227.839 6  -6826450.68149  20306955.4644
  19324503.519   -13723091.251 6  -9235720.57149  19324503.1794
  20063312.816    -1745902.990 6 -17240049.07849  20063313.1084
 95  2 19 21  0 29.9910000  0  8 18 16 28 19 31  2 27 29
  18136987.573   -23127800.335 7 -24142728.68349  18136986.6364
  21884747.667    -2201040.392 3  -1617963.31848  21884752.8354
  21381722.948     2513411.421 5   1926592.54749  21381724.7884
  18139209.120   -24715170.536 7 -17946321.84149  18139208.3234
  19021515.605   -16071721.771 7 -15778830.89049  19021515.1594
  20293226.323    -8961364.613 6  -6882661.08249  20293228.2454
  19311367.761   -13792119.278 6  -9289508.60349  19311367.4564
  20079375.987    -1661491.574 6 -17174274.03549  20079376.8554
 95  2 19 21  0 59.9910000  0  8 18 16 28 19 31  2 27 29
  18145722.886   -23081895.259 7 -24106958.52049  18145722.0424
  21877937.519    -2236827.440 4  -1645849.29649  21877940.9764
  21393209.073     2573772.607 5   1973627.17549  21393209.9874
  18136276.144   -24730584.870 7 -17958333.00749  18136275.2414
  19022197.722   -16068136.730 7 -15776037.34849  19022197.5934
  20279551.737    -9033222.389 6  -6938654.10949  20279553.8474
  19298249.808   -13861054.111 6  -9343224.01249  19298249.5624
  20095502.847    -1576743.630 6 -17108236.75149  20095503.1634
 95  2 19 21  1 29.9910000  0  8 18 16 28 19 31  2 27 29
  18154558.917   -23035462.027 7 -24070776.80749  18154558.1444
  21871234.909    -2272051.437 4  -1673296.51648  21871240.2764
  21404782.831     2634589.847 5   2021017.18549  21404784.3904
  18133385.808   -24745772.724 7 -17970167.69249  18133384.8704
  19023001.284   -16063914.903 7 -15772747.61349  19023000.8984
  20265933.839    -9104785.071 6  -6994417.18749  20265935.6674
  19285151.042   -13929888.055 6  -9396860.81249  19285150.9834
  20111696.308    -1491646.841 6 -17041927.63749  20111697.4914
 95  2 19 21  1 59.9910000  0  8 18 16 28 19 31  2 27 29
  18163493.800   -22988507.926 7 -24034189.21749  18163493.0624
  21864642.847    -2306692.014 4  -1700289.13447  21864647.5814
  21416444.175     2695870.133 5   2068768.00549  21416445.4644
  18130540.862   -24760723.917 7 -17981817.96949  18130540.1014
  19023927.792   -16059046.764 7 -15768954.25549  19023927.4994
  20252372.394    -9176051.159 6  -7049949.16149  20252374.2574
  19272077.683   -13998589.905 6  -9450394.68549  19272077.2024
  20127954.753    -1406209.541 6 -16975353.20849  20127955.9374
 95  2 19 21  2 29.9910000  0  8 18 16 28 19 31  2 27 29
  18172524.534   -22941053.125 7 -23997211.47249  18172523.8314
  21858161.448    -2340749.100 4  -1726827.08646  21858167.7414
  21428194.183     2757615.641 5   2116881.34849  21428194.6404
  18127741.534   -24775433.664 7 -17993280.11049  18127741.0074
  19024979.628   -16053518.891 7 -15764646.83049  19024979.0894
  20238868.683    -9247014.362 6  -7105245.10649  20238870.8624
  19259031.761   -14067145.872 6  -9503814.89049  19259031.2694
  20144275.339    -1320445.191 6 -16908523.90449  20144275.5034
 95  2 19 21  2 59.9910000  0  8 18 16 28 19 31  2 27 29
  18181651.284   -22893090.590 7 -23959838.09349  18181650.7694
  21851788.862    -2374235.309 4  -1752920.16746  21851793.0814
  21440031.245     2819822.577 5   2165354.21049  21440031.8904
  18124988.550   -24789900.931 7 -18004553.29949  18124987.7884
  19026159.831   -16047316.145 7 -15759813.52249  19026159.4564
  20225424.800    -9317662.012 6  -7160295.17949  20225426.1484
  19246015.987   -14135543.865 6  -9557111.98749  19246015.7304
  20160655.651    -1234364.733 6 -16841448.28849  20160655.8514
 95  2 19 21  3 29.9910000  0  8 18 16 28 19 31  2 27 29
  18190876.042   -22844614.736 7 -23922064.72549  18190875.1984
  21845522.690    -2407170.863 4  -1778584.19748  21845528.1874
  21451955.417     2882483.798 5   2214181.09849  21451956.6124
  18122278.191   -24804143.644 7 -18015651.51849  18122277.3704
  19027469.214   -16040436.172 7 -15754452.50749  19027468.8864
  20212037.237    -9388015.347 6  -7215115.91049  20212038.8314
  19233028.722   -14203793.631 6  -9610293.58849  19233028.1484
  20177092.823    -1147988.412 6 -16774142.15649  20177093.6904
 95  2 19 21  3 59.9910000  0  8 18 16 28 19 31  2 27 29
  18200199.456   -22795620.827 7 -23883887.68049  18200198.5894
  21839356.808    -2439568.394 4  -1803829.00046  21839360.2064
  21463966.605     2945605.148 4   2263366.48249  21463967.1914
  18119614.698   -24818140.273 7 -18026557.97949  18119613.7964
  19028910.089   -16032864.357 7 -15748552.38949  19028909.6324
  20198706.245    -9458068.284 6  -7269702.55649  20198707.9684
  19220070.894   -14271886.884 6  -9663353.23049  19220070.7534
  20193584.347    -1061324.497 6 -16706611.89949  20193584.8984
 95  2 19 21  4 29.9910000  0  8 18 16 28 19 31  2 27 29
  18209624.097   -22746094.371 7 -23845295.66349  18209623.0074
  21833292.050    -2471439.671 4  -1828663.70247  21833296.0934
  21476066.542     3009185.319 5   2312909.42648  21476066.9414
  18117000.542   -24831878.077 7 -18037262.75649  18116999.8864
  19030480.214   -16024611.411 7 -15742121.52749  19030480.0034
  20185435.151    -9527807.853 6  -7324045.01849  20185436.8394
  19207141.120   -14339831.828 6  -9716297.30349  19207140.9564
  20210131.159     -974371.687 6 -16638856.54449  20210131.9804
 95  2 19 21  4 59.9910000  0  8 18 16 28 19 31  2 27 29
  18219154.276   -22696012.365 7 -23806270.74949  18219153.3394
  21827329.737    -2502774.073 4  -1853080.07847  21827333.1014
  21488253.362     3073232.234 4   2362816.07149  21488254.1944
  18114437.956   -24845344.425 7 -18047756.00949  18114437.1714
  19032180.089   -16015679.199 7 -15735161.36649  19032179.8434
  20172223.089    -9597236.187 6  -7378144.97049  20172223.8984
  19194239.831   -14407628.532 6  -9769125.86449  19194239.6204
  20226736.628     -887109.306 6 -16570859.96049  20226737.4484
 95  2 19 21  5 29.9910000  0  8 18 16 28 19 31  2 27 29
  18228788.964   -22645379.945 7 -23766816.94049  18228788.3314
  21821470.026    -2533567.253 4  -1877074.73448  21821476.2494
  21500530.347     3137746.902 4   2413087.20148  21500531.9054
  18111926.745   -24858540.006 7 -18058038.27049  18111925.9254
  19034008.245   -16006072.174 7 -15727675.37349  19034007.9994
  20159070.878    -9666353.776 6  -7432002.77449  20159072.6944
  19181366.276   -14475281.125 6  -9821842.12949  19181365.8434
  20243403.128     -799525.570 6 -16502612.96249  20243403.9254
 95  2 19 21  5 59.9910000  0  8 18 16 28 19 31  2 27 29
  18238527.526   -22594204.067 7 -23726939.66049  18238526.6244
  21815713.925    -2563812.853 4  -1900642.68248  21815718.4954
  21512895.050     3202724.452 4   2463719.01749  21512895.5074
  18109468.714   -24871457.953 7 -18068104.19849  18109468.0934
  19035963.175   -15995799.033 6 -15719670.32649  19035962.7414
  20145979.581    -9735146.542 6  -7485607.48149  20145981.8664
  19168519.378   -14542790.571 6  -9874446.85249  19168518.9334
  20260133.769     -711606.361 6 -16434104.56349  20260134.5544
 95  2 19 21  6 29.9910000  0  8 18 16 28 19 31  2 27 29
  18248370.831   -22542478.101 7 -23686633.73949  18248370.0344
  21810065.034    -2593497.747 3  -1923773.75147  21810070.3314
  21525347.284     3268161.897 4   2514709.15248  21525348.9834
  18107059.362   -24884119.078 7 -18077970.00449  18107058.7064
  19038043.300   -15984869.121 7 -15711153.50949  19038042.7024
  20132948.112    -9803628.346 6  -7538969.86349  20132950.0694
  19155699.948   -14610158.054 6  -9926940.95349  19155699.5264
  20276931.355     -623333.895 5 -16365320.90549  20276931.7414
 95  2 19 21  6 59.9910000  0  8 18 16 28 19 31  2 27 29
  18258319.644   -22490196.228 7 -23645894.64749  18258318.8824
  21804525.120    -2622608.716 4  -1946457.58947  21804528.8124
  21537889.573     3334069.504 5   2566065.69849  21537891.9174
  18104698.308   -24896526.463 7 -18087638.09349  18104697.7104
  19040251.159   -15973265.870 7 -15702112.00749  19040250.7614
  20119976.972    -9871791.939 6  -7592084.28649  20119978.5654
  19142912.878   -14677353.992 6  -9979301.38449  19142912.7024
  20293800.214     -534688.410 5 -16296246.57249  20293801.4684
 95  2 19 21  7 29.9910000  0  8 18 16 28 19 31  2 27 29
  18268369.323   -22437384.932 7 -23604743.01149  18268368.6204
  21799088.628    -2651177.846 4  -1968719.25948  21799093.2334
  21550516.870     3400424.086 5   2617770.53649  21550519.6834
  18102382.901   -24908694.247 7 -18097119.47949  18102382.2804
  19042582.261   -15961014.117 6 -15692565.18249  19042581.8984
  20107066.753    -9939634.608 6  -7644948.65249  20107068.3004
  19130157.831   -14744381.155 6 -10031530.29949  19130157.4334
  20310735.253     -445695.660 6 -16226901.65849  20310735.3234
 95  2 19 21  7 59.9910000  0  8 18 16 28 19 31  2 27 29
  18278521.323   -22384036.531 7 -23563172.85749  18278520.5734
  21793756.464    -2679198.788 4  -1990553.69747  21793760.9294
  21563228.878     3467226.930 5   2669824.62549  21563230.4254
  18100115.284   -24920609.609 7 -18106404.17149  18100114.4874
  19045036.722   -15948117.942 6 -15682516.20149  19045036.2884
  20094218.253   -10007154.816 6  -7697561.74849  20094219.5774
  19117437.831   -14811226.383 6 -10083617.44749  19117437.3984
  20327735.636     -356357.238 5 -16157287.38549  20327737.1014
 95  2 19 21  8 29.9910000  0  8 18 16 28 19 31  2 27 29
  18288774.823   -22330153.705 7 -23521186.27049  18288774.1674
  21788528.706    -2706672.846 4  -2011962.04947  21788533.4874
  21576024.292     3534467.202 5   2722219.58349  21576025.4994
  18097895.792   -24932273.660 7 -18115493.03349  18097895.0194
  19047612.995   -15934579.300 6 -15671966.60749  19047612.4334
  20081428.784   -10074363.226 6  -7749931.88149  20081430.1204
  19104750.862   -14877894.914 6 -10135566.91049  19104750.7454
  20344797.839     -266698.513 5 -16087423.53749  20344798.6014
 95  2 19 21  8 59.9910000  0  8 18 16 28 19 31  2 27 29
  18299128.089   -22275747.686 7 -23478791.99949  18299127.2224
  21783405.456    -2733592.829 3  -2032938.61447  21783411.1754
  21588902.839     3602146.667 5   2774956.80149  21588904.9134
  18095727.292   -24943670.258 7 -18124373.49649  18095726.3194
  19050313.534   -15920388.041 6 -15660908.47449  19050312.8554
  20068703.542   -10141236.429 6  -7802040.81749  20068704.9484
  19092098.362   -14944385.781 6 -10187377.93449  19092098.0694
  20361915.394     -176742.913 5 -16017328.34149  20361915.7574
 95  2 19 21  9 29.9910000  0  8 18 16 28 19 31  2 27 29
  18309577.386   -22220836.508 7 -23436004.09549  18309576.6244
  21778391.284    -2759943.491 4  -2053471.55448  21778394.9174
  21601864.269     3670256.571 5   2828029.38449  21601866.5894
  18093609.112   -24954800.629 7 -18133046.50249  18093608.3984
  19053138.230   -15905543.733 6 -15649341.47549  19053137.7374
  20056038.581   -10207790.412 6  -7853901.01949  20056039.9764
  19079472.691   -15010733.605 6 -10239077.48749  19079472.2454
  20379087.620      -86502.470 5 -15947011.20449  20379088.2064
